GFSFLT1_sfc_wetblb_000.txt.gz
Wetbulb
48.38 48.12 47.75 46.98 46.83 47.47 46.88 45.96 47.04 48.45 47.61 46.51 45.77 46.12 46.32 46.29 49.21 50.92 51.33 50.46 50.05 47.05 48.49 47.78 46.50 45.84 45.16 44.46 43.73 43.80 43.62 42.84
46.27 46.40 46.40 45.95 46.01 46.55 46.93 46.91 46.63 45.94 44.86 44.43 43.66 43.85 45.06 45.28 46.32 50.66 50.40 49.60 49.37 46.56 46.05 47.56 47.09 45.22 45.17 44.37 43.47 43.08 42.08 42.43
46.92 46.50 43.92 45.65 45.79 45.88 45.97 46.32 46.42 46.06 44.74 44.54 44.75 43.78 44.26 45.38 45.88 46.11 49.05 49.01 47.72 46.98 45.66 45.93 45.76 44.81 43.91 44.13 44.18 42.49 42.39 42.30
45.80 46.92 45.12 44.50 45.47 45.79 46.62 46.46 46.26 46.49 46.14 44.56 43.94 43.64 43.54 43.80 43.92 44.40 46.21 47.69 48.19 47.15 46.05 45.22 44.22 43.78 43.10 43.06 42.52 41.81 40.17 41.60
45.53 45.02 44.63 45.33 46.16 45.52 45.95 46.97 46.81 46.78 46.29 44.22 43.44 45.47 44.90 46.32 46.57 43.84 45.24 47.40 47.13 46.73 46.25 45.26 44.19 43.92 43.29 43.37 43.65 42.03 41.11 39.19
43.79 43.69 44.67 45.59 46.28 46.32 46.50 46.83 46.98 48.03 47.34 45.97 44.66 44.08 45.64 46.57 43.00 42.79 42.91 44.23 45.76 46.29 45.69 44.65 44.03 44.08 42.72 41.10 40.69 39.17 40.57 38.90
45.33 45.74 46.05 46.25 46.53 46.43 47.71 47.08 47.59 48.03 47.71 47.02 44.91 43.74 45.35 43.94 43.91 43.37 43.13 41.65 41.55 42.89 43.13 42.19 41.42 40.74 40.37 39.82 39.94 37.77 38.11 38.74
43.99 44.98 45.34 45.66 45.55 45.90 46.59 46.57 47.75 49.01 46.82 46.68 46.47 45.46 45.36 44.36 44.69 44.15 43.46 41.75 41.04 40.62 41.04 40.78 40.15 39.49 39.91 39.39 40.55 40.26 38.40 37.40
44.58 45.35 45.44 45.76 46.09 46.13 46.91 47.50 46.37 46.70 46.20 46.30 45.02 44.80 44.43 44.25 42.89 42.03 39.68 41.11 40.30 40.29 39.18 39.75 40.79 40.97 40.39 40.68 41.09 40.57 39.47 36.88
44.65 45.78 45.68 44.67 44.51 45.10 45.28 44.95 46.03 46.04 44.93 42.97 40.92 40.35 40.50 38.17 37.54 38.68 39.42 39.40 39.99 39.74 40.71 41.52 42.31 42.82 42.13 40.21 37.94 37.66 38.35 37.73
44.97 44.75 45.05 44.98 44.42 44.91 45.38 45.35 45.34 44.92 41.12 40.59 39.07 37.93 38.23 38.13 38.06 37.43 37.59 38.85 40.90 41.67 42.34 42.46 42.94 41.33 40.01 38.94 37.92 36.67 36.16 36.52
43.58 45.55 46.66 47.16 46.99 46.34 44.99 43.92 43.53 40.21 39.18 39.17 38.04 37.22 37.65 36.91 36.59 36.85 37.28 38.34 39.59 40.36 40.33 39.64 39.47 39.10 38.55 37.01 35.81 35.70 35.02 34.88
43.61 44.47 44.88 44.60 44.27 43.50 43.80 43.64 40.35 39.10 39.09 38.36 37.49 36.43 35.44 35.04 35.59 36.26 36.93 37.20 38.40 37.99 37.77 37.62 37.61 37.09 36.64 35.41 34.31 34.12 32.56 31.86
43.49 43.60 44.16 43.99 43.59 43.35 43.82 42.94 39.06 39.34 38.76 36.49 34.94 34.40 33.79 34.41 34.64 35.30 36.33 36.88 36.61 36.57 36.40 36.00 36.57 36.29 35.07 34.16 33.13 32.54 32.37 32.34
43.40 42.92 43.07 43.38 43.17 43.08 43.15 39.26 39.44 39.34 38.37 34.31 33.44 33.25 33.59 34.04 34.10 34.98 35.97 36.02 35.60 35.18 35.83 35.99 35.67 34.57 33.53 32.77 32.32 30.68 29.40 29.59
42.76 42.42 42.30 42.50 42.47 42.62 40.04 39.73 39.92 38.68 35.95 35.29 35.42 36.35 36.07 35.58 34.86 35.34 37.31 36.87 35.81 35.21 34.30 33.27 32.16 32.07 32.68 30.57 29.42 28.15 27.44 27.48
42.98 43.50 43.37 42.84 42.50 41.17 39.94 39.48 39.66 39.97 39.75 40.19 39.85 39.35 38.94 38.01 38.08 38.57 37.51 35.53 34.13 32.33 30.97 30.26 29.34 31.29 33.59 33.28 31.64 27.64 27.74 27.07
42.03 43.05 42.79 41.65 40.15 39.44 38.63 39.10 40.06 41.09 40.65 40.60 40.56 40.32 39.43 38.34 38.35 37.07 33.96 31.36 29.60 28.83 28.32 27.87 27.49 27.88 32.72 32.61 32.05 28.13 27.14 26.67
42.86 42.42 40.94 39.85 39.14 38.54 38.67 38.92 39.71 39.44 39.11 39.58 38.82 38.44 36.92 35.20 32.76 31.14 28.99 28.48 27.55 26.87 26.79 27.22 26.92 28.07 31.55 31.20 30.92 27.58 26.52 26.66

GFSFLT1_sfc_wetblb_003.txt.gz
Wetbulb
46.14 45.71 46.07 46.34 46.93 46.67 45.94 47.64 48.07 47.74 46.94 45.72 44.52 44.77 45.94 46.40 46.92 49.73 51.05 50.22 50.33 47.53 47.63 48.27 46.40 44.96 44.31 43.87 43.39 42.84 42.58 42.27
44.19 44.33 44.04 44.54 44.83 45.48 44.72 44.77 44.85 45.07 44.24 43.80 43.28 43.59 43.99 44.71 45.10 47.22 49.97 50.43 49.49 47.18 46.20 47.35 46.65 44.80 44.51 44.33 42.87 42.09 41.59 41.33
44.07 43.83 42.77 44.31 44.33 44.72 44.85 45.52 45.50 44.82 43.99 43.78 43.98 42.93 43.29 43.81 44.52 45.35 48.48 50.18 49.72 47.84 45.85 46.35 46.81 45.52 43.92 43.75 42.86 41.61 41.48 41.52
44.35 44.72 43.20 42.85 43.44 43.91 44.99 45.27 45.13 45.22 44.99 43.67 43.07 42.64 42.77 42.39 43.52 43.11 44.97 48.07 50.22 48.57 46.25 45.62 45.69 45.93 44.71 42.88 42.58 41.93 39.63 40.16
44.05 44.48 44.15 43.92 44.30 44.04 44.61 45.03 44.85 45.45 45.28 44.28 42.86 43.64 44.20 46.50 46.07 45.62 45.41 45.28 47.20 48.97 47.96 45.24 44.54 43.57 41.95 41.40 42.01 40.64 39.53 37.31
42.98 43.64 43.23 42.68 43.79 43.85 44.61 45.85 46.79 46.89 46.25 45.46 44.83 43.58 45.30 46.28 45.48 42.32 43.09 43.16 44.90 46.63 47.64 45.89 43.34 44.23 43.74 42.83 40.78 39.28 37.93 37.23
44.37 44.62 44.92 45.46 45.00 45.12 45.53 46.11 46.58 47.41 46.94 46.37 44.60 43.15 43.99 43.63 43.81 42.43 43.47 41.40 41.91 43.21 43.90 44.14 42.04 41.51 40.30 37.84 38.50 38.36 38.38 37.84
42.77 42.44 44.64 44.80 44.33 44.23 45.07 44.84 44.86 45.00 44.82 44.87 44.70 43.86 42.96 42.51 42.88 42.91 41.29 38.82 38.41 38.48 40.05 38.71 38.83 39.18 39.73 40.83 39.73 39.80 39.38 38.27
43.48 44.75 43.86 43.22 43.45 43.88 43.91 44.17 44.27 44.73 44.31 43.30 42.57 41.75 41.66 42.45 41.31 40.35 39.01 37.47 36.64 38.16 39.46 41.53 41.97 41.56 42.27 42.83 42.40 41.35 40.85 39.58
42.59 42.85 43.49 43.14 43.35 43.94 43.72 43.99 44.04 44.15 42.32 39.84 40.18 39.71 39.55 39.94 37.64 37.16 36.72 36.99 38.87 39.66 40.93 41.66 41.73 41.64 41.83 42.42 41.04 39.47 38.66 38.28
42.73 43.05 43.69 44.26 43.99 43.60 43.44 43.33 43.08 42.55 38.83 39.45 40.34 39.16 37.81 37.45 36.66 36.35 36.48 37.82 40.00 41.06 41.64 41.89 41.51 41.93 41.45 40.91 38.84 38.26 37.18 36.96
42.45 43.34 43.95 43.87 43.71 43.42 42.78 42.71 42.42 39.95 38.06 38.23 38.40 38.65 36.59 35.74 35.35 35.88 36.71 38.72 39.57 38.84 38.65 39.79 39.85 39.18 38.93 37.87 36.64 35.85 35.12 34.41
43.06 43.45 43.62 43.10 42.88 42.81 42.16 42.05 40.61 38.42 38.76 38.47 38.83 37.08 35.45 33.98 34.48 35.58 36.55 37.30 38.08 37.49 37.08 37.34 37.42 36.85 36.08 34.88 33.70 33.73 32.43 31.40
43.77 43.65 44.16 43.76 43.03 42.52 42.10 42.28 38.28 38.65 38.41 37.99 36.27 33.64 32.50 32.89 34.67 36.32 36.80 36.71 36.70 36.61 36.07 35.00 35.27 35.09 34.06 33.10 32.17 31.97 31.32 31.14
43.02 43.24 42.63 42.27 42.87 42.34 41.93 39.31 38.90 38.65 37.62 34.84 32.15 31.74 32.13 32.74 33.80 35.20 36.08 37.07 35.86 35.53 35.39 35.25 34.85 33.39 32.40 32.00 31.04 28.99 27.86 28.43
42.39 42.92 42.29 41.96 41.77 41.03 40.02 38.93 38.94 38.73 37.84 34.86 34.39 36.28 36.05 34.78 37.33 38.07 37.58 37.29 37.34 35.81 34.48 32.61 31.72 31.24 31.53 29.40 28.73 28.08 27.60 27.28
42.85 41.83 41.98 41.91 41.30 39.60 38.74 38.50 38.41 38.93 37.83 38.56 39.95 39.93 39.72 39.14 38.87 38.79 37.73 37.96 37.13 33.23 31.02 30.06 29.10 30.57 33.56 32.95 31.59 28.00 27.48 26.58
40.62 40.87 41.22 41.09 39.06 38.54 37.37 37.35 38.46 37.81 37.85 39.34 40.03 39.19 39.55 38.88 38.47 38.41 37.27 32.65 30.47 29.45 28.86 28.59 28.38 28.61 32.28 32.21 31.66 27.73 26.71 26.07
40.94 42.02 40.28 38.99 38.48 37.10 36.52 37.10 37.15 37.38 36.08 33.44 34.22 35.21 34.60 32.88 31.84 30.49 28.79 28.10 27.49 26.82 27.09 27.54 27.33 28.25 31.07 30.65 30.47 26.42 24.91 25.54

GFSFLT1_sfc_wetblb_006.txt.gz
Wetbulb
44.09 43.97 43.82 44.47 45.98 48.16 47.86 48.95 49.91 48.87 46.76 45.64 44.97 44.36 45.07 46.50 46.37 47.29 50.03 50.33 50.49 49.04 47.78 47.52 46.74 44.95 43.90 42.91 42.39 42.34 42.33 41.84
42.11 42.81 43.66 44.36 44.82 44.94 44.77 45.27 45.52 44.73 43.93 43.87 43.25 43.93 43.58 44.18 44.92 46.37 47.46 49.61 50.07 49.42 48.14 47.09 47.03 45.41 45.41 43.57 42.75 42.03 41.23 41.39
43.63 43.25 42.28 43.95 44.74 44.90 44.29 44.25 44.07 43.20 42.81 42.52 42.67 41.97 42.57 42.62 43.57 44.18 45.32 46.47 48.46 49.44 48.47 46.89 46.30 46.70 43.99 43.36 42.37 40.91 41.13 40.86
42.22 42.81 42.07 42.13 42.86 42.71 43.43 43.49 43.32 43.46 43.88 43.13 42.70 42.36 42.96 42.97 44.08 43.39 44.87 45.00 46.81 48.54 48.91 47.89 46.29 46.44 46.00 44.65 43.37 41.58 40.82 40.03
43.55 42.80 41.77 42.71 42.67 43.04 43.89 44.55 44.84 45.71 45.46 44.07 43.02 41.99 41.94 44.26 44.18 44.67 45.36 44.75 44.43 46.18 48.46 47.52 46.13 45.79 45.50 44.13 43.50 42.26 39.97 38.11
40.60 41.27 43.36 42.97 42.55 43.30 43.86 45.25 45.45 45.43 44.68 44.35 43.77 43.51 43.51 44.24 44.36 43.20 43.92 43.95 42.82 43.60 44.82 45.65 44.71 42.77 42.28 43.57 41.38 40.08 39.57 37.78
43.02 43.25 44.43 43.29 43.24 43.48 43.80 44.43 44.99 45.40 44.40 43.68 42.13 40.89 41.10 41.61 42.41 41.83 42.54 42.11 40.68 40.54 41.78 41.85 40.48 39.25 37.95 37.89 39.64 38.83 36.57 38.50
40.92 42.29 42.56 43.14 43.21 43.50 44.23 43.70 43.74 43.98 43.47 41.31 40.12 39.99 39.85 39.70 40.97 41.64 40.64 39.60 36.53 36.38 37.55 38.67 39.04 39.44 40.30 41.59 40.03 40.18 40.16 39.63
42.36 42.90 42.16 42.46 42.91 42.92 42.85 42.94 43.09 43.12 42.55 40.08 40.04 40.52 40.13 40.55 40.74 39.86 38.30 36.49 36.25 38.53 39.45 40.33 40.05 40.26 40.62 40.77 40.50 40.96 40.90 39.97
41.79 43.53 43.91 43.68 44.28 44.41 43.02 42.62 42.70 43.10 41.66 38.66 39.09 39.76 40.06 40.47 39.72 36.76 36.08 36.14 39.20 39.24 39.43 39.72 40.16 41.48 41.64 41.11 39.40 38.60 38.11 37.82
43.31 43.43 44.08 44.51 43.45 43.10 43.10 42.36 42.28 42.57 39.17 38.98 40.21 39.22 40.18 40.04 37.32 35.79 35.49 36.83 39.10 39.26 39.17 38.72 39.28 38.77 39.52 40.57 40.03 40.03 38.81 38.26
41.74 42.64 43.20 43.34 42.98 42.83 42.45 41.85 41.66 41.63 37.87 38.28 38.14 39.50 39.08 37.58 34.59 34.70 35.51 37.62 38.14 37.11 37.99 37.81 38.04 39.02 38.98 37.99 37.63 36.68 35.56 35.17
41.98 42.39 42.86 42.64 42.45 42.60 42.37 41.52 41.52 38.93 38.70 38.50 38.27 36.70 34.22 33.06 33.44 34.40 35.45 35.81 36.00 35.82 36.84 36.73 36.44 35.53 35.08 34.59 33.72 33.34 32.47 31.24
42.42 43.50 42.88 42.77 42.57 42.28 42.32 41.80 39.75 38.97 38.82 37.59 34.30 32.45 31.06 31.77 32.65 34.24 35.71 35.94 36.23 36.53 36.23 36.71 36.46 35.54 34.58 33.29 31.76 31.00 30.41 30.11
41.74 41.88 42.53 42.37 42.23 42.03 41.45 40.17 39.20 38.76 38.63 35.75 33.49 32.43 31.75 32.95 35.44 36.20 36.37 36.67 36.94 37.02 37.10 35.76 34.76 32.91 32.31 31.81 31.12 29.31 28.41 28.61
41.20 41.59 43.09 42.14 42.35 42.24 39.93 39.25 38.84 38.54 37.97 37.70 36.11 38.10 37.89 36.38 36.69 37.06 37.29 37.15 37.66 38.17 37.40 33.68 31.86 31.21 31.38 29.78 28.94 28.12 27.45 27.00
41.32 40.64 40.71 41.47 41.63 39.25 38.65 38.01 38.14 38.83 37.77 37.40 38.99 40.40 39.95 38.31 38.45 37.90 37.74 37.18 37.31 37.72 33.93 28.95 28.33 29.95 33.15 32.73 31.91 28.72 28.25 27.41
37.72 38.68 40.31 40.87 39.19 37.82 37.04 37.43 37.36 37.35 37.87 35.65 35.00 36.13 37.19 36.89 37.29 36.77 35.26 32.18 29.43 28.00 27.61 27.88 28.12 28.25 31.41 31.72 31.45 28.22 27.37 26.53
39.38 39.70 40.03 38.23 38.21 36.84 35.07 33.95 33.71 32.88 32.27 33.15 34.42 33.80 31.68 30.60 29.72 28.61 28.02 27.63 26.80 26.08 26.63 27.39 26.54 26.56 29.56 29.36 29.01 26.26 24.86 24.82

GFSFLT1_sfc_wetblb_009.txt.gz
Wetbulb
50.05 50.54 51.24 52.84 55.26 56.69 58.09 57.73 58.11 57.63 57.05 55.87 55.33 54.75 54.93 54.91 55.31 55.51 55.89 56.51 57.43 57.58 57.54 56.84 56.60 55.17 54.83 53.96 53.06 52.67 51.57 51.62
49.28 49.70 50.62 51.70 53.39 54.86 55.70 55.20 54.96 54.43 53.24 52.72 53.31 52.82 52.88 53.36 53.61 53.55 53.61 53.92 54.60 55.43 55.60 55.99 55.83 54.22 54.38 54.16 52.92 51.44 50.70 51.11
48.50 49.74 50.84 51.67 53.04 52.89 51.00 50.46 50.82 50.72 51.40 51.81 51.81 51.43 52.14 51.80 52.29 53.23 53.55 52.98 53.01 52.88 53.86 53.96 54.42 53.70 54.26 54.13 52.34 51.52 50.57 51.27
49.24 49.69 50.31 50.52 49.99 49.66 49.82 50.26 51.20 51.73 51.74 52.04 52.44 52.51 52.48 52.18 51.99 52.03 52.53 52.76 52.47 52.24 52.13 52.57 53.00 53.30 52.15 54.07 53.46 51.41 50.44 50.62
49.39 49.50 49.56 49.59 49.56 51.35 51.76 51.84 51.92 51.50 51.73 50.67 49.75 48.59 47.76 49.55 49.88 50.37 50.78 51.86 51.61 51.31 50.79 50.97 51.48 52.00 51.74 51.96 52.76 52.08 50.77 49.48
47.48 48.64 48.99 49.29 50.27 50.59 51.17 51.27 51.09 50.94 50.29 49.20 49.06 48.57 48.84 48.93 48.86 48.62 48.82 49.91 50.41 49.57 49.08 49.11 49.29 49.91 50.64 50.48 50.51 49.07 49.36 48.42
48.08 48.85 49.36 49.62 50.65 50.85 51.20 50.92 50.70 50.94 50.40 48.72 48.33 47.77 47.58 47.55 48.02 47.60 48.20 48.62 48.13 47.02 46.54 47.19 46.42 46.35 45.82 45.83 45.38 45.52 45.11 45.10
47.93 48.28 48.63 49.19 49.74 49.97 50.25 50.08 49.68 50.02 49.78 47.68 47.32 47.87 48.02 47.17 46.65 46.53 46.35 46.29 45.90 45.30 45.12 45.73 45.39 45.66 45.64 45.50 44.96 44.18 43.52 42.12
47.87 47.77 48.04 48.62 49.18 49.39 49.65 49.35 49.31 49.63 49.70 47.64 47.24 47.75 46.79 45.74 46.14 45.92 45.57 44.06 44.12 44.89 45.30 45.65 45.72 45.57 45.33 45.41 44.50 41.23 39.93 39.44
47.32 48.25 48.87 49.13 49.23 49.40 48.89 48.62 48.77 49.15 48.85 46.76 46.49 45.96 45.49 45.06 44.97 44.14 43.20 42.80 44.14 45.39 45.70 45.30 45.46 45.51 44.90 43.26 42.97 39.97 38.82 37.21
48.57 48.95 48.98 49.01 49.39 49.13 49.33 49.35 47.90 47.93 47.53 45.33 45.06 44.97 44.62 43.32 41.57 41.09 41.56 42.77 44.63 44.97 43.83 43.01 42.55 42.77 42.28 41.56 41.74 41.55 40.95 40.99
48.19 48.42 48.90 48.51 48.74 48.92 48.64 48.43 47.28 46.91 44.41 44.20 44.18 43.31 41.24 39.60 39.73 40.56 41.24 43.10 42.70 41.11 41.15 40.98 40.36 39.35 39.73 40.61 40.31 40.18 39.22 38.89
47.63 47.73 47.94 48.10 48.04 48.10 47.89 47.48 45.82 44.06 43.79 43.91 42.45 40.18 38.59 38.68 39.52 40.17 41.15 40.53 40.71 40.38 40.45 39.84 39.21 39.35 40.43 38.74 37.58 37.50 36.79 35.97
47.20 47.14 46.85 46.72 46.26 46.33 46.50 45.35 43.78 43.92 43.48 42.49 40.31 39.23 38.48 40.24 40.65 41.17 41.54 41.25 41.16 41.41 40.29 39.53 39.04 37.85 37.39 36.87 35.84 35.79 35.58 35.51
46.01 45.74 44.74 44.59 44.85 44.80 43.88 43.43 43.49 42.64 42.62 41.55 40.21 39.62 40.03 40.42 40.83 40.98 41.02 40.75 40.28 39.07 38.48 38.79 38.41 37.57 36.24 35.63 35.45 35.05 34.57 33.86
43.75 42.32 41.82 43.12 43.45 43.61 42.86 42.78 42.18 42.59 41.73 41.29 41.03 41.49 41.41 39.72 39.28 39.63 40.35 40.21 39.87 39.93 39.41 38.26 34.88 34.24 34.02 34.87 34.22 33.56 33.26 32.85
40.53 40.63 40.50 41.48 42.42 41.62 40.80 41.01 40.94 41.68 40.65 37.97 37.63 38.02 38.85 38.70 38.76 38.81 38.82 37.48 35.57 34.20 33.35 32.67 32.67 32.49 32.84 33.19 32.92 32.93 32.16 31.08
39.07 40.13 41.08 41.77 41.85 40.48 39.92 39.90 39.88 39.53 37.44 37.04 37.54 38.09 36.35 35.58 35.19 34.80 33.97 33.41 33.45 32.66 32.37 32.44 31.88 31.81 29.89 30.37 30.11 30.63 30.16 29.59
39.25 40.51 41.68 42.58 41.44 40.17 38.93 38.47 37.63 36.93 36.55 37.28 37.56 35.69 33.96 34.02 33.60 32.61 32.22 32.39 31.58 31.12 31.37 30.98 30.02 29.77 28.35 28.55 28.36 29.46 29.11 28.75

GFSFLT1_sfc_wetblb_012.txt.gz
Wetbulb
58.27 57.77 57.38 58.15 60.82 62.64 64.72 64.21 62.36 62.04 63.03 62.07 60.49 60.05 60.03 59.88 59.41 59.10 58.99 58.83 59.12 59.36 59.24 59.98 60.33 59.45 58.81 58.45 58.08 58.01 57.03 56.14
55.88 56.68 57.53 57.93 59.86 60.13 60.62 60.35 57.50 59.50 59.12 57.05 57.55 57.16 57.47 58.10 58.67 58.37 58.42 58.27 57.93 57.86 57.47 57.80 58.27 57.74 58.08 58.37 57.85 57.08 56.28 56.80
55.01 56.51 57.33 57.93 57.37 57.02 56.38 55.79 55.98 56.36 57.46 57.52 57.45 57.02 57.71 57.62 57.94 57.60 57.18 56.15 56.12 55.60 56.02 55.77 56.13 55.76 56.41 56.76 56.89 55.96 56.19 56.48
53.85 54.47 55.41 56.20 56.19 56.31 55.88 56.50 56.62 56.75 56.75 57.36 57.36 57.40 56.96 55.54 54.37 54.51 54.65 54.70 54.44 54.50 54.48 54.60 54.71 54.78 54.00 55.15 55.49 55.13 53.64 55.67
53.28 53.78 54.37 55.64 56.09 56.87 56.37 56.36 56.02 55.83 55.98 54.98 54.35 53.43 52.11 53.23 53.49 53.68 53.54 53.97 53.40 53.04 53.24 53.39 53.73 53.71 53.41 53.70 53.91 54.22 54.00 52.17
53.05 53.54 54.38 55.12 55.89 56.17 56.60 55.96 55.47 55.18 54.67 54.35 53.95 53.16 53.19 53.37 53.19 52.36 52.23 52.31 52.34 52.12 52.31 52.14 52.44 52.85 53.01 53.08 52.90 52.77 53.02 52.07
53.12 53.85 54.47 54.90 56.15 56.16 55.76 55.04 54.30 54.76 54.57 53.24 52.49 52.28 51.87 51.41 50.95 49.89 49.77 50.13 50.36 51.06 51.17 51.06 51.37 51.09 50.72 50.48 50.15 49.02 48.54 47.74
52.73 52.75 53.52 54.07 54.54 55.10 54.73 54.50 53.52 53.85 53.45 52.60 52.04 51.82 51.61 50.52 49.81 48.86 48.10 47.97 48.42 49.14 50.05 50.25 50.08 50.49 50.05 48.36 45.29 43.42 42.57 40.40
52.23 52.48 53.36 53.71 53.67 54.05 54.28 53.94 53.04 52.82 52.64 52.10 52.06 52.17 51.38 49.63 48.77 47.75 46.99 47.37 47.96 49.01 49.29 48.97 48.62 48.56 48.00 47.22 45.80 43.87 40.84 39.56
51.68 52.42 53.15 53.55 53.48 53.49 53.72 53.62 53.61 53.22 52.45 52.24 51.34 50.90 49.11 47.83 47.07 46.81 46.79 47.38 47.29 48.56 48.24 47.69 46.88 46.27 45.34 44.43 42.86 41.85 42.31 41.45
52.12 52.70 52.86 53.07 53.77 54.13 53.93 53.54 52.73 52.52 52.02 50.78 49.61 48.81 47.70 46.26 45.90 45.56 46.13 46.88 47.53 46.44 45.71 45.24 44.65 43.85 42.94 41.67 41.72 41.92 41.03 41.10
51.44 52.02 52.32 53.03 53.15 52.79 52.26 52.10 51.21 50.43 49.88 49.11 48.13 46.90 45.58 45.45 45.14 44.96 45.22 45.52 44.60 44.15 43.76 43.41 42.13 40.97 40.81 40.65 41.14 41.15 39.98 39.56
51.57 51.88 51.80 51.77 51.27 50.68 49.99 49.85 48.97 48.64 48.19 47.44 46.47 45.43 45.18 44.76 44.45 44.40 44.69 43.97 44.36 43.79 42.71 41.71 40.89 40.52 41.36 39.25 39.06 39.20 38.28 37.38
50.87 51.17 50.54 49.54 48.85 48.03 48.21 47.88 47.62 47.46 46.84 46.13 45.49 45.01 44.44 43.41 43.68 43.24 43.58 42.94 42.41 42.06 41.54 40.09 40.16 40.81 40.49 39.78 39.23 38.88 38.62 38.29
49.69 49.26 48.62 46.70 46.81 46.57 46.97 46.85 47.16 46.00 45.69 45.04 44.50 43.83 43.17 43.36 42.96 42.60 42.50 42.31 41.39 41.06 40.91 40.33 39.73 38.39 37.99 37.79 37.72 37.59 37.29 37.13
46.41 46.06 44.76 45.49 45.13 46.23 46.63 45.59 44.91 45.30 44.78 44.24 43.02 42.74 42.64 42.13 41.67 41.37 41.22 40.89 39.96 39.13 38.45 37.92 37.75 37.10 36.18 35.64 35.72 35.82 35.81 35.39
41.53 41.87 43.18 43.50 44.71 45.43 43.81 43.64 44.18 44.93 43.86 42.41 41.71 41.59 41.33 40.59 40.06 39.55 38.93 38.03 37.89 37.66 37.17 36.64 36.35 35.88 31.18 30.69 31.57 33.30 33.73 33.86
40.82 42.27 43.01 44.25 45.68 44.22 43.13 43.29 43.87 43.35 42.49 41.53 40.77 40.74 39.73 38.97 38.35 37.39 36.81 36.66 37.04 36.26 36.06 35.85 34.99 35.23 29.82 29.55 29.01 31.58 31.92 32.59
42.19 43.21 43.43 44.98 45.72 43.95 44.07 43.57 42.78 41.99 41.29 40.52 40.40 39.13 37.84 37.59 36.56 36.04 36.13 36.38 35.69 35.27 35.02 34.43 33.87 33.71 29.78 28.58 27.95 30.83 31.88 32.02

GFSFLT1_sfc_wetblb_015.txt.gz
Wetbulb
61.65 60.55 60.89 60.11 61.76 62.91 64.44 66.65 65.17 63.48 63.19 62.76 61.00 60.78 60.49 60.88 60.12 60.07 60.10 60.00 60.05 59.59 59.23 60.25 60.35 58.62 58.91 59.67 60.23 59.47 59.40 58.69
59.25 59.10 59.95 61.12 62.96 63.36 64.18 63.09 60.32 60.58 59.99 58.31 58.28 57.89 58.64 59.24 59.80 59.71 59.74 59.03 58.08 57.78 57.05 57.37 57.95 56.60 57.73 59.07 58.56 58.00 57.43 59.27
57.12 58.47 59.36 59.38 59.51 59.67 59.24 58.50 58.31 58.40 58.55 58.51 58.90 58.37 58.61 58.91 59.33 58.66 58.22 57.29 56.57 55.69 55.54 55.12 55.37 54.44 56.60 57.09 57.09 55.87 56.74 57.97
55.45 56.50 57.74 58.72 58.30 58.32 57.99 58.13 58.25 58.13 58.14 58.39 58.04 58.15 58.07 57.14 57.08 56.52 56.76 56.53 55.65 55.14 54.52 54.53 54.94 55.27 54.32 55.92 55.72 55.11 53.23 55.29
55.45 56.26 56.76 57.52 57.85 58.38 58.15 57.64 57.39 57.33 57.56 56.73 56.31 55.15 54.16 55.38 55.59 55.77 55.21 55.02 53.94 53.41 53.23 54.11 54.68 53.76 53.76 54.33 53.71 54.99 54.12 51.74
54.93 55.58 56.35 57.16 57.99 58.24 58.10 57.30 57.03 57.19 57.08 56.14 55.05 54.30 54.59 54.89 54.52 53.85 53.04 53.11 52.84 52.20 52.34 53.26 52.77 52.51 52.67 52.62 51.85 51.55 51.22 50.04
55.07 55.74 56.30 56.69 57.77 58.01 57.86 57.12 56.72 56.65 56.69 55.99 54.53 53.53 53.08 52.19 52.00 50.87 50.92 50.85 50.65 51.30 50.61 51.46 52.07 51.53 51.21 50.86 49.46 48.40 46.62 46.00
54.45 54.71 55.36 55.57 55.88 56.52 57.07 56.55 56.08 56.35 55.27 55.03 54.76 53.50 53.06 51.78 50.84 49.89 48.48 47.93 48.50 49.73 49.70 50.27 49.96 50.34 49.43 48.05 46.33 45.07 43.56 42.19
53.83 54.37 54.95 55.50 55.54 56.22 56.20 55.77 55.24 55.90 55.66 54.87 54.62 53.63 52.04 50.79 49.58 47.78 46.93 47.04 48.11 48.71 49.16 49.69 48.40 48.05 46.37 44.46 43.36 41.77 41.04 41.99
53.22 54.28 54.81 54.90 55.14 55.48 55.45 54.88 54.38 54.43 54.58 54.15 52.88 51.78 50.37 48.77 47.63 47.20 47.25 47.48 47.46 48.57 48.18 46.84 45.99 44.28 44.53 44.86 43.86 42.87 43.23 42.46
53.64 53.87 54.40 54.50 54.85 55.06 55.04 54.26 53.48 52.93 51.74 51.94 50.84 50.16 49.21 47.48 46.91 46.27 46.19 46.61 46.77 45.94 45.87 45.32 43.77 43.69 42.98 43.06 41.99 42.32 41.94 42.50
53.00 53.41 53.80 54.10 54.52 53.99 53.17 52.53 51.90 51.19 50.69 49.96 49.15 48.32 47.42 46.81 46.11 46.12 45.23 45.27 44.76 44.47 44.01 43.54 42.47 41.81 42.02 41.90 41.23 41.23 40.11 40.09
51.77 51.59 51.98 52.16 52.27 52.22 51.36 50.78 49.51 49.36 49.19 48.29 47.37 47.10 46.83 46.20 45.38 43.92 44.04 43.42 44.45 44.50 43.80 41.97 42.02 41.93 41.47 40.47 40.35 39.88 39.01 38.51
50.50 51.03 50.96 49.90 50.41 50.02 48.75 48.90 48.55 48.55 47.37 46.39 46.19 46.08 45.51 43.62 43.30 43.01 42.88 42.80 42.43 42.86 42.48 41.46 40.89 40.58 39.69 39.19 38.90 38.38 37.96 37.98
48.86 49.41 49.28 49.48 48.20 47.49 47.72 47.89 47.90 46.70 46.00 45.52 45.11 45.02 43.91 42.81 43.25 42.79 41.99 41.93 40.80 39.79 39.96 39.41 39.23 38.80 38.59 38.43 37.75 36.53 36.59 36.67
47.71 47.61 46.91 46.38 46.25 46.58 47.15 46.89 46.31 45.96 45.00 44.74 44.45 44.32 43.18 42.24 42.10 41.26 40.89 40.30 39.47 39.25 38.78 38.69 38.52 38.23 37.09 35.79 35.08 34.10 34.14 34.45
45.85 44.71 45.16 44.85 45.15 45.62 46.44 45.77 45.68 45.22 44.25 43.58 43.90 42.79 41.57 41.58 40.61 39.92 39.27 38.75 38.44 38.51 37.81 37.63 37.17 36.81 31.13 30.57 30.78 31.96 31.83 32.46
44.94 44.42 44.92 45.20 45.38 46.17 46.05 45.20 45.79 44.45 43.61 43.37 42.79 41.95 40.94 40.19 39.29 38.68 37.96 37.63 38.01 37.29 37.05 36.83 35.86 35.79 30.44 30.07 29.64 31.14 30.45 31.49
44.90 45.09 44.74 45.08 45.70 46.05 46.70 45.90 44.88 43.98 43.13 42.71 42.27 41.46 40.45 39.12 38.81 37.65 37.58 37.48 36.94 36.46 35.93 35.62 34.81 34.39 31.27 29.62 28.76 29.97 30.59 31.03

GFSFLT1_sfc_wetblb_021.txt.gz
Wetbulb
55.69 56.65 57.49 57.84 58.24 57.70 57.44 58.10 57.96 58.10 55.94 55.32 54.36 54.10 54.05 54.03 53.63 53.89 54.13 53.65 53.22 51.67 51.15 50.78 50.41 49.54 49.36 49.16 48.37 49.17 48.96 49.54
54.51 54.77 54.96 55.43 54.81 55.19 54.39 53.99 53.03 53.25 52.36 51.24 51.19 50.79 51.58 52.20 53.23 53.15 53.77 52.89 52.16 50.89 50.29 49.51 49.26 48.24 47.69 47.90 47.43 47.26 47.49 48.27
53.75 53.73 52.85 52.40 51.90 52.59 52.67 52.65 52.55 52.48 51.51 51.21 51.78 50.70 51.66 51.80 52.22 52.65 52.75 51.05 50.37 49.73 47.74 47.51 47.54 47.46 46.90 46.55 45.70 45.09 44.98 46.15
52.49 52.61 50.99 50.63 50.66 50.98 52.26 52.33 52.33 51.83 51.71 51.45 50.87 51.11 50.23 49.89 50.08 50.19 49.57 49.24 48.62 47.65 47.08 46.23 46.27 46.08 45.79 45.12 44.95 44.88 44.26 45.07
52.45 51.43 50.61 50.73 50.54 51.37 51.80 51.96 51.82 52.60 51.81 50.28 49.37 47.93 47.07 48.43 48.13 47.80 47.35 47.17 46.76 46.87 46.18 45.66 45.24 45.07 44.42 44.66 46.44 44.11 42.93 40.77
49.63 50.48 51.16 51.39 51.61 51.11 51.53 52.02 51.91 51.65 51.40 50.51 48.63 47.71 48.04 48.17 47.09 45.52 44.61 45.15 45.78 45.97 45.64 44.56 44.55 45.24 44.68 43.93 43.55 43.63 43.42 42.42
50.14 50.95 51.93 51.22 51.09 50.85 50.63 51.02 51.30 51.42 51.46 50.33 48.40 47.11 46.44 45.10 43.79 42.80 42.80 43.10 43.55 43.79 45.08 44.51 44.34 42.74 42.73 42.96 43.02 41.44 41.04 40.99
48.39 49.06 51.29 51.64 49.08 49.67 50.38 50.12 49.75 49.97 50.03 49.26 47.78 45.91 44.78 42.95 41.73 41.10 41.01 41.15 40.92 41.54 42.51 42.95 42.30 42.24 41.62 41.23 40.95 41.62 40.72 39.68
48.17 48.74 48.57 48.77 49.59 49.09 49.35 49.37 49.27 49.35 48.77 47.40 46.26 45.82 44.47 43.02 42.14 41.42 40.76 40.72 40.79 40.99 41.27 41.74 42.90 42.83 41.27 40.95 40.03 40.22 39.19 38.24
49.25 48.58 48.47 48.03 48.10 48.64 48.35 48.17 47.86 48.51 46.56 45.62 44.77 44.76 44.06 42.55 41.59 40.75 40.54 40.08 41.98 40.33 40.00 40.73 42.84 42.08 40.94 40.11 38.93 37.77 37.58 37.44
47.22 47.48 48.04 48.19 47.91 47.83 47.32 47.49 46.19 45.16 44.24 44.87 43.70 42.69 42.50 41.67 40.86 39.76 39.79 39.44 40.07 38.84 39.38 40.24 40.53 40.33 39.71 38.49 37.69 38.16 37.61 37.21
46.61 47.23 47.28 47.37 47.26 46.69 46.33 44.49 43.90 43.35 43.00 42.45 41.37 41.08 41.34 40.99 40.37 39.71 39.34 39.26 39.23 39.22 39.84 38.94 38.49 38.35 38.27 37.59 37.01 37.47 37.13 36.37
45.91 46.44 46.27 45.51 45.19 44.87 44.55 43.12 42.78 42.48 42.23 41.77 41.02 40.99 40.56 39.76 39.27 39.40 39.05 38.15 38.37 38.16 37.62 35.69 35.40 34.87 34.95 34.53 34.11 32.45 31.79 30.54
45.03 44.71 44.38 43.92 43.32 43.03 42.42 42.10 42.65 42.35 41.84 40.30 39.41 39.67 39.74 38.46 38.04 38.74 38.78 37.83 37.10 35.88 34.98 34.39 34.31 34.58 33.76 32.93 32.55 31.59 30.64 30.77
43.56 42.86 43.16 42.74 42.89 42.04 41.68 41.75 42.55 42.46 41.60 40.18 40.12 39.23 40.53 38.05 38.11 38.05 38.52 37.24 35.74 34.20 34.39 34.64 34.75 34.26 32.98 31.99 31.14 29.31 28.56 29.11
43.15 42.30 42.11 41.52 41.11 41.04 41.12 41.37 41.77 42.16 41.54 40.58 40.48 41.28 41.20 38.41 38.70 39.63 39.03 37.17 35.56 34.37 33.98 33.75 33.58 33.20 31.72 29.09 28.48 27.11 26.66 26.85
42.29 42.32 42.12 41.88 40.81 39.91 40.37 40.07 40.49 42.22 41.31 41.14 41.98 40.94 39.91 39.98 38.80 39.17 38.34 36.05 33.39 33.05 32.73 32.94 31.43 32.50 31.80 31.09 29.00 25.92 26.40 26.10
41.57 41.94 42.21 40.67 39.24 39.90 37.97 38.21 39.02 38.30 38.54 39.25 39.84 39.77 39.96 39.92 39.61 39.49 36.95 33.74 32.27 31.58 31.61 31.43 30.18 29.15 32.42 31.66 30.83 27.12 25.42 24.45
42.24 42.16 41.31 38.88 38.45 37.84 37.85 37.77 37.24 37.03 37.01 38.76 39.13 39.02 38.54 38.21 38.41 37.26 34.88 32.70 31.90 31.04 31.07 29.39 28.70 30.49 32.85 32.99 32.31 26.59 25.04 25.04

GFSFLT1_sfc_wetblb_024.txt.gz
Wetbulb
54.37 54.90 55.65 56.19 57.92 59.83 59.10 58.23 58.46 58.03 54.19 52.53 52.94 52.19 51.83 52.25 51.84 51.75 51.62 51.20 50.95 49.29 49.45 48.07 48.41 47.53 47.25 46.56 45.85 46.34 45.79 44.99
52.24 52.47 52.83 52.55 53.25 53.04 53.25 52.76 51.79 51.74 51.33 50.58 50.29 49.31 49.72 51.05 51.27 50.93 49.76 49.34 49.41 47.84 46.44 46.31 46.59 45.86 45.15 45.66 45.72 44.32 44.28 44.77
51.20 51.16 50.65 50.47 50.26 51.22 50.94 51.56 50.80 50.50 50.04 49.57 49.87 49.21 49.74 49.38 49.62 48.54 48.45 48.00 47.28 47.30 45.18 44.79 44.58 44.26 43.69 43.42 43.21 42.63 43.25 44.10
49.84 50.14 49.67 50.07 48.99 49.82 50.26 50.32 50.46 50.28 50.36 49.56 49.11 48.78 48.27 47.77 46.61 45.63 46.63 47.08 46.15 45.11 44.58 43.96 43.64 43.62 43.41 43.05 43.39 42.99 42.32 42.45
50.26 49.51 48.75 48.93 48.72 49.35 49.90 50.32 50.58 50.80 50.16 49.06 47.88 46.40 45.54 45.87 44.68 43.44 43.55 44.80 44.65 44.53 44.78 44.37 43.76 44.00 42.82 43.16 44.22 44.06 43.83 41.14
48.84 49.72 49.51 49.55 49.82 49.23 49.12 50.44 50.56 50.16 49.39 48.44 47.53 46.25 45.74 44.82 43.32 42.68 42.94 43.43 43.82 44.12 44.10 43.48 42.99 42.21 41.38 40.87 40.19 39.64 40.04 38.69
48.66 49.57 50.36 49.43 48.71 48.31 48.25 48.52 49.15 49.45 48.75 47.17 45.97 44.37 43.22 41.69 41.24 40.59 40.91 41.51 41.35 41.61 42.02 42.55 41.58 40.92 40.22 39.73 39.16 38.50 38.14 38.19
47.36 48.38 48.49 48.94 47.51 47.64 48.18 47.90 47.77 48.69 47.54 45.92 44.96 43.80 42.36 41.05 40.47 39.89 39.21 39.57 39.35 39.32 40.05 40.60 40.64 40.86 41.06 41.78 40.02 39.06 37.82 36.65
46.91 46.72 46.84 47.04 47.62 47.19 46.93 46.99 46.89 46.95 45.93 44.62 44.15 43.98 42.50 41.59 40.91 39.80 39.56 38.94 38.96 39.11 39.28 40.51 41.11 41.77 41.00 39.72 38.25 37.16 36.77 35.69
45.81 46.26 46.06 46.15 46.53 46.66 45.84 47.09 45.56 45.33 46.39 43.81 42.63 43.14 42.49 41.28 40.09 39.32 38.82 38.79 40.47 38.86 38.13 38.97 39.89 40.36 39.48 38.52 37.01 36.11 36.02 35.59
45.56 45.81 46.41 46.59 46.59 45.60 45.01 44.96 43.74 43.23 42.68 42.36 42.04 41.09 41.10 40.42 39.46 38.82 38.68 38.52 38.80 37.72 37.52 37.86 38.28 38.61 38.24 37.10 36.00 35.86 35.34 35.13
45.69 45.76 45.98 45.45 44.38 43.18 42.48 42.14 42.23 41.73 41.50 41.22 40.38 39.82 39.77 40.08 39.18 38.84 38.73 38.29 38.18 37.70 37.94 36.98 34.75 34.23 34.29 33.85 33.78 33.44 32.43 30.54
44.03 44.35 43.29 42.55 42.02 41.22 41.68 41.05 41.35 41.59 41.18 40.73 39.68 39.57 38.94 39.11 38.62 38.64 38.03 37.53 38.34 38.63 37.92 34.82 34.57 33.11 32.60 31.59 31.06 30.66 29.70 29.06
42.80 42.07 42.30 42.08 41.46 41.03 40.65 40.35 40.07 41.27 40.68 38.99 38.23 38.51 38.06 38.00 37.69 37.47 38.02 37.89 37.61 37.93 35.30 34.62 34.37 33.48 32.12 31.06 30.33 29.25 28.06 27.91
41.39 40.99 40.99 41.09 40.46 40.07 39.70 39.52 39.42 39.88 39.78 38.95 38.33 38.09 38.80 37.80 36.68 38.31 39.18 39.92 38.58 37.36 35.03 34.71 34.23 32.93 31.29 30.25 29.19 27.21 26.87 27.33
41.40 41.06 39.81 39.77 39.52 39.13 38.23 38.09 38.82 39.60 38.40 38.16 38.45 39.33 38.77 37.19 37.66 38.56 38.85 38.31 38.57 37.38 35.26 34.38 33.05 31.06 30.64 28.02 28.06 27.29 26.38 26.03
40.21 40.36 40.68 40.88 39.73 36.85 37.33 36.98 37.35 37.54 36.83 37.73 38.99 38.58 38.35 38.30 38.32 37.90 36.88 38.27 37.69 33.87 33.81 32.42 30.48 31.38 32.17 31.35 30.04 26.13 26.55 25.71
40.41 40.75 40.82 39.77 36.14 36.59 35.61 35.97 36.62 35.92 36.70 37.90 37.99 37.67 37.28 36.92 37.43 37.57 37.60 34.08 33.98 33.39 31.83 30.65 28.74 28.37 32.23 33.27 33.27 28.62 26.35 24.89
39.82 38.57 36.88 35.76 35.44 35.33 35.43 35.57 34.92 35.28 36.66 36.66 37.16 37.34 36.63 36.28 35.25 35.79 34.90 33.58 32.87 30.66 29.39 28.33 27.90 29.50 31.75 31.54 30.63 26.53 25.36 25.41

GFSFLT1_sfc_wetblb_027.txt.gz
Wetbulb
51.36 52.31 55.72 57.66 57.09 57.21 57.45 58.63 58.56 55.63 52.68 51.72 51.37 51.17 50.45 50.48 48.90 47.87 47.74 47.38 47.03 46.21 46.16 46.57 46.46 45.08 44.49 44.19 43.09 44.22 43.30 42.53
50.80 51.45 52.37 52.65 52.42 52.45 53.48 53.30 52.05 53.03 51.75 51.37 49.30 48.93 47.86 47.77 47.08 46.87 46.47 47.49 47.27 45.38 45.15 44.47 44.22 43.58 42.86 43.41 42.88 42.39 42.24 43.43
49.43 49.91 50.22 50.50 51.02 52.18 50.38 50.40 50.17 49.71 49.49 49.25 48.83 47.70 47.23 46.68 45.28 45.20 46.49 45.89 44.71 45.15 43.66 43.68 43.54 43.70 43.33 42.86 42.17 41.96 42.40 41.78
48.89 49.86 50.00 49.58 48.56 48.47 49.22 49.00 49.37 49.66 49.66 48.85 48.26 48.24 47.26 44.99 43.44 42.87 43.83 44.43 44.23 44.35 43.98 43.31 42.81 42.60 41.48 41.42 41.19 40.39 39.30 40.88
49.75 49.04 47.75 46.94 47.21 47.93 48.71 49.21 48.96 49.32 48.74 47.84 46.98 45.48 44.66 44.14 42.39 41.70 42.25 43.29 43.59 43.67 43.19 43.01 41.97 41.85 40.37 40.42 41.18 39.04 38.63 36.86
47.99 47.93 48.04 48.42 47.98 47.00 47.86 48.63 48.92 48.61 48.17 47.64 46.52 44.98 44.50 43.36 42.22 41.69 41.85 41.97 42.65 42.21 42.11 42.15 40.79 40.62 39.56 39.11 38.22 38.07 38.40 38.05
47.91 48.26 48.79 48.24 47.71 46.23 46.19 47.55 47.58 47.71 47.10 46.69 45.48 43.55 42.09 41.01 40.41 40.10 39.73 40.03 40.02 39.89 41.12 41.21 40.42 39.82 39.33 38.71 38.10 37.48 36.76 36.36
47.03 48.68 48.93 48.68 46.91 45.83 46.16 46.85 47.04 47.00 45.66 44.67 43.77 42.79 41.71 40.69 40.40 39.39 38.38 38.72 38.52 38.24 38.84 39.74 39.72 39.67 39.48 39.09 38.01 36.77 35.84 34.63
46.85 46.43 45.67 46.04 46.46 45.75 45.28 46.20 45.95 45.64 44.68 43.76 43.32 42.93 41.72 41.29 40.34 39.25 38.41 38.85 38.39 38.58 37.74 39.85 39.79 40.11 39.76 38.54 37.12 36.20 35.13 34.56
43.98 44.63 44.93 44.84 44.89 45.06 44.23 44.42 44.44 44.31 43.50 42.38 42.32 42.56 41.65 40.68 40.12 38.86 38.68 38.53 39.16 38.37 37.08 38.10 38.68 39.80 38.78 37.61 35.95 34.93 34.37 33.96
43.90 44.19 44.56 45.13 45.62 43.93 43.30 43.54 43.02 42.80 42.12 41.86 41.28 40.26 40.40 40.35 39.14 38.56 38.26 38.22 37.92 37.94 37.11 37.22 38.60 38.26 37.79 36.23 34.19 34.24 33.27 32.63
43.13 43.73 44.40 44.01 42.86 40.95 40.78 41.01 41.47 40.89 40.62 40.21 39.48 39.07 38.66 38.67 38.65 38.52 38.22 37.76 37.45 38.57 38.66 38.07 36.54 35.00 34.18 33.13 32.14 31.94 30.60 28.75
42.65 43.88 43.31 42.40 40.63 39.88 40.45 39.70 39.57 40.11 40.07 39.06 38.07 37.67 37.46 36.92 37.63 38.02 37.72 37.19 38.57 37.24 37.60 38.16 37.34 34.35 33.54 32.67 31.46 30.66 28.68 27.65
41.17 41.12 41.22 41.28 39.83 40.23 39.42 38.26 37.96 38.73 38.73 37.11 36.98 37.14 37.05 36.52 36.39 36.93 36.93 37.42 36.98 37.42 37.18 37.89 34.89 34.60 33.56 31.76 30.46 28.63 27.42 27.22
39.85 39.80 39.50 40.38 40.13 38.26 37.02 37.14 37.58 37.30 36.77 36.61 36.70 36.57 37.21 36.34 36.08 35.85 36.42 37.21 36.93 36.13 37.02 34.32 35.49 34.32 32.35 29.99 28.42 27.51 27.53 27.39
40.30 39.48 40.41 38.75 38.38 36.16 35.88 35.82 36.34 36.41 36.60 36.52 36.61 37.03 37.12 36.94 37.11 37.21 37.43 36.69 36.81 37.95 36.85 34.33 33.81 32.32 30.48 28.32 28.38 27.96 26.56 26.18
40.26 39.43 39.60 39.17 35.98 34.96 35.53 35.40 35.55 35.30 35.59 35.99 37.01 36.77 36.76 35.95 35.46 35.81 35.95 38.03 35.21 35.13 34.71 32.78 29.20 31.00 32.51 32.79 32.10 27.77 27.62 26.51
38.91 38.85 38.36 35.28 34.54 34.90 34.06 34.53 34.62 34.16 35.94 36.51 36.56 36.50 35.72 35.31 35.42 34.76 35.02 34.22 33.29 32.43 30.43 28.48 27.96 28.65 32.30 32.13 31.15 27.67 26.59 25.68
37.22 35.10 34.58 34.28 33.99 33.70 33.87 33.49 33.07 34.86 34.83 34.82 35.23 35.15 34.44 34.78 34.14 34.40 34.96 34.18 30.54 28.41 27.76 27.81 27.05 28.19 30.55 29.72 28.83 24.36 23.16 23.75

GFSFLT1_sfc_wetblb_030.txt.gz
Wetbulb
50.28 54.25 56.63 56.75 57.87 59.16 59.44 57.02 55.79 54.74 53.70 52.91 50.70 48.68 47.23 46.81 45.99 45.87 46.00 47.19 47.79 47.06 46.32 44.29 44.60 44.00 44.05 43.74 42.95 43.60 42.47 42.47
49.29 50.76 51.71 52.50 54.17 56.66 57.39 54.76 54.74 54.68 52.40 49.49 47.24 46.17 45.31 44.60 44.53 45.95 47.10 46.78 45.59 44.26 43.84 43.82 43.65 42.62 42.51 42.89 42.30 41.50 41.78 41.61
49.23 49.53 49.88 51.71 53.25 54.54 54.32 53.56 53.35 50.74 49.03 47.72 47.06 45.20 44.35 43.67 43.60 43.85 43.86 44.31 44.48 44.38 43.05 42.27 41.78 40.70 40.45 40.95 40.20 39.61 40.26 40.09
48.37 50.07 50.34 51.26 50.68 48.64 48.88 48.58 48.34 48.57 48.39 48.17 46.36 45.86 45.14 42.76 41.70 41.47 42.63 43.82 43.75 43.25 42.78 41.52 40.97 40.95 39.97 39.37 38.93 37.89 37.07 38.49
48.71 48.56 46.84 46.09 45.86 46.84 47.41 48.07 47.89 48.18 47.59 46.75 45.49 44.35 43.69 42.59 41.25 40.94 41.27 42.61 42.60 42.49 42.23 41.48 40.72 40.46 39.20 39.32 40.13 38.15 37.43 35.41
46.94 46.18 46.04 46.36 46.59 46.88 46.62 47.90 48.11 47.77 47.29 46.46 45.22 43.45 42.43 41.78 41.01 40.35 40.40 40.96 41.80 41.18 41.27 41.05 40.26 40.04 39.23 38.64 37.88 37.44 37.28 36.28
46.79 47.04 47.39 46.64 46.10 47.17 48.00 48.35 47.33 47.28 46.75 46.15 44.85 42.63 41.16 40.42 40.37 39.58 39.36 39.74 39.91 39.63 39.89 40.39 39.73 39.19 38.54 38.13 37.76 36.80 35.97 35.39
45.94 46.63 47.52 48.16 46.79 46.16 46.87 46.53 45.98 45.79 44.99 44.16 43.46 42.58 41.87 41.40 40.58 39.55 38.36 37.86 38.06 38.44 37.63 39.02 39.11 39.19 38.77 38.26 37.39 36.17 35.31 33.92
46.42 47.49 45.80 45.66 45.78 44.88 45.56 45.43 45.38 44.62 43.86 43.21 43.06 42.61 41.34 40.74 39.88 38.87 38.49 37.67 38.04 38.00 37.57 37.38 38.67 38.97 38.67 39.01 36.95 36.17 35.40 34.55
44.81 44.52 44.25 44.25 43.50 43.46 44.11 44.28 44.23 43.55 43.20 42.65 41.93 41.62 40.82 40.23 39.60 38.59 38.17 38.13 39.26 38.22 37.16 36.15 37.66 38.45 39.86 39.47 38.02 35.42 34.17 34.19
42.99 42.96 43.28 43.55 42.83 42.08 43.10 43.44 42.75 42.90 41.87 40.75 40.25 38.69 38.44 38.10 38.11 38.05 37.94 37.85 37.35 37.40 37.05 37.90 38.24 36.93 36.85 37.77 36.43 35.30 33.82 33.35
41.70 41.68 42.06 41.57 41.07 40.89 40.36 40.36 40.86 40.18 39.43 38.82 38.06 37.31 37.11 36.75 36.77 37.20 37.29 37.17 37.26 36.94 37.12 36.66 35.53 35.74 36.34 33.93 33.82 32.99 31.27 29.67
40.84 41.34 41.01 40.18 40.13 39.92 39.45 39.75 39.13 37.67 38.29 37.62 36.53 36.61 36.47 35.86 35.76 35.84 36.09 36.27 36.92 36.61 36.21 35.89 36.21 37.40 35.16 32.31 31.86 31.28 28.97 27.88
39.76 40.03 40.43 40.90 38.72 38.91 39.63 37.54 36.85 36.87 36.38 35.55 35.68 35.63 35.60 34.95 34.78 35.00 35.51 35.57 35.87 35.62 35.90 37.29 37.19 34.45 32.77 33.25 30.90 29.09 27.77 27.71
38.82 38.91 40.16 38.73 38.86 38.99 36.11 36.26 36.26 35.71 35.67 35.18 35.12 35.06 35.10 34.61 35.00 35.07 35.36 36.02 35.37 35.07 37.65 37.06 35.68 33.64 33.69 30.63 28.57 27.74 27.31 27.40
39.23 38.38 38.31 39.83 38.14 35.82 35.52 34.99 35.11 35.19 34.91 34.93 35.17 35.41 35.37 34.78 34.76 34.81 35.11 34.98 35.92 36.05 35.24 34.25 31.89 30.49 29.73 28.47 28.70 28.26 27.30 27.11
38.80 38.97 40.08 39.39 35.59 33.83 34.44 34.30 34.19 34.38 33.29 34.95 35.58 35.37 35.32 34.67 34.20 34.00 34.01 34.41 35.33 34.93 33.09 30.46 27.82 29.95 32.69 32.72 30.50 27.47 26.76 26.23
39.55 39.77 38.20 34.99 33.46 33.73 33.02 33.24 33.41 32.76 34.54 35.10 34.83 35.00 34.49 33.76 33.90 33.17 32.98 32.69 30.49 30.04 28.60 27.72 26.60 28.03 31.73 30.48 30.11 26.37 24.11 23.34
38.49 35.12 34.14 33.54 32.96 32.49 32.37 32.38 31.87 33.68 33.52 33.20 33.28 33.06 32.48 32.70 32.33 35.18 31.70 32.28 33.10 28.11 27.06 26.71 26.41 27.34 28.57 28.41 28.28 24.35 22.78 22.86

GFSFLT1_sfc_wetblb_033.txt.gz
Wetbulb
54.32 57.59 59.22 60.88 61.44 61.14 59.94 59.17 57.28 55.10 54.44 53.36 51.87 50.69 50.36 51.67 52.01 51.44 51.60 51.88 51.99 51.44 50.45 49.72 49.22 48.29 47.80 47.96 47.59 47.76 47.93 45.95
54.73 56.59 58.92 59.50 59.84 59.39 59.24 56.04 55.62 55.96 54.07 51.32 50.77 50.80 50.52 50.64 51.10 51.02 51.17 51.17 50.81 50.62 49.29 48.75 48.46 47.02 46.90 47.31 46.55 45.52 44.98 45.82
53.98 55.35 57.76 59.74 58.33 56.52 57.75 59.12 56.40 56.44 54.67 54.25 53.88 51.99 50.91 50.24 49.89 49.87 50.44 50.51 49.96 49.34 48.74 48.01 47.79 46.98 46.42 46.31 45.47 43.44 44.21 45.11
53.02 55.00 56.88 57.99 57.75 58.56 58.21 57.00 56.52 55.76 54.66 53.02 51.52 50.80 49.82 49.23 49.00 49.40 49.49 49.55 49.07 48.99 48.59 48.68 48.24 47.94 46.45 46.62 45.71 43.00 41.20 43.50
52.60 52.76 52.70 52.96 53.04 54.30 55.40 54.79 54.34 53.87 53.52 53.02 52.46 52.67 51.35 50.49 49.89 49.80 49.60 49.01 48.77 48.22 47.93 47.91 47.90 47.88 46.10 45.88 45.99 44.35 43.19 40.01
51.13 50.84 51.03 51.90 52.27 53.19 53.83 53.67 52.91 53.18 53.39 53.38 52.95 51.18 50.06 49.35 49.49 48.47 48.63 48.43 47.89 47.31 47.55 47.53 47.29 46.83 46.14 45.57 45.31 44.33 44.06 41.64
50.88 51.44 51.74 51.68 52.22 52.54 52.96 53.58 52.29 52.75 52.66 52.21 51.71 50.72 49.54 49.85 49.72 49.12 48.63 48.06 47.81 47.62 46.83 46.94 46.98 46.27 45.73 45.34 45.07 44.18 43.45 42.49
50.78 50.51 50.57 51.11 51.74 52.49 52.84 53.14 51.43 51.45 51.40 51.30 51.08 50.78 50.34 49.48 49.21 48.47 47.43 47.26 47.09 47.52 46.45 46.06 45.64 45.75 45.28 45.03 44.46 43.94 43.44 41.85
50.52 50.92 51.61 51.83 51.12 51.14 52.14 51.73 50.65 50.26 50.20 50.44 50.64 49.99 49.42 48.12 47.01 46.80 46.47 46.18 46.14 46.11 45.44 44.86 44.24 44.46 44.95 44.83 43.73 43.57 43.68 42.61
50.51 51.09 51.06 50.86 50.43 50.26 50.90 50.25 49.34 48.46 49.68 49.48 47.98 47.61 47.14 46.91 46.55 46.09 45.54 45.73 44.93 45.32 45.25 44.59 44.23 44.13 44.13 43.79 42.68 41.95 42.17 41.94
49.60 49.44 48.68 48.91 48.90 48.51 49.20 49.04 47.62 48.31 47.99 47.14 46.17 45.72 45.05 44.73 44.79 44.28 44.23 44.63 44.63 44.52 44.59 44.51 44.24 43.22 42.63 41.05 39.74 39.92 39.46 40.10
47.68 47.46 48.02 47.23 46.34 46.59 47.16 45.82 46.68 45.86 44.88 44.87 44.69 43.84 43.73 43.54 43.14 43.46 43.42 43.62 43.40 42.76 42.79 42.79 42.11 40.22 40.57 40.97 40.30 38.57 36.91 37.04
46.29 46.20 45.93 45.30 45.16 44.36 43.42 44.72 43.11 43.71 44.66 43.61 42.88 42.96 42.76 42.57 42.16 42.00 42.16 41.03 41.47 41.23 41.71 41.05 40.38 39.73 39.38 38.01 36.92 37.27 36.25 34.85
44.98 44.59 44.83 44.60 43.11 44.07 43.89 42.63 42.50 42.66 42.66 42.48 42.33 42.01 41.78 41.07 40.64 40.70 40.96 40.54 40.79 41.43 41.15 40.62 38.73 36.87 36.90 37.46 36.85 34.87 33.85 33.61
44.38 44.27 43.85 42.81 43.06 43.11 41.49 41.72 42.03 41.75 41.73 41.65 41.44 41.29 40.58 40.31 40.19 39.96 39.95 40.17 39.98 39.75 40.24 39.17 37.24 37.28 36.65 35.42 34.08 33.88 34.03 33.45
43.11 43.24 43.15 43.20 43.16 40.63 40.60 40.88 41.02 41.40 40.12 40.32 40.69 40.61 40.51 39.82 39.22 39.31 39.39 38.64 38.70 38.67 37.55 37.23 35.62 34.90 33.99 34.56 34.11 33.18 31.81 30.74
42.83 42.18 42.71 42.78 40.78 40.32 39.48 39.59 39.52 39.80 38.61 39.29 40.14 39.58 39.41 38.79 38.41 38.35 38.43 37.87 37.48 37.64 36.59 34.54 34.02 33.76 32.44 31.35 31.51 31.49 29.89 28.45
42.09 41.96 42.22 41.42 39.76 39.06 39.04 38.96 38.64 37.69 38.15 39.26 38.56 38.19 37.68 37.56 37.61 37.55 37.30 37.38 36.36 36.19 34.87 33.67 32.71 33.19 29.85 29.45 29.38 30.06 28.22 27.56
41.85 40.79 39.16 39.16 39.28 38.66 37.96 37.42 36.89 37.11 38.19 37.47 37.40 37.19 36.65 36.49 36.15 35.92 36.41 37.58 37.00 35.77 33.03 32.35 32.07 30.18 28.20 27.95 27.52 28.66 27.66 26.92

GFSFLT1_sfc_wetblb_036.txt.gz
Wetbulb
59.51 61.70 62.36 63.70 65.25 64.71 63.48 63.97 62.32 58.53 56.63 57.87 54.18 53.91 53.69 54.17 54.15 54.06 54.93 55.50 55.98 55.79 53.98 53.04 52.69 51.48 50.67 50.28 49.74 49.88 49.16 49.00
60.59 62.33 63.17 64.08 63.89 63.02 63.55 61.84 57.93 58.23 56.87 55.77 54.46 52.50 53.19 55.00 55.82 55.56 55.91 55.77 54.34 53.54 52.80 52.58 51.69 50.52 49.70 49.69 48.61 48.20 47.56 48.94
59.93 62.08 62.48 62.49 62.82 63.84 62.58 62.13 61.36 60.47 60.30 58.84 58.61 57.37 56.67 56.39 55.88 55.57 55.57 54.12 53.33 52.13 51.82 51.47 51.19 49.80 49.67 49.55 48.97 47.38 47.09 47.73
59.70 61.31 62.78 61.97 61.73 62.67 62.90 63.72 63.12 61.79 59.86 58.58 57.74 56.64 55.63 54.94 54.71 54.95 54.65 53.88 53.39 52.88 52.12 51.31 50.90 50.63 49.02 49.27 48.83 47.41 44.90 46.37
60.76 60.68 61.31 62.60 62.92 63.85 63.63 62.65 61.34 59.84 59.22 57.86 56.84 56.85 55.17 56.65 55.56 55.61 54.49 53.26 53.20 51.69 50.96 51.28 51.03 50.62 49.80 49.26 48.08 47.80 46.18 43.65
57.94 58.20 59.44 60.62 61.42 61.44 60.97 59.98 58.99 58.45 57.89 58.36 57.94 56.42 56.45 55.60 55.32 53.21 53.88 54.18 52.58 51.68 51.36 51.20 50.87 50.30 50.10 49.33 48.12 47.11 46.40 43.37
56.51 56.65 57.09 57.02 58.21 58.27 57.99 57.50 57.19 57.71 57.78 57.48 56.99 55.53 54.35 53.67 53.25 51.99 51.29 51.53 51.63 51.48 51.09 51.12 50.84 50.33 49.74 49.10 48.26 46.07 45.59 44.80
54.88 54.80 55.19 55.77 56.42 57.21 57.86 57.33 56.40 57.22 57.01 56.53 55.67 53.85 52.55 51.37 50.96 50.65 50.27 50.05 50.29 50.39 50.68 49.82 49.52 49.66 49.27 48.59 47.48 46.18 45.58 44.38
55.01 55.31 55.82 56.04 56.48 57.37 57.05 57.08 55.57 55.68 55.17 53.59 53.23 52.20 53.42 52.74 51.48 50.95 50.10 49.33 49.04 48.95 47.93 47.59 47.26 47.20 47.56 47.67 46.90 45.95 45.32 44.28
55.08 55.62 56.18 56.33 56.27 56.30 56.63 55.61 54.37 52.65 51.51 51.32 50.80 52.80 51.37 50.60 49.64 49.36 48.39 47.50 46.32 46.45 46.67 45.98 46.00 46.13 46.71 46.74 45.68 45.06 44.62 43.52
55.11 55.49 55.65 56.09 56.09 55.19 55.44 54.28 52.67 49.79 49.84 51.13 51.62 50.85 49.79 48.67 48.75 46.44 45.90 46.06 45.85 45.45 45.00 44.68 44.85 45.26 45.83 45.81 44.62 43.25 43.35 42.13
54.91 55.17 55.13 54.94 54.08 53.64 52.87 50.98 48.83 48.44 48.40 49.08 49.25 48.18 47.73 47.78 47.17 45.69 45.38 45.53 44.94 43.94 43.72 43.71 43.71 43.93 43.97 42.35 41.50 41.70 40.97 39.52
54.55 54.01 53.39 52.22 51.50 50.97 50.06 48.32 46.99 46.80 47.91 47.64 46.81 46.95 46.66 46.54 45.30 44.62 45.13 44.22 43.95 43.67 43.63 43.29 43.24 41.30 41.71 41.30 40.29 39.68 38.22 37.83
52.72 52.33 51.58 50.70 49.71 48.80 46.55 45.45 45.67 47.36 46.82 46.14 46.00 45.71 45.53 44.77 43.96 44.42 44.10 43.17 42.95 43.24 42.63 40.46 40.01 40.64 40.30 39.39 38.59 38.74 38.50 38.03
51.04 50.71 50.64 49.28 48.22 45.68 46.02 46.33 46.57 46.38 45.30 45.06 45.11 45.00 44.89 44.56 43.67 43.58 42.79 42.71 42.19 41.90 41.68 40.70 39.77 39.77 39.00 38.72 37.99 38.09 37.95 37.30
50.06 50.01 49.63 48.31 47.31 47.42 47.04 46.54 46.18 45.24 44.03 43.77 43.84 44.72 44.11 43.41 42.90 42.31 42.05 41.85 41.72 41.81 40.21 39.68 39.70 39.01 38.23 37.77 37.57 37.05 36.45 35.18
49.26 49.62 49.01 47.89 47.40 46.75 45.76 45.17 44.08 44.10 43.29 42.65 43.23 42.94 42.13 42.11 41.66 41.08 41.19 41.38 41.33 40.82 40.30 39.47 38.19 37.94 31.58 30.64 31.40 34.93 34.74 33.27
49.01 48.70 47.89 47.33 47.02 45.48 44.30 43.59 43.60 42.83 42.30 42.03 42.25 41.48 41.03 40.82 40.55 40.32 40.23 40.26 40.70 39.16 38.69 39.08 37.68 37.56 29.65 29.11 28.82 33.16 32.96 32.43
49.37 48.67 47.22 47.26 44.95 44.22 43.83 42.89 42.20 41.79 41.01 40.86 40.77 40.52 39.86 40.07 39.79 39.48 39.71 39.78 39.51 37.98 37.35 37.90 37.27 36.04 28.31 27.74 28.03 32.94 32.69 32.14

GFSFLT1_sfc_wetblb_039.txt.gz
Wetbulb
60.39 62.00 62.41 62.85 65.80 65.16 64.80 64.15 63.62 62.08 60.85 60.11 56.46 55.34 55.66 57.15 55.87 55.15 56.21 56.83 57.06 56.90 54.99 54.63 54.02 52.93 51.95 51.20 50.47 50.08 49.45 48.82
61.94 63.29 63.75 63.77 66.14 64.40 63.53 62.69 62.66 61.75 59.11 58.59 55.74 55.10 54.51 55.33 55.79 57.10 57.54 57.52 55.76 55.04 54.57 53.58 52.92 51.57 50.93 51.34 50.30 49.43 48.59 49.27
61.33 63.02 63.87 64.32 64.79 64.04 63.62 63.05 62.26 63.58 60.32 61.22 60.62 58.31 57.53 58.26 57.42 57.85 57.99 55.95 55.09 54.06 53.45 52.63 52.33 51.09 51.07 50.78 50.09 48.30 48.18 48.42
60.89 62.22 63.26 63.84 63.13 62.93 64.17 63.44 63.92 63.33 63.15 61.27 60.19 59.61 58.43 57.07 56.75 56.55 56.27 55.07 54.60 53.85 52.87 52.32 51.86 51.42 49.96 50.34 49.84 48.36 45.43 46.88
61.59 62.45 62.15 63.25 63.57 65.18 64.27 63.71 63.32 62.34 60.99 59.47 58.25 56.69 55.72 57.08 57.11 57.33 56.32 55.17 54.11 53.02 52.22 52.18 52.00 51.37 50.48 50.01 49.71 48.83 47.51 44.41
61.62 62.64 63.39 63.85 64.02 63.53 63.50 63.06 61.53 60.43 60.00 59.41 58.46 57.80 58.26 58.11 57.68 55.77 55.13 54.70 53.89 52.82 52.59 52.11 51.51 50.78 50.53 50.75 50.28 48.55 47.77 45.58
60.87 61.86 61.70 61.25 62.71 62.64 61.77 60.71 59.60 59.74 59.20 59.48 58.67 57.14 55.54 54.41 54.70 53.31 52.64 52.14 51.92 52.26 51.87 51.96 51.30 49.98 49.90 49.73 49.58 47.89 47.08 46.36
58.68 58.36 58.49 59.14 59.68 60.02 59.45 58.96 57.86 58.66 58.92 58.47 57.47 56.00 54.42 52.17 52.79 51.60 50.51 50.42 50.41 50.74 50.68 49.27 48.23 47.84 47.51 47.79 48.09 48.05 46.92 45.55
57.37 57.04 57.34 57.69 58.16 58.68 58.57 58.18 57.13 58.20 57.66 56.55 55.49 53.99 52.57 52.46 51.76 51.05 50.10 49.38 48.97 48.98 47.81 47.48 46.84 46.49 46.65 47.05 47.01 47.35 46.71 45.90
56.50 56.87 57.51 57.71 58.11 58.54 58.54 57.59 56.67 56.55 55.27 54.35 53.17 52.39 51.92 51.16 50.49 50.41 49.28 48.46 47.29 46.95 46.86 46.00 45.61 45.52 45.47 45.72 45.86 45.97 45.79 45.04
56.63 57.11 57.58 58.14 58.52 58.80 58.91 58.20 55.89 54.56 53.67 52.71 51.53 51.53 50.98 49.99 49.62 48.06 47.29 47.08 46.57 46.00 45.21 44.93 45.05 45.12 45.08 45.06 44.53 44.35 43.66 43.70
56.74 57.27 57.94 58.25 58.37 57.78 57.26 55.98 53.83 52.95 51.81 50.58 50.79 49.98 49.22 48.47 48.27 47.72 46.31 46.23 45.56 44.48 44.27 44.48 44.21 44.07 44.25 43.50 43.15 42.92 41.22 41.03
57.37 57.50 57.64 57.28 56.57 56.26 55.01 53.25 52.04 51.19 49.65 48.71 49.54 49.15 47.96 47.22 46.86 45.85 46.06 45.23 44.90 44.05 44.17 43.70 43.45 42.50 42.49 40.73 39.96 39.26 39.18 37.98
57.10 57.14 56.41 56.07 55.12 54.51 52.88 51.96 50.30 49.03 47.53 49.03 48.41 47.56 47.24 46.52 45.60 45.42 45.38 44.60 43.77 43.80 43.56 42.75 41.88 40.63 39.80 40.18 40.16 39.38 38.41 38.22
56.49 56.10 55.67 55.16 54.25 52.93 51.70 49.85 48.94 47.90 48.42 47.92 46.87 46.70 46.46 45.66 45.28 45.13 44.58 43.71 43.05 42.97 43.03 42.37 41.33 40.49 40.03 39.72 39.11 38.17 37.82 37.79
54.70 54.68 54.59 54.30 52.65 51.63 49.98 49.75 48.87 48.44 47.28 46.17 45.79 46.17 45.72 45.07 44.40 44.29 43.59 43.21 43.01 43.12 42.27 41.03 40.55 40.41 39.28 37.92 37.85 37.31 36.38 36.11
53.66 53.86 53.82 52.71 51.15 50.07 50.23 49.04 48.01 47.61 45.82 45.05 44.95 44.30 44.25 43.73 43.51 42.99 42.53 42.29 42.44 42.53 41.40 40.04 38.92 39.05 31.34 30.90 31.26 34.99 35.26 34.89
53.24 53.35 53.32 52.35 51.24 50.44 48.62 47.28 46.55 44.97 44.76 43.96 43.11 43.46 42.55 42.67 42.24 41.84 41.32 41.37 41.70 40.98 39.54 38.63 38.63 38.70 31.24 30.04 29.14 32.97 34.20 34.41
53.48 53.49 53.13 52.49 51.60 49.29 46.78 46.73 45.29 44.31 43.22 42.23 42.34 42.28 41.76 41.63 41.23 40.99 41.05 41.25 40.28 40.09 39.22 38.08 37.65 37.34 30.80 29.22 28.42 32.21 34.39 34.30

GFSFLT1_sfc_wetblb_042.txt.gz
Wetbulb
58.99 60.02 62.02 63.91 64.54 63.92 63.27 61.72 60.97 60.21 60.10 59.34 58.80 57.70 57.04 56.54 54.94 54.60 55.31 55.72 56.14 54.99 52.90 52.19 51.46 49.73 48.49 47.93 47.09 46.92 46.09 45.32
59.48 60.75 61.56 63.38 64.11 62.81 62.36 61.31 60.98 60.04 58.93 57.05 56.42 55.29 54.53 54.81 54.29 55.03 55.84 55.92 54.68 52.49 52.22 50.99 50.04 48.83 48.08 47.99 46.65 45.51 45.00 45.35
59.80 61.15 62.07 63.37 63.52 63.57 62.12 61.51 61.13 60.79 60.20 58.93 58.20 56.73 54.86 54.90 55.20 55.89 56.65 55.23 53.42 52.93 50.95 50.19 49.61 48.15 47.84 47.89 46.74 45.02 44.32 44.74
59.34 60.71 61.83 63.32 63.38 62.32 62.40 61.61 61.21 61.70 60.00 60.85 59.48 57.24 56.02 55.48 54.86 54.89 54.67 54.37 53.48 52.09 51.01 49.77 48.80 48.37 46.74 46.79 46.10 45.31 42.15 43.07
60.01 60.97 61.56 63.13 63.21 62.72 63.19 62.67 62.21 62.60 61.76 58.68 56.81 55.09 53.50 54.46 54.49 55.09 53.48 53.66 53.03 52.13 50.57 49.52 48.90 48.50 47.20 46.81 46.86 45.39 43.98 41.05
59.61 61.00 61.86 61.94 62.17 62.78 63.35 62.98 61.55 60.84 59.49 58.55 56.95 56.29 55.18 55.22 55.00 53.99 53.89 53.51 52.90 51.65 50.86 49.73 48.38 47.91 47.03 46.73 45.98 45.01 44.35 42.80
60.74 61.49 62.27 61.37 62.82 63.02 62.51 61.34 59.83 59.01 58.78 58.47 57.59 56.44 54.77 53.59 53.36 52.51 52.07 51.29 49.68 50.32 50.32 48.42 47.07 46.22 44.77 43.83 43.78 42.87 42.11 42.64
60.27 60.41 60.77 60.77 60.64 61.26 60.90 59.76 57.63 58.32 58.02 57.89 57.36 55.56 53.79 51.29 51.27 50.46 48.67 48.02 47.85 47.40 46.70 45.23 44.66 44.50 44.17 43.49 42.64 42.24 42.17 41.80
58.92 59.65 59.12 59.26 59.70 59.31 58.88 58.24 56.91 57.38 57.76 57.06 56.02 53.97 51.79 51.18 51.60 49.47 47.62 46.69 46.13 46.23 45.13 44.47 44.12 43.66 42.99 42.49 41.98 41.76 41.45 41.57
57.45 57.94 57.76 57.91 57.76 57.84 57.62 57.02 56.68 56.81 56.20 54.43 52.69 51.87 51.07 49.44 48.54 48.35 46.68 45.89 45.75 44.66 43.98 43.00 42.92 42.83 42.73 42.16 41.06 40.99 40.94 40.54
56.84 56.27 56.58 56.92 57.58 57.85 58.39 57.75 55.88 55.71 53.99 52.62 51.65 50.98 49.86 48.85 48.47 47.19 45.41 44.65 44.24 43.49 42.62 42.18 42.33 42.34 42.22 41.31 40.40 40.53 39.54 39.18
56.29 55.90 56.84 57.21 57.65 57.82 57.70 56.95 54.81 53.34 52.37 51.49 50.23 48.76 48.28 48.00 47.02 45.54 44.43 43.85 43.46 42.57 42.26 41.87 41.77 41.32 40.46 39.48 38.94 38.71 38.07 37.31
56.55 56.46 56.70 56.78 56.92 56.83 56.28 55.73 53.58 52.30 51.03 49.44 48.94 48.52 47.83 47.27 46.09 44.92 43.90 42.91 43.28 42.20 41.99 41.67 41.54 39.99 39.33 38.55 38.45 37.86 36.34 35.70
56.41 56.40 56.10 56.30 56.25 55.55 55.32 54.19 51.93 50.68 48.99 48.06 47.52 47.44 46.06 45.99 44.96 43.89 43.63 42.78 42.04 41.57 41.56 41.10 40.52 39.73 37.97 38.21 37.58 37.25 36.38 35.63
55.95 55.93 55.99 55.81 55.90 54.91 53.75 51.69 50.62 49.01 48.44 47.55 46.47 46.74 46.48 44.85 43.82 43.25 43.07 42.69 41.62 41.32 41.55 41.45 40.48 39.06 39.15 39.16 38.68 36.03 34.41 34.12
55.01 55.78 55.45 55.52 54.77 54.00 52.15 50.82 49.02 49.29 47.74 46.53 45.87 46.29 45.48 44.70 43.56 42.83 43.09 42.20 41.49 41.67 41.18 40.69 39.22 39.00 38.75 35.78 34.60 33.00 32.14 31.90
54.69 55.50 55.67 54.86 54.09 52.01 51.44 49.24 48.80 48.19 46.44 45.52 45.85 44.66 44.43 42.93 42.21 42.54 42.16 41.51 41.00 40.87 40.19 39.39 37.81 38.95 32.56 32.32 31.97 29.79 31.37 31.15
53.91 54.28 54.30 54.33 52.96 51.58 49.46 49.35 48.66 46.17 44.82 44.76 44.03 43.79 42.94 42.14 42.15 41.24 40.29 39.84 40.12 39.21 38.79 38.52 37.19 36.89 32.84 31.60 30.02 29.09 29.12 29.60
53.64 54.00 54.07 53.96 52.44 51.06 49.70 47.70 45.58 44.29 44.03 43.06 43.10 42.56 41.43 41.31 40.83 40.25 40.06 39.84 38.76 37.79 37.40 37.47 36.38 37.05 33.06 31.63 29.78 27.30 28.93 29.61

GFSFLT1_sfc_wetblb_045.txt.gz
Wetbulb
57.98 58.56 59.76 60.06 61.22 60.54 59.54 58.95 57.86 56.84 56.92 56.45 55.63 54.61 53.98 53.97 51.76 51.39 52.33 53.02 53.02 50.37 49.54 48.13 47.83 46.62 45.29 44.50 44.31 44.22 43.36 42.65
57.40 57.85 60.12 60.64 60.89 59.66 58.93 57.57 57.71 57.43 55.81 54.16 52.95 51.80 51.70 50.68 50.44 51.95 52.69 52.69 50.93 49.89 48.97 47.78 46.67 45.69 44.35 44.83 43.79 42.63 42.29 42.08
54.92 55.08 60.34 60.72 60.10 59.60 58.75 57.90 57.75 57.93 56.41 54.67 53.93 51.11 50.79 50.35 50.79 51.33 52.50 51.98 50.09 49.17 47.47 46.24 45.86 45.04 44.57 44.06 42.99 41.93 41.65 41.69
55.41 56.77 59.91 59.84 59.67 59.63 58.76 58.74 58.08 58.60 58.36 55.63 54.49 52.01 50.69 50.19 49.86 50.54 50.96 50.71 50.32 49.29 47.80 46.29 45.75 45.29 43.88 43.15 42.98 42.51 40.14 40.88
56.38 56.48 58.48 59.80 59.50 60.17 59.76 59.63 59.04 59.22 58.87 56.25 53.51 50.77 49.69 50.39 50.75 50.73 49.61 50.45 49.85 49.07 47.64 46.37 45.82 45.21 43.92 43.57 44.90 41.99 41.35 39.23
56.29 57.03 58.72 60.57 60.11 60.03 60.08 59.85 59.21 59.41 59.27 56.29 53.84 50.71 50.59 51.12 51.42 50.62 49.89 50.87 50.54 48.89 47.25 45.91 44.72 44.08 42.45 41.37 40.35 39.77 39.74 39.09
57.11 58.63 59.96 60.29 60.54 60.20 60.12 59.68 59.28 58.12 56.23 54.23 52.61 51.79 51.58 51.68 51.76 51.17 50.89 50.15 47.96 46.03 45.21 42.89 42.30 41.53 40.63 39.95 39.65 39.33 38.89 38.71
56.40 58.25 58.20 58.93 59.17 59.39 59.47 59.40 56.45 55.72 53.71 52.97 52.49 50.16 49.30 48.89 49.20 49.00 46.90 44.67 43.36 43.13 42.08 41.24 40.59 40.37 40.29 39.78 38.91 38.35 38.32 37.84
57.34 58.26 57.78 58.51 58.89 58.14 58.57 57.11 56.47 55.04 53.37 52.85 50.95 48.59 47.14 46.90 47.62 46.25 45.35 44.84 44.00 42.11 41.54 40.58 40.18 40.40 39.83 39.28 38.88 38.17 38.50 37.60
54.74 55.80 56.60 56.72 55.10 54.52 55.06 54.79 53.60 53.12 52.95 50.07 47.72 47.39 47.08 45.71 45.81 46.29 45.23 44.35 44.13 42.31 41.66 39.38 39.53 39.77 39.72 39.42 38.40 37.71 37.22 37.17
53.30 53.74 53.84 54.29 54.02 53.75 53.47 52.63 52.46 52.19 49.45 48.65 47.36 47.03 45.66 46.33 44.87 45.40 44.32 43.33 42.81 41.65 39.49 38.98 39.01 39.39 39.04 37.77 36.97 37.24 36.34 35.80
51.70 51.61 53.40 53.84 53.28 53.37 53.22 52.04 52.32 50.23 48.78 47.23 46.41 44.91 46.73 47.12 46.03 44.62 43.28 42.21 41.98 40.36 39.57 39.35 39.26 38.71 37.91 36.86 36.11 36.33 35.47 34.86
51.81 51.29 52.47 52.64 52.98 53.69 52.56 50.99 51.42 49.98 48.81 47.00 46.66 47.25 47.78 46.02 44.86 42.57 42.90 41.64 40.95 39.40 39.98 39.63 39.72 38.15 36.75 36.41 36.41 36.10 35.42 34.49
52.01 51.46 52.34 52.67 53.25 54.67 54.00 51.52 50.12 48.24 47.25 47.21 48.14 47.59 46.65 44.64 44.27 43.26 40.93 40.14 39.41 39.46 40.10 39.09 39.01 37.62 36.36 36.43 36.07 35.78 34.96 33.86
52.06 52.04 52.91 54.12 54.48 54.48 53.66 49.83 48.38 47.25 46.94 47.07 46.10 46.15 45.08 43.93 42.38 41.54 40.34 39.71 38.99 40.01 39.50 39.57 39.58 37.90 37.68 38.21 36.54 33.67 32.39 31.90
50.93 51.18 50.92 51.51 51.78 51.54 50.78 48.57 47.39 47.33 46.71 46.19 45.53 45.67 43.76 42.50 41.82 41.15 40.93 39.77 40.61 39.99 39.57 39.39 38.30 37.75 37.60 34.41 33.79 31.82 30.77 29.84
50.56 51.61 52.10 51.75 51.34 49.12 48.82 47.02 46.76 47.39 46.23 44.73 43.82 43.18 42.28 41.93 40.93 40.72 40.34 39.96 39.40 39.11 38.62 37.97 37.08 37.53 34.33 34.09 32.19 29.56 29.70 29.08
50.01 50.30 51.14 50.76 49.97 49.13 46.61 46.69 47.29 45.64 43.45 42.95 42.62 42.69 41.75 40.68 40.32 39.70 38.66 37.80 37.56 37.51 36.88 37.15 36.39 34.93 34.05 33.88 32.04 28.42 27.83 27.00
48.58 49.26 49.21 47.80 48.06 47.12 46.77 45.16 43.55 42.79 41.41 41.01 40.22 40.37 40.16 39.67 38.89 38.63 37.66 37.93 37.43 36.34 35.80 35.89 35.59 36.32 34.13 33.56 31.19 27.41 27.64 27.31

GFSFLT1_sfc_wetblb_048.txt.gz
Wetbulb
59.21 57.77 58.64 58.73 58.39 60.57 59.31 58.49 57.92 56.34 55.96 55.09 53.87 53.37 53.46 52.85 51.25 50.98 52.16 52.39 51.27 48.84 47.70 46.35 45.92 44.61 43.75 43.23 42.71 42.47 41.90 41.22
57.23 57.31 57.71 57.72 59.45 59.35 58.60 57.17 56.30 56.10 54.78 52.90 52.18 51.59 51.94 50.76 50.53 51.31 51.78 51.62 50.53 48.37 47.24 45.63 45.14 43.80 43.58 43.84 42.50 41.52 40.95 40.69
55.88 56.45 56.70 58.64 58.46 58.60 58.01 57.23 56.38 55.96 55.52 53.78 53.36 51.40 50.79 49.69 49.94 50.51 51.43 49.29 48.50 47.91 46.16 44.66 44.63 43.94 43.31 42.64 41.58 40.67 40.73 40.39
54.17 56.33 57.77 58.36 57.82 57.81 57.41 57.02 56.80 56.63 55.73 54.12 51.40 50.27 49.29 48.11 48.16 48.73 50.52 49.45 49.06 47.76 46.41 45.02 44.61 44.10 42.76 41.74 41.34 40.65 38.89 39.56
54.71 56.89 57.74 58.11 58.04 58.39 57.64 56.95 57.07 57.26 56.39 53.97 51.17 49.27 48.49 48.84 48.62 49.20 49.17 49.00 48.48 47.73 46.62 44.90 44.36 43.70 42.66 42.37 41.71 39.23 38.73 36.11
54.65 57.45 58.26 58.87 58.78 58.11 58.06 57.55 57.14 57.58 57.30 55.19 52.43 49.39 49.29 49.23 49.20 49.03 47.89 47.82 47.69 46.69 45.61 44.14 42.76 41.83 40.88 39.77 38.39 37.61 37.46 36.84
54.15 58.17 58.93 58.71 59.04 58.46 58.31 58.00 57.97 58.22 57.68 55.48 53.15 50.41 49.45 49.06 48.82 47.49 47.07 46.65 45.35 45.13 43.27 41.87 40.84 40.45 40.02 39.01 37.35 36.87 36.63 36.31
53.50 57.13 58.20 58.21 58.22 58.43 58.45 58.21 57.94 58.01 56.88 55.15 52.91 50.92 49.91 49.96 49.71 48.37 44.99 43.75 43.93 43.28 42.50 41.10 41.04 40.49 38.88 38.22 36.94 36.61 36.54 36.06
54.84 57.32 58.34 58.36 58.63 58.61 58.80 58.55 57.69 56.10 54.52 52.37 50.53 49.32 48.86 48.22 47.85 47.20 45.57 44.31 43.27 42.81 42.38 42.03 40.55 39.88 38.45 38.41 37.54 37.72 36.14 35.92
55.37 56.63 57.48 58.24 58.47 58.52 58.54 58.56 56.73 54.30 53.31 51.47 47.97 46.70 46.70 45.48 45.82 45.90 45.03 43.95 43.16 41.36 39.91 40.44 39.74 38.40 39.15 37.49 36.40 35.70 35.27 35.13
54.86 55.62 55.71 57.26 56.71 55.28 53.59 54.93 53.63 53.36 51.29 49.92 48.37 48.48 47.71 46.72 46.11 44.98 43.97 43.42 42.16 41.53 40.67 39.95 38.39 38.32 38.74 37.08 36.16 35.67 34.86 34.12
53.55 53.84 54.76 55.06 54.46 52.22 51.31 52.05 52.94 51.02 49.01 48.49 47.36 46.35 47.66 47.79 45.91 44.63 42.78 43.00 42.71 41.09 39.61 38.71 38.31 37.95 37.89 36.78 35.35 35.23 34.60 34.10
52.98 53.44 53.63 53.13 53.30 52.57 51.60 50.43 49.66 48.37 47.29 46.49 46.26 47.07 48.00 46.25 44.71 44.05 44.03 42.75 41.69 40.37 39.87 38.84 39.16 37.93 36.79 35.54 35.67 35.31 34.59 33.74
51.48 52.43 53.08 53.31 53.37 53.15 51.08 50.37 49.47 48.18 47.29 46.75 47.31 47.78 46.53 45.54 43.84 43.48 43.24 40.82 39.57 38.53 38.90 38.48 38.51 37.73 36.37 35.93 35.77 35.33 34.49 33.07
50.77 50.88 52.54 53.24 53.14 53.49 52.24 50.43 49.34 48.01 46.94 46.78 47.11 47.09 45.73 43.72 43.33 40.30 39.49 38.84 38.00 37.52 38.51 38.95 38.65 37.90 37.39 37.79 37.29 35.47 32.72 31.96
50.01 49.33 49.39 49.86 51.11 50.62 49.23 47.96 47.33 47.40 47.00 46.65 46.65 46.39 43.72 42.63 41.06 39.81 39.05 39.35 38.33 38.16 38.97 38.54 38.87 38.47 38.01 36.57 34.57 32.42 31.23 30.60
48.66 49.78 50.26 50.71 50.60 48.56 47.77 46.76 46.72 47.12 46.51 45.52 44.78 42.68 42.25 41.42 40.34 39.09 39.73 38.97 38.23 38.80 38.43 38.12 37.19 37.49 35.96 35.76 33.38 30.60 30.58 29.34
49.22 49.49 50.18 50.22 49.44 48.07 46.19 45.91 46.29 43.25 43.12 42.46 42.60 42.03 40.77 40.22 39.61 38.94 37.86 37.75 37.41 37.36 36.50 36.28 36.15 36.24 35.41 35.37 34.35 29.52 28.46 27.82
46.78 47.44 46.99 45.41 45.20 44.42 43.61 42.90 41.71 41.16 39.47 39.55 40.42 39.73 38.76 38.94 38.69 38.22 37.69 37.77 36.74 36.11 35.41 35.44 34.96 36.01 35.14 35.21 33.44 27.84 26.94 27.19

GFSFLT1_sfc_wetblb_051.txt.gz
Wetbulb
58.35 58.66 59.37 59.72 56.76 59.60 59.42 58.24 57.28 56.36 55.41 54.57 54.07 53.97 53.45 52.57 51.74 51.72 51.93 50.87 49.43 47.64 46.67 45.75 44.92 43.57 42.95 42.78 41.98 41.37 40.57 40.37
59.07 59.24 59.00 56.76 56.51 58.12 57.89 56.78 55.80 56.28 54.84 53.13 51.52 51.75 51.36 50.24 50.03 50.85 51.30 50.09 49.04 46.78 45.35 44.64 43.63 43.12 42.92 42.42 41.37 40.50 40.02 39.58
57.79 56.35 56.54 56.02 57.23 58.12 57.37 57.21 55.92 56.22 55.93 52.67 52.68 51.45 51.25 49.77 49.64 50.35 50.83 49.98 48.37 47.01 45.20 43.95 43.38 43.48 42.48 41.55 40.94 39.88 39.65 39.26
56.31 54.73 55.38 55.33 56.97 57.49 57.60 57.26 56.51 55.94 55.17 53.09 50.47 49.52 48.74 48.12 47.73 48.49 49.67 48.26 48.33 47.21 45.36 44.16 43.12 42.99 41.77 41.09 40.62 39.83 37.33 38.42
55.02 54.51 54.30 55.88 56.85 58.12 57.89 57.46 56.59 56.16 55.20 52.99 50.57 49.30 47.97 48.06 47.90 48.14 49.24 48.37 47.41 46.45 45.11 43.94 43.37 42.91 41.95 40.64 40.17 38.27 38.70 35.19
53.89 54.46 55.00 56.57 57.20 57.11 57.05 57.15 56.59 56.56 55.45 54.06 51.59 49.30 48.70 48.18 48.05 48.11 48.04 46.64 46.12 45.64 44.75 43.77 42.27 41.31 39.10 38.50 38.28 37.24 37.05 35.26
53.80 55.37 55.98 56.80 57.11 57.04 56.34 56.50 56.61 57.00 56.01 54.91 52.06 49.85 48.46 47.80 47.25 47.04 45.98 45.00 44.30 43.74 43.05 42.75 42.46 41.32 38.70 37.57 36.81 36.07 35.66 34.97
52.01 54.36 56.21 56.98 57.25 57.20 57.57 56.65 56.27 56.69 56.50 55.32 53.31 50.38 49.24 48.34 48.00 47.63 44.28 42.31 41.20 41.70 42.29 42.38 41.77 40.82 39.99 38.41 37.51 36.34 36.31 35.24
52.85 55.97 56.77 57.20 57.48 57.92 58.02 57.21 56.92 56.88 56.74 55.60 54.02 51.11 49.89 49.27 48.52 46.77 44.01 42.97 42.70 41.96 42.84 42.22 41.26 40.61 40.42 39.55 37.34 36.06 34.84 35.12
53.10 56.15 57.14 57.21 57.43 58.18 58.16 57.59 57.58 57.25 56.81 55.82 51.15 49.67 48.20 46.73 45.86 45.74 44.21 43.42 43.38 42.86 41.80 41.08 40.88 41.17 39.89 36.66 35.32 34.95 34.63 34.62
52.20 55.92 57.08 57.67 57.96 58.39 57.85 58.10 57.78 55.95 53.39 50.62 48.42 47.20 47.09 46.62 46.62 44.91 43.42 43.47 41.72 41.97 41.40 41.37 40.09 39.72 38.42 36.17 34.81 34.94 34.63 34.11
53.61 54.81 56.53 57.58 57.71 57.53 57.32 57.13 55.13 50.69 49.68 47.55 46.76 46.76 46.58 46.79 44.52 43.72 42.50 42.61 42.83 43.07 41.28 39.79 39.33 37.96 37.01 35.26 34.85 34.98 34.91 34.48
53.95 54.69 55.10 55.56 55.82 55.62 55.88 54.81 53.15 50.66 49.68 48.31 46.84 47.07 45.55 44.22 43.41 42.93 43.95 44.56 43.63 41.52 40.83 39.34 39.20 37.53 36.83 36.22 35.73 34.84 33.87 33.39
52.20 52.70 53.62 54.22 54.80 54.37 52.90 50.92 49.64 48.89 47.91 46.76 45.58 45.61 45.03 43.61 43.67 44.76 44.47 41.59 41.31 40.16 39.50 38.37 37.18 37.39 36.90 35.87 34.44 34.69 33.82 33.81
49.47 51.03 52.30 53.25 53.21 51.76 50.66 50.07 49.50 47.73 46.83 46.10 45.75 46.34 45.59 45.26 45.12 43.05 40.40 39.01 38.88 38.35 38.02 38.23 38.32 38.14 36.87 36.42 35.93 35.15 34.37 33.23
48.95 48.32 49.66 50.57 50.48 50.76 48.98 48.01 47.55 47.33 47.07 47.22 46.65 46.74 45.21 43.35 41.68 38.61 38.82 39.54 39.21 39.06 38.72 38.56 37.66 37.50 37.30 35.50 35.20 33.01 31.50 30.43
48.55 48.71 49.04 49.45 50.07 48.30 47.19 46.20 47.00 48.14 47.15 46.98 44.35 42.36 41.62 41.34 41.11 40.34 39.49 39.04 38.87 38.62 38.22 37.66 36.18 36.72 36.40 36.82 34.51 30.91 30.60 29.09
47.67 47.31 48.09 49.03 47.49 46.39 45.29 45.99 46.93 44.83 43.12 42.67 42.49 41.93 40.44 39.55 38.97 38.14 38.18 38.17 38.55 37.31 36.43 36.56 35.57 34.93 36.26 36.85 35.62 29.80 28.69 27.89
42.25 44.67 43.98 43.88 43.50 43.36 42.38 42.01 40.87 40.85 40.74 39.92 39.20 38.74 38.47 38.85 38.87 38.88 39.44 39.00 36.29 35.30 34.81 34.28 33.58 34.16 35.91 36.12 34.90 29.72 27.29 27.02

GFSFLT1_sfc_wetblb_054.txt.gz
Wetbulb
56.75 56.53 56.72 58.96 57.17 57.35 58.00 57.51 56.29 55.13 54.52 54.18 54.22 54.12 53.88 53.87 53.13 52.14 51.39 50.31 48.94 47.88 46.71 45.10 44.81 43.10 42.50 42.35 41.69 41.17 40.72 40.17
57.20 56.99 57.15 57.97 55.52 57.82 57.79 56.21 55.29 55.77 55.61 54.06 52.29 52.01 51.78 51.42 52.66 52.55 50.97 48.88 47.86 47.23 45.42 44.37 43.32 42.62 42.35 41.96 40.88 40.15 39.85 39.77
57.44 57.16 56.79 55.92 55.68 57.98 57.27 57.01 55.81 56.17 56.37 52.36 52.78 51.55 51.63 51.28 52.18 50.65 50.30 48.72 47.37 46.17 44.80 43.15 42.66 42.70 41.92 41.58 40.94 40.06 39.71 39.23
56.89 56.84 56.06 55.97 55.35 57.19 57.40 57.09 55.98 56.45 55.28 52.66 50.26 50.90 50.30 49.85 48.18 48.44 49.29 48.75 47.57 46.22 44.53 43.14 42.79 42.49 41.10 40.83 40.46 39.56 37.05 37.65
56.43 56.79 55.37 55.83 55.86 57.19 57.61 57.11 55.98 55.96 54.33 53.02 51.10 50.45 48.85 48.99 47.96 48.19 48.92 48.05 47.44 45.87 43.99 43.19 42.56 42.24 41.31 39.78 39.79 38.61 36.92 34.93
55.84 56.64 56.21 56.04 55.70 56.49 57.52 56.91 56.19 56.21 54.73 53.83 52.08 51.05 51.12 50.43 49.37 47.81 48.27 45.97 45.70 45.04 43.86 42.85 42.02 40.46 38.71 38.64 38.24 37.40 36.74 36.06
54.77 56.06 54.75 54.59 54.81 55.31 55.79 56.35 55.98 55.98 55.36 53.95 52.23 51.83 51.17 50.15 47.57 47.24 45.95 44.52 43.73 43.34 43.11 41.35 40.87 40.16 39.03 39.58 38.58 38.23 37.13 35.96
51.52 51.84 52.72 53.47 54.74 55.39 55.74 55.99 55.82 56.19 56.09 55.06 53.77 52.63 52.62 49.98 47.76 47.59 44.52 42.11 40.88 40.97 41.08 41.36 41.10 41.05 40.90 38.82 39.56 38.99 38.03 37.05
50.86 52.29 53.42 54.36 55.44 55.76 56.09 55.84 56.52 56.09 56.79 56.07 54.06 53.80 51.10 49.44 47.99 47.27 45.33 42.96 41.10 41.93 40.70 40.95 41.50 41.36 40.95 40.65 39.55 38.09 37.38 35.76
49.57 51.74 53.72 55.18 55.87 55.84 55.99 56.49 56.93 56.88 56.73 56.39 54.33 53.10 49.97 48.59 47.42 45.89 43.51 41.90 42.75 40.77 41.90 41.64 41.95 42.22 41.11 39.80 38.40 37.05 35.97 34.47
48.76 51.56 54.19 55.71 56.64 56.59 56.79 57.34 57.33 57.20 56.49 56.17 54.84 52.09 49.96 47.62 45.85 43.72 43.57 42.97 41.70 41.44 41.22 42.54 42.35 41.18 40.03 38.80 37.36 36.53 34.46 34.68
49.12 52.56 55.06 55.82 56.09 56.61 56.85 57.55 57.11 56.47 55.57 54.40 51.68 48.50 47.53 46.37 45.65 44.35 43.40 43.06 42.92 42.75 42.92 42.18 40.20 39.84 39.03 37.60 36.50 35.24 34.26 34.13
50.62 52.08 53.94 54.81 55.79 56.23 56.89 57.27 57.13 55.11 52.73 49.98 47.71 46.81 47.23 47.05 44.23 44.74 43.85 44.04 44.61 44.66 42.20 40.16 39.81 39.07 38.06 36.94 35.62 35.17 34.40 33.93
51.10 51.90 53.07 54.90 55.48 55.76 55.51 55.13 54.45 50.54 49.68 48.42 47.79 47.14 46.38 45.31 44.44 44.11 45.50 45.03 43.18 40.66 40.74 39.65 38.96 38.30 37.51 37.19 36.64 35.39 34.13 33.45
49.56 50.32 51.63 52.27 52.80 52.58 51.90 50.03 49.84 49.69 48.63 48.46 47.48 46.83 46.03 43.69 44.74 45.36 44.26 41.69 40.23 39.34 39.11 39.36 39.01 38.49 38.05 37.20 35.84 34.26 33.54 33.40
48.62 48.87 49.51 50.37 50.68 49.66 49.18 48.37 47.16 47.71 46.77 46.68 46.70 46.33 45.50 45.07 44.20 41.36 40.62 40.34 37.95 39.52 39.00 38.84 38.99 38.01 37.24 35.65 34.79 33.26 32.47 31.74
46.48 47.96 47.94 49.34 49.06 48.19 47.04 45.63 45.46 47.15 46.18 45.67 45.54 44.60 43.59 41.01 40.15 40.05 39.60 39.00 38.66 38.89 38.80 38.22 37.44 37.24 36.66 36.90 35.20 32.20 31.24 30.09
45.31 45.62 46.48 47.16 45.96 45.01 44.33 45.36 45.76 44.60 43.17 43.15 42.53 41.82 40.45 39.56 39.30 38.60 38.05 38.84 39.69 38.70 38.57 36.84 35.16 34.61 35.82 36.75 36.48 32.26 30.35 29.21
38.12 40.51 40.77 40.93 41.38 41.03 40.49 40.75 40.49 39.93 39.55 39.47 39.41 39.06 38.62 39.03 39.60 40.18 40.26 39.94 39.09 37.43 34.68 33.66 32.70 33.31 35.27 35.90 35.51 32.18 29.42 28.97

GFSFLT1_sfc_wetblb_057.txt.gz
Wetbulb
58.91 59.27 60.58 61.43 61.53 62.18 63.14 62.98 62.55 61.90 61.31 61.18 61.57 62.11 62.51 61.94 60.79 60.28 58.88 58.11 56.15 55.19 53.25 50.55 52.41 50.59 50.93 51.03 50.51 50.14 50.17 50.40
59.32 59.68 60.25 60.95 61.90 61.69 62.30 61.88 61.42 60.32 59.10 58.34 58.00 58.57 59.77 60.04 58.91 58.52 57.42 56.61 55.08 54.43 51.44 50.48 51.85 51.44 51.21 51.19 49.87 49.74 48.98 49.81
58.41 59.04 59.32 59.70 60.34 61.16 61.11 61.50 60.82 60.69 60.44 59.96 59.87 59.40 59.59 59.70 58.66 57.82 57.21 55.62 54.73 53.80 51.03 51.50 51.45 50.74 50.52 50.38 50.18 48.59 49.06 48.59
58.29 58.27 58.74 59.87 59.68 60.47 60.67 61.07 60.82 60.59 60.56 59.16 57.48 57.82 57.01 56.42 56.62 56.85 55.98 54.73 53.54 52.32 51.66 51.42 50.97 51.17 50.01 50.15 49.85 48.82 46.39 46.72
59.12 59.18 59.13 59.35 59.67 60.86 61.25 61.32 60.75 60.27 59.57 58.54 57.62 58.05 57.43 57.20 56.61 56.48 55.81 52.69 51.15 51.07 51.50 51.11 51.08 50.67 49.66 49.18 47.87 47.55 45.99 43.28
58.57 59.74 60.47 60.52 60.40 59.89 60.84 61.19 60.67 60.47 59.40 59.35 58.52 58.25 59.13 56.02 55.41 54.95 54.47 53.78 52.72 51.38 50.97 50.35 50.18 49.98 49.01 47.75 46.40 45.74 44.97 43.23
58.63 60.42 61.08 60.36 60.29 60.02 60.43 60.17 59.87 60.12 59.46 59.00 58.23 58.10 56.29 54.20 54.14 53.21 53.17 52.90 51.70 51.68 50.14 50.25 49.97 48.53 47.17 45.26 43.78 42.70 41.95 44.35
57.04 58.60 59.05 59.47 58.29 59.16 59.98 60.31 59.63 59.74 59.10 58.26 57.30 56.60 56.45 55.38 54.64 51.97 53.06 51.53 49.99 50.00 49.75 48.48 47.42 46.43 45.61 43.17 41.84 42.06 41.86 41.98
56.59 57.69 58.93 59.03 58.58 59.07 59.56 59.40 59.68 59.50 59.00 58.54 56.60 56.14 56.66 56.26 54.14 51.75 51.99 51.98 51.13 49.61 48.29 46.94 45.64 45.32 43.21 42.25 42.18 41.15 41.42 44.02
55.54 56.79 57.89 58.36 58.06 58.86 59.14 59.52 59.54 59.61 59.01 59.24 57.30 56.49 56.65 55.11 52.13 52.46 53.62 52.71 48.41 46.28 45.62 45.77 45.28 44.94 43.51 41.97 41.46 40.20 40.61 42.18
52.43 54.56 56.33 57.67 58.30 59.20 59.42 59.74 59.29 59.70 59.37 58.96 58.18 57.27 57.11 55.34 53.42 53.00 50.63 48.74 46.59 44.53 45.35 45.80 45.03 44.33 44.26 43.20 41.01 40.13 39.73 42.03
51.94 53.49 55.71 57.45 58.70 59.02 58.99 59.09 59.30 59.35 59.31 58.73 58.43 57.41 57.13 54.51 52.30 49.84 47.86 44.93 44.93 44.35 44.81 44.86 45.27 42.68 41.39 40.53 39.79 39.76 40.92 41.38
53.71 54.05 56.11 57.55 58.23 58.87 58.94 59.22 59.26 59.46 59.05 57.74 57.81 56.62 54.08 52.19 49.66 46.92 45.34 43.96 45.17 45.65 45.80 43.59 41.50 40.53 40.33 39.19 39.83 41.12 40.73 40.35
54.40 54.89 55.72 57.25 58.14 58.54 58.66 58.17 58.19 58.33 56.36 55.85 53.61 52.09 51.04 49.09 47.28 45.76 45.79 45.69 45.59 45.62 42.72 41.35 42.06 41.26 41.49 42.59 42.36 41.57 41.17 40.88
54.56 55.00 55.46 56.26 57.27 57.80 57.13 56.89 56.21 53.79 52.20 51.34 49.92 49.24 48.51 47.60 46.98 46.06 45.69 46.25 44.09 42.01 41.71 41.11 41.55 41.19 41.00 42.43 41.62 41.62 41.49 40.81
51.24 52.82 54.76 55.82 56.06 55.47 54.27 52.91 51.74 51.07 49.91 48.96 48.33 47.87 46.58 46.20 46.43 45.54 42.91 42.44 41.89 41.75 41.32 40.98 41.18 40.99 41.26 41.19 41.77 41.70 41.00 40.55
49.10 50.41 52.30 53.07 52.57 51.93 50.32 50.09 49.93 51.15 49.91 47.69 46.33 45.83 45.02 43.03 42.41 41.89 41.83 41.60 40.44 40.31 40.32 39.86 40.19 39.70 38.36 37.60 38.37 41.36 40.57 39.44
46.19 46.46 47.87 49.22 49.03 48.69 48.24 48.30 48.57 47.62 46.75 45.74 43.48 42.23 41.46 41.35 40.29 39.94 39.05 39.53 42.17 41.81 40.17 40.03 39.53 41.89 37.18 36.99 36.55 40.33 40.11 39.86
42.74 44.03 44.16 44.91 45.71 45.20 45.24 44.88 44.29 43.10 41.25 40.48 40.46 39.95 39.38 41.33 41.45 41.86 41.86 41.53 41.03 41.68 40.45 41.27 40.17 39.39 35.73 35.85 35.38 39.56 39.63 39.12

GFSFLT1_sfc_wetblb_060.txt.gz
Wetbulb
61.60 62.41 62.60 61.69 61.71 62.13 62.98 62.89 63.70 65.61 65.42 64.35 63.40 63.52 63.52 64.72 65.41 65.95 66.09 64.57 63.33 62.54 60.61 58.27 57.25 56.31 56.06 55.51 54.84 54.58 54.93 55.37
62.42 62.30 63.45 62.98 62.39 62.83 63.58 63.79 64.59 65.37 64.28 62.18 61.16 61.11 62.53 63.58 64.94 65.44 64.40 63.66 62.73 61.72 59.97 57.29 56.73 56.32 55.60 55.86 54.90 53.70 53.17 54.87
61.23 61.99 62.34 63.02 62.41 62.78 63.37 64.26 65.47 65.21 64.52 62.97 61.82 61.74 62.89 63.47 64.54 64.49 64.17 62.88 62.10 61.01 59.65 56.83 55.11 56.39 55.68 55.38 54.44 53.24 54.05 53.88
60.67 61.18 62.10 62.81 62.94 63.25 63.42 64.27 65.13 65.07 65.25 63.64 62.44 62.45 62.75 62.39 62.71 62.30 62.51 61.87 61.04 59.99 57.50 55.83 55.34 56.53 55.17 55.09 54.83 53.57 51.98 51.72
61.37 61.91 62.13 62.82 63.10 63.96 64.12 64.42 64.87 65.00 65.44 63.55 61.61 60.20 59.26 61.44 62.76 62.56 62.68 61.21 60.08 59.04 55.57 54.96 55.69 55.60 55.54 55.03 54.58 54.03 52.28 49.12
60.44 62.04 62.77 63.61 64.15 64.23 64.40 64.08 64.39 64.96 64.88 64.39 62.68 61.11 60.76 62.49 62.88 61.81 60.80 59.22 57.49 55.50 55.59 53.89 54.32 55.42 55.64 54.72 53.32 52.06 47.89 44.33
61.03 61.91 63.94 64.14 64.84 64.95 64.65 64.17 64.08 64.90 64.83 64.33 63.81 62.84 62.04 61.30 60.54 60.27 59.79 59.35 57.74 56.38 53.46 53.62 54.60 55.30 54.80 53.61 52.22 48.18 46.15 43.60
61.42 61.17 62.14 63.65 64.24 64.62 64.46 64.46 63.74 64.43 64.90 64.36 64.13 63.85 62.78 60.25 59.54 60.33 58.98 57.21 55.29 53.16 52.99 52.87 54.74 54.92 53.84 51.25 47.07 46.23 44.10 43.47
61.52 61.82 62.48 63.18 64.06 64.53 64.44 63.39 64.01 64.18 64.24 63.79 63.80 63.26 62.22 59.94 59.02 59.93 59.73 55.35 52.25 53.13 52.52 54.44 54.81 52.95 47.83 47.59 43.92 47.64 46.82 43.35
60.21 61.98 62.85 63.76 64.08 64.33 64.17 63.24 63.33 64.00 63.85 63.92 62.81 61.84 60.56 58.55 59.32 59.19 58.04 54.46 53.24 53.29 54.83 53.87 48.07 46.69 49.16 45.08 45.37 44.80 43.19 43.54
57.92 60.01 62.07 63.16 64.22 64.75 65.03 64.86 64.31 64.74 64.68 63.24 60.94 60.39 60.42 60.01 58.61 58.80 56.14 53.96 55.46 53.86 51.61 45.88 47.68 47.01 46.79 44.80 43.23 42.30 41.73 41.78
56.78 58.14 59.72 61.55 63.19 63.31 63.47 63.48 63.56 63.83 64.00 63.22 60.37 59.88 60.07 59.96 58.79 56.63 54.53 53.83 52.57 51.13 46.43 46.50 45.70 46.35 43.93 42.56 42.33 40.90 40.33 42.31
58.23 58.10 59.00 59.84 61.06 61.94 62.37 62.71 62.64 63.02 63.36 62.30 59.98 59.76 58.95 58.69 57.17 54.28 52.91 49.87 47.19 46.40 45.37 46.18 45.51 43.27 41.89 41.17 40.74 41.46 43.45 43.90
58.69 58.82 59.16 60.03 60.72 61.31 61.78 62.25 62.31 62.57 61.42 59.23 58.28 57.70 56.52 54.13 51.01 47.85 46.11 45.47 45.01 45.29 46.33 44.77 41.89 42.03 41.19 41.23 42.49 44.18 44.95 44.46
57.57 59.08 59.79 60.41 61.01 61.16 60.51 60.12 59.41 57.53 56.44 54.64 52.26 51.55 50.06 48.23 46.90 46.33 45.79 46.74 45.89 46.18 43.59 42.67 41.77 41.70 42.21 43.03 43.54 44.65 44.82 44.48
54.73 58.01 59.67 60.60 60.73 60.79 58.10 54.95 53.47 52.81 51.69 50.79 49.88 49.12 48.30 47.11 46.71 46.12 46.55 46.21 44.24 43.98 42.17 42.15 42.40 42.36 42.30 43.02 43.47 44.10 44.01 43.94
54.26 55.95 57.85 57.62 57.69 57.06 56.29 55.55 54.41 53.24 50.66 48.26 47.37 47.32 46.76 45.81 45.89 46.42 47.05 45.62 44.27 42.35 41.35 40.97 41.16 41.11 39.32 38.22 39.40 44.14 43.83 43.17
52.52 53.88 54.93 54.95 54.71 54.80 53.77 53.34 53.61 52.04 49.59 48.05 47.74 48.43 47.48 47.35 46.12 43.57 40.94 41.46 41.00 40.65 41.12 41.51 41.88 42.12 39.05 39.02 37.65 41.85 42.63 43.07
50.73 51.77 51.99 52.59 52.80 52.32 52.12 51.57 50.22 48.82 47.62 47.18 46.53 45.56 43.82 43.63 43.79 42.95 42.25 42.18 41.75 42.67 43.00 41.93 43.12 44.06 37.59 36.60 35.40 40.68 41.46 41.62

GFSFLT1_sfc_wetblb_063.txt.gz
Wetbulb
61.16 61.24 61.58 61.37 61.82 61.98 61.57 61.65 62.52 63.13 64.05 63.49 62.47 62.70 62.32 63.02 63.24 64.17 65.67 65.71 64.90 63.88 62.78 61.90 60.10 59.18 57.75 57.85 58.03 57.16 55.88 55.39
61.99 62.06 61.69 61.62 62.12 61.69 61.66 61.38 62.07 63.34 62.83 61.49 60.70 60.44 61.50 62.11 63.70 64.94 65.82 65.36 64.91 64.03 63.37 61.88 59.86 58.88 58.56 58.63 57.64 55.92 54.70 55.57
60.58 61.67 61.21 61.51 61.26 61.72 62.13 61.72 62.18 63.68 63.93 63.27 61.78 61.02 61.43 62.09 63.13 64.91 65.46 64.93 64.45 63.43 63.34 61.55 59.60 58.78 59.00 58.11 57.46 55.11 55.31 55.42
60.45 60.70 61.72 61.75 61.56 62.07 62.95 63.36 63.52 64.05 64.22 63.76 62.00 61.69 61.77 61.57 62.12 63.32 64.68 64.69 63.58 63.03 63.16 61.04 59.93 58.90 57.68 57.82 56.92 55.79 53.53 54.24
61.44 61.91 62.22 62.75 62.75 63.29 63.55 63.87 64.27 64.70 64.96 63.78 61.92 59.74 58.46 60.54 61.78 63.10 62.97 63.52 62.65 62.74 61.93 60.63 58.97 58.28 57.29 56.42 57.06 56.79 55.53 52.85
60.19 61.96 63.10 63.73 64.15 63.98 64.57 64.02 63.89 64.71 64.89 64.67 63.23 61.52 61.02 61.87 62.21 62.87 62.56 62.99 62.92 61.52 60.37 58.07 57.52 57.71 56.97 55.68 56.52 55.84 55.11 53.14
59.96 61.97 63.23 63.46 64.56 65.29 64.85 64.34 64.02 64.95 65.19 65.01 64.67 63.41 62.84 60.84 61.62 62.27 62.32 61.93 61.43 60.61 58.80 57.79 57.47 55.95 55.40 54.43 56.96 55.60 51.24 48.10
60.33 60.22 61.78 63.04 63.40 64.34 64.85 64.73 63.73 64.59 65.00 65.06 64.79 64.56 64.30 63.25 62.47 61.75 60.98 60.94 59.44 59.35 58.14 56.81 55.38 54.14 53.43 53.71 55.10 52.49 46.43 45.85
60.72 61.45 61.15 62.65 63.79 64.47 64.81 64.37 63.88 64.46 65.20 65.22 65.64 65.62 64.99 64.80 61.16 59.68 60.52 60.34 60.41 60.61 59.14 55.17 52.95 53.10 52.83 52.78 49.67 45.79 46.85 45.59
59.97 61.67 62.56 62.26 63.60 64.94 66.00 64.96 64.83 65.12 66.00 66.21 66.18 66.13 65.32 64.94 63.76 62.62 59.77 61.12 58.35 56.01 54.00 52.74 51.89 52.46 48.58 47.93 45.15 46.08 45.20 43.64
59.38 61.30 62.70 63.73 64.45 65.92 66.83 66.33 65.38 65.18 65.51 65.41 64.83 64.62 63.62 63.47 62.79 61.10 60.37 59.97 57.33 54.03 52.53 52.26 48.41 47.31 45.91 46.62 45.57 43.35 42.24 43.02
58.67 59.90 61.75 63.47 64.60 65.45 65.66 65.82 65.61 65.64 66.00 65.31 64.38 62.62 61.47 60.85 60.60 59.55 59.59 59.25 57.56 54.40 53.05 47.17 46.17 45.44 46.70 46.22 43.59 41.83 41.18 41.16
58.90 59.76 60.55 61.20 63.09 64.30 64.96 65.34 65.48 65.73 65.98 65.77 62.53 61.51 60.64 59.33 58.95 58.67 58.11 54.73 51.27 49.12 47.22 46.43 46.60 46.15 44.65 42.75 41.26 41.57 40.62 40.93
58.02 59.65 60.19 60.89 61.93 62.87 63.58 64.06 64.11 64.29 64.41 63.97 60.82 59.48 58.54 54.28 50.86 49.55 47.77 47.21 46.38 46.00 46.45 45.86 45.65 43.38 41.68 41.89 41.88 41.95 42.91 44.37
57.66 58.84 60.30 61.72 62.34 62.66 63.17 62.88 62.54 61.94 60.20 56.80 54.26 52.67 50.68 48.90 47.65 46.70 45.90 46.03 46.26 46.03 45.58 43.17 43.29 42.30 42.07 42.07 42.60 43.68 44.32 44.05
55.29 58.76 60.00 61.37 62.13 60.95 58.83 56.35 55.58 55.22 53.14 51.39 50.18 49.55 48.79 47.87 47.68 46.61 46.65 46.28 45.53 43.94 43.10 42.82 42.90 42.60 42.92 42.98 43.14 42.86 43.20 43.38
56.07 58.06 60.65 60.93 61.10 58.68 55.25 53.14 51.95 51.94 49.88 48.59 48.67 48.33 47.45 46.88 46.56 45.34 44.87 44.40 43.82 43.46 43.11 42.44 41.80 42.25 39.68 39.21 40.12 41.01 42.46 43.11
56.25 58.13 59.14 59.07 58.48 57.39 55.00 53.54 52.43 50.52 49.40 49.09 48.94 48.73 47.84 48.03 47.51 46.08 45.12 44.80 43.51 41.93 41.14 41.25 41.36 42.99 39.43 39.23 38.34 43.22 42.84 42.53
55.39 56.45 56.61 56.99 57.21 56.45 55.87 54.97 53.55 52.24 51.46 50.86 50.14 48.89 47.65 47.27 46.78 46.32 44.58 42.75 42.03 42.43 42.73 43.66 44.37 44.94 40.52 39.05 36.48 40.89 41.09 41.49

GFSFLT1_sfc_wetblb_066.txt.gz
Wetbulb
58.92 59.44 59.00 59.01 58.21 56.24 56.62 57.61 58.96 60.51 61.53 61.88 61.27 60.99 60.75 60.76 60.62 61.97 62.45 61.63 62.81 62.18 60.58 59.83 58.03 57.29 56.30 54.88 54.86 54.07 52.58 50.94
60.20 60.02 58.66 57.75 58.73 58.53 58.82 58.56 60.92 61.06 59.73 59.38 59.10 59.23 59.45 59.75 60.48 61.50 63.56 63.63 63.60 62.33 60.38 60.32 58.09 56.74 55.54 55.04 55.07 53.53 51.28 51.33
58.82 59.29 58.53 58.09 58.86 59.81 60.09 60.50 61.17 61.28 60.81 60.40 59.58 59.79 60.09 59.88 60.70 61.63 63.49 63.43 63.56 63.23 62.01 60.51 58.05 56.87 56.37 55.91 54.33 52.36 52.47 52.01
58.61 58.71 58.96 59.35 59.00 59.61 59.92 60.28 60.41 61.26 61.51 61.21 60.55 60.04 59.50 59.26 59.71 60.48 62.95 63.71 63.19 62.71 61.86 60.94 58.32 57.50 56.32 56.21 55.05 53.98 51.19 52.22
58.79 59.42 58.58 59.12 59.27 60.38 60.81 60.66 60.37 61.19 62.41 61.35 59.81 57.53 56.22 58.28 58.76 60.50 62.75 63.49 62.64 62.80 61.57 60.81 58.57 57.07 55.51 55.27 55.42 53.62 52.68 50.12
58.48 58.67 59.94 60.11 60.81 60.38 61.24 61.90 61.45 61.79 62.12 62.03 60.95 58.87 58.55 58.65 59.78 59.62 61.77 61.77 61.42 61.49 60.90 59.87 56.45 55.88 55.07 55.78 53.73 53.23 52.51 51.11
59.85 60.88 61.21 61.34 61.97 62.03 61.37 61.75 61.95 62.58 62.83 62.28 62.00 59.99 59.31 58.11 58.70 58.98 60.84 60.88 60.92 60.88 59.87 57.17 56.82 55.07 54.55 55.01 54.24 52.79 51.17 46.52
58.37 60.06 60.89 61.40 61.54 62.02 62.38 62.00 61.50 62.28 63.11 62.88 62.04 62.85 60.60 60.21 59.27 59.86 60.24 60.00 58.87 58.39 57.94 56.05 55.32 55.00 54.28 53.75 52.81 50.50 46.70 44.15
58.41 58.59 60.96 61.41 61.91 62.50 62.80 62.52 61.92 62.61 62.75 63.26 63.40 62.95 63.04 61.91 61.64 61.01 59.84 59.59 59.23 58.82 57.57 56.32 55.43 53.86 53.35 52.06 49.20 46.12 45.87 46.50
59.02 60.02 60.07 61.54 61.90 62.55 63.03 63.02 62.94 62.96 62.69 62.92 62.67 63.65 62.87 62.78 62.86 61.49 59.89 59.75 59.66 58.99 57.56 54.67 52.41 52.38 51.74 48.10 45.87 44.96 45.22 43.85
58.02 59.95 60.85 61.21 62.74 63.06 63.58 63.68 63.51 63.66 63.74 63.58 63.55 63.65 63.95 63.67 62.77 61.25 60.47 59.68 56.69 55.09 53.00 52.37 51.52 48.65 46.29 45.79 45.96 44.05 43.19 42.66
58.11 59.32 61.42 61.95 62.42 63.04 63.74 64.06 63.74 63.70 63.85 63.81 63.38 64.08 62.66 61.49 60.07 59.45 59.26 58.20 57.13 55.09 53.15 50.15 47.50 45.27 46.04 44.72 43.79 41.85 40.99 41.38
58.19 59.48 60.14 60.92 62.42 62.86 63.90 64.43 64.28 64.51 64.54 63.37 63.19 62.44 60.74 59.77 57.94 57.44 57.00 54.83 54.14 51.89 49.10 46.61 46.02 45.79 45.62 42.89 41.76 41.70 40.77 40.53
57.50 58.69 59.13 59.88 61.05 62.51 62.96 63.40 63.48 63.93 62.05 62.10 61.59 59.60 57.96 52.80 51.22 50.15 49.18 48.78 47.83 46.95 46.49 45.88 45.51 44.37 42.70 42.26 41.83 41.89 41.75 41.85
55.84 57.42 58.89 60.18 61.31 61.94 62.18 61.07 60.34 58.72 57.99 55.13 52.42 51.20 49.70 47.87 47.72 47.81 46.59 46.88 46.55 46.02 45.67 44.12 42.88 42.60 42.19 42.23 42.40 42.47 42.83 43.78
55.47 57.03 58.87 60.36 60.27 58.58 57.47 56.49 56.04 54.51 52.41 50.29 49.15 49.12 47.92 47.43 46.45 46.91 46.39 46.14 45.71 43.98 43.49 42.99 42.40 42.26 42.42 42.36 43.01 43.04 42.43 42.25
55.95 57.34 59.41 60.23 57.63 54.87 53.67 52.21 51.31 51.21 48.86 47.83 48.04 47.59 47.32 46.30 46.79 44.97 44.28 43.78 43.14 42.77 42.15 42.00 41.94 42.60 40.03 39.98 40.71 41.41 41.21 40.97
55.88 57.68 59.94 57.64 55.57 54.18 51.99 50.23 50.09 49.22 48.65 48.09 47.79 47.84 46.50 46.03 45.78 44.37 43.41 42.94 43.24 42.52 41.48 41.64 41.18 41.77 39.14 39.40 38.36 40.44 40.17 39.33
56.74 58.04 57.76 56.59 55.46 54.01 52.80 51.82 50.54 49.72 49.29 49.03 48.54 48.03 46.68 45.98 45.79 45.34 44.23 42.77 41.13 41.16 41.25 41.63 42.11 43.62 39.66 39.32 37.80 38.23 37.03 37.17

GFSFLT1_sfc_wetblb_069.txt.gz
Wetbulb
55.23 54.75 54.57 55.44 56.01 56.39 56.56 57.30 56.85 57.06 57.51 55.53 57.25 56.03 57.13 57.45 58.49 59.71 59.94 59.91 60.59 59.66 59.03 57.09 55.90 55.02 54.34 53.53 52.07 52.59 50.39 48.31
56.39 55.39 55.11 55.19 55.26 54.54 54.79 55.61 55.72 56.54 55.46 54.72 56.78 55.33 55.44 55.88 56.76 59.89 59.73 59.50 60.31 59.05 58.09 57.21 55.39 54.74 54.08 52.89 51.85 51.60 49.86 49.52
56.23 55.62 55.32 54.40 52.69 53.22 54.10 54.75 55.20 57.28 57.92 57.62 56.01 56.74 55.66 55.80 56.44 57.64 60.67 60.03 60.32 59.77 58.39 57.82 55.48 54.47 54.11 52.29 52.17 50.88 50.99 49.67
55.27 54.34 54.02 53.98 52.21 52.92 53.87 55.01 56.46 58.41 58.09 57.13 55.68 56.11 55.91 55.58 55.27 57.07 60.33 61.52 61.76 61.20 59.86 58.84 56.32 55.63 54.63 52.87 52.04 51.43 50.65 51.35
55.87 54.29 53.14 54.31 54.88 55.68 56.27 56.74 58.12 58.57 58.18 57.34 56.28 55.97 55.24 56.34 55.70 56.27 60.60 61.48 61.69 61.48 60.91 60.11 57.40 56.58 55.04 53.94 55.22 54.53 51.85 50.00
54.90 54.71 54.79 55.22 56.33 57.26 57.43 57.81 57.90 58.52 58.55 58.27 56.94 55.56 55.61 55.25 55.54 56.56 59.86 60.96 61.27 61.42 60.26 58.96 56.91 56.65 55.51 55.14 54.79 53.55 52.93 51.50
56.10 56.57 57.07 56.73 57.55 57.46 57.80 57.42 57.40 58.13 58.49 58.78 59.08 57.67 54.70 54.08 55.29 55.87 58.68 60.27 60.45 60.16 60.51 59.49 57.30 55.48 54.63 53.53 53.65 53.40 51.23 48.57
55.92 55.80 55.70 56.50 56.58 57.05 57.55 57.86 57.38 57.89 57.97 58.62 58.68 58.69 56.23 54.99 54.70 56.20 58.08 58.79 59.66 59.51 58.55 55.89 55.58 53.89 53.17 53.26 53.10 50.88 47.89 46.48
55.78 56.24 56.99 56.68 57.17 57.40 57.85 57.81 58.44 58.92 58.65 59.19 59.44 59.05 58.18 57.44 56.62 57.19 59.06 59.12 59.01 57.20 55.46 54.20 53.47 53.01 52.37 52.08 50.09 46.88 46.30 45.49
55.53 57.14 57.53 58.02 57.89 58.21 58.33 58.28 58.67 59.57 59.52 59.93 59.83 59.62 59.53 58.24 58.59 58.18 59.24 58.78 57.37 56.57 55.93 53.60 52.24 51.46 51.14 49.59 47.29 46.30 45.92 45.07
54.76 55.93 58.47 59.20 59.62 60.06 60.01 60.04 59.57 59.73 59.84 59.94 60.47 60.30 59.70 59.96 59.64 57.65 57.99 58.11 56.85 55.39 54.91 53.52 52.44 50.49 47.83 47.11 45.47 45.33 44.20 43.46
52.43 53.67 56.95 59.76 60.31 60.24 60.32 60.40 60.55 60.44 60.63 59.97 60.06 59.26 59.81 59.64 59.13 58.94 59.14 57.66 55.85 54.24 53.24 52.42 49.45 47.60 46.68 45.96 44.45 43.68 42.52 42.02
53.18 53.82 54.89 56.40 59.30 60.00 60.25 60.80 61.04 61.28 61.42 60.80 60.14 59.11 59.55 58.90 59.16 59.37 57.51 56.09 54.96 53.82 51.06 48.87 47.11 46.11 45.71 44.53 42.73 42.34 41.90 41.49
52.95 53.93 54.49 54.87 56.81 58.80 60.04 60.77 61.01 62.87 61.39 59.50 59.12 57.36 58.32 57.77 54.04 53.28 53.28 51.42 50.56 49.51 48.48 47.00 45.80 45.31 43.39 42.77 42.49 42.39 42.15 41.82
52.29 52.64 53.77 55.80 57.70 56.89 56.15 56.01 60.88 59.58 55.99 53.43 52.16 51.32 50.59 50.05 49.51 48.59 47.76 47.74 47.20 46.48 46.30 45.24 43.96 43.52 43.18 42.91 42.77 42.18 42.21 42.55
50.91 52.20 53.75 55.53 54.24 52.99 52.11 52.36 52.26 52.18 50.95 49.65 47.99 48.36 48.77 48.33 46.93 46.52 46.21 46.00 45.10 44.82 43.81 43.36 43.30 42.93 42.53 42.38 42.55 42.18 42.34 42.51
51.76 55.19 56.54 55.03 53.46 51.41 50.82 49.67 50.21 50.06 49.13 47.94 47.74 46.63 46.45 45.83 45.58 45.62 44.02 43.95 43.89 43.71 42.71 42.07 41.79 42.41 39.42 40.17 41.79 41.90 41.85 40.82
53.14 56.58 55.81 53.69 52.14 50.79 48.91 48.30 48.97 48.70 48.10 47.52 47.40 46.74 45.75 45.25 44.71 43.84 43.02 42.58 42.67 42.00 41.64 41.65 41.23 41.74 39.66 39.91 38.80 39.52 38.02 37.08
55.26 54.74 53.45 52.31 50.93 49.57 49.07 49.08 48.45 47.58 47.16 47.10 46.80 45.92 44.90 44.40 43.89 43.11 42.55 41.57 40.01 39.52 40.93 41.32 41.40 41.92 38.70 38.47 36.88 36.55 35.78 34.42

GFSFLT1_sfc_wetblb_072.txt.gz
Wetbulb
56.53 55.98 56.10 56.06 56.08 56.86 57.55 56.40 56.66 56.88 57.18 56.54 56.99 56.49 57.63 58.20 58.38 58.57 59.35 59.54 59.02 57.43 56.42 56.41 55.23 54.04 52.28 51.47 50.58 50.57 49.14 47.73
54.75 54.17 53.99 54.89 55.64 56.36 56.79 56.19 56.54 57.18 55.54 54.74 55.11 54.88 54.40 55.20 56.80 58.30 58.57 58.68 58.80 57.41 57.35 55.77 54.48 53.50 52.86 51.95 50.70 49.91 50.04 47.48
53.93 53.42 52.77 53.78 54.24 54.64 54.26 55.57 55.43 55.62 55.52 54.15 55.94 54.47 54.20 56.50 56.09 58.01 58.82 58.20 58.63 57.72 57.29 56.04 54.13 53.05 52.50 51.86 50.81 49.72 49.75 48.33
53.72 53.33 52.38 53.28 53.44 53.36 53.31 54.90 54.87 55.46 55.92 54.37 54.37 54.78 54.11 54.15 53.97 55.58 58.36 58.58 58.55 58.68 57.54 56.66 55.20 53.78 52.77 51.55 50.47 50.12 48.51 49.41
54.50 53.70 52.92 52.62 52.40 53.05 53.16 53.96 53.59 55.21 56.61 54.98 54.45 54.54 53.84 54.99 54.45 54.84 56.72 59.07 58.93 59.58 58.84 57.33 55.69 54.62 53.18 52.93 52.55 51.29 51.59 50.82
54.03 53.60 53.82 53.32 52.22 52.00 52.63 53.46 54.23 55.68 57.09 56.09 55.92 54.64 55.85 54.81 53.80 54.15 55.73 58.77 59.64 59.79 59.59 58.21 56.62 55.96 55.03 54.77 53.35 52.14 52.50 51.04
54.73 54.34 53.96 51.92 51.84 51.97 52.62 52.97 54.04 55.86 57.40 56.75 56.00 55.47 53.34 53.21 54.62 54.12 54.99 58.32 59.45 59.99 60.08 59.83 58.84 56.18 54.75 54.76 53.63 53.36 52.47 50.96
54.31 53.04 52.43 52.32 51.89 52.22 53.50 54.25 54.39 56.36 57.44 56.99 56.20 55.46 54.02 54.26 54.12 54.98 54.58 57.19 58.48 59.10 59.38 58.20 56.36 56.48 54.32 53.83 53.39 52.86 51.23 50.29
54.46 54.34 53.61 53.27 53.79 54.49 55.03 55.04 55.42 56.73 57.05 57.22 57.62 57.15 56.95 56.00 55.10 55.75 55.72 56.49 58.44 60.07 59.48 57.60 55.52 55.34 53.03 52.14 52.05 49.25 48.55 48.10
54.17 54.85 54.80 54.77 54.92 55.28 56.20 56.31 56.40 56.93 56.81 56.78 56.67 57.37 57.70 57.27 56.40 54.82 56.31 57.35 58.27 56.76 57.16 56.06 55.40 53.75 52.63 51.40 49.27 47.70 47.86 46.40
54.94 55.42 55.54 56.09 56.51 56.59 56.88 57.09 56.75 57.15 57.29 57.13 56.70 57.02 57.72 58.35 56.22 55.37 56.28 56.24 55.86 56.40 54.82 53.32 53.02 52.76 51.08 49.98 47.90 46.56 46.27 45.33
53.46 55.49 56.66 56.97 57.07 56.90 56.81 56.81 56.96 57.13 57.98 58.10 57.43 57.75 58.16 58.16 57.10 57.00 57.63 57.34 57.32 57.77 55.98 53.80 53.10 52.21 50.19 48.06 46.51 45.48 44.98 43.88
52.13 54.59 55.73 56.53 57.03 57.27 56.89 57.35 57.37 57.87 58.93 59.63 58.92 58.16 58.49 58.12 58.20 58.37 58.77 57.58 56.78 55.20 54.46 53.11 51.27 49.77 48.44 46.42 44.83 44.54 43.31 42.62
50.48 51.35 52.79 55.56 57.34 57.88 58.26 58.42 58.55 60.20 59.78 59.65 58.70 58.72 58.78 58.69 58.75 57.84 55.55 54.46 55.62 52.81 51.07 49.65 48.37 47.03 45.66 44.73 44.15 43.57 43.13 42.97
50.33 50.64 52.38 55.46 55.71 56.69 57.87 58.57 59.52 59.20 56.83 56.28 56.02 55.01 55.32 56.54 55.52 54.17 53.25 53.17 50.28 49.34 49.79 48.02 46.06 44.29 44.11 43.71 43.96 43.09 42.72 42.50
50.54 50.37 54.09 53.60 54.03 54.08 54.18 53.39 52.45 54.15 52.23 51.53 49.69 49.67 49.81 48.89 48.87 48.51 48.21 47.93 47.77 47.93 45.22 44.05 43.94 43.83 43.79 43.46 43.14 42.21 42.11 42.24
49.67 52.53 54.38 52.63 52.33 51.94 52.35 51.43 50.91 51.58 50.15 48.40 48.20 47.90 47.66 47.19 46.29 45.57 45.21 45.01 44.96 44.33 43.53 43.26 42.49 43.11 39.41 40.20 41.51 42.00 42.30 41.40
52.67 54.22 54.37 52.45 51.87 51.36 50.64 50.36 50.56 49.77 48.60 47.88 47.70 47.30 46.09 45.37 45.08 44.49 43.65 43.23 43.34 42.58 42.15 42.32 41.58 41.56 39.58 39.94 39.37 41.08 39.56 37.73
53.63 54.18 52.09 50.82 50.70 50.34 50.08 50.29 49.74 48.96 48.30 47.39 46.96 46.35 45.17 44.75 44.22 43.67 42.91 42.52 41.77 41.59 41.34 41.41 41.73 41.76 38.96 38.56 36.80 37.13 33.00 31.63

GFSFLT1_sfc_wetblb_075.txt.gz
Wetbulb
55.77 55.63 56.12 56.27 56.61 57.45 57.79 57.69 57.59 57.46 56.93 57.03 57.05 57.07 57.95 59.24 59.10 58.64 57.65 56.11 56.69 55.77 54.55 54.24 54.66 53.47 52.60 51.36 50.06 48.83 47.67 46.66
55.40 55.87 55.79 55.97 56.18 56.60 57.28 56.35 56.37 56.56 55.98 55.23 54.93 54.82 56.20 57.01 58.56 58.33 58.21 57.48 57.00 56.29 55.16 54.41 54.18 53.54 53.07 51.73 49.73 49.24 48.23 46.41
53.05 52.58 54.45 54.92 54.73 55.91 56.59 55.54 56.09 56.39 56.29 56.22 56.37 55.38 55.39 56.12 56.82 57.09 58.24 57.91 57.49 56.83 56.09 55.04 54.53 53.24 51.69 50.07 49.77 49.21 48.57 46.94
52.73 52.49 52.17 54.21 53.77 55.02 55.37 55.04 55.15 56.32 56.04 54.27 55.00 54.94 54.59 53.88 53.46 55.10 56.62 57.60 57.81 57.11 56.51 55.50 53.46 52.68 51.61 50.55 50.20 49.97 48.18 48.45
52.99 52.37 50.67 51.83 53.53 53.95 53.88 54.80 54.73 55.36 55.18 52.98 53.48 52.66 51.93 53.31 53.63 53.86 55.62 57.20 56.92 57.60 56.89 55.68 54.49 53.24 51.72 51.76 51.35 50.36 50.18 48.59
52.62 52.50 52.36 52.15 53.26 53.16 52.91 53.30 54.69 55.47 54.98 53.43 52.92 51.26 52.04 52.56 53.16 53.57 53.34 56.15 57.30 57.54 57.52 55.74 55.40 54.39 54.43 53.63 52.60 50.68 51.56 51.80
53.45 53.54 53.53 52.59 51.72 51.78 52.28 51.85 52.34 53.85 54.43 54.66 52.70 52.68 52.75 52.62 52.32 52.64 52.75 54.33 56.61 57.52 57.71 57.31 56.94 55.97 54.16 53.81 53.55 51.95 51.20 51.04
53.07 52.51 52.28 52.51 50.60 50.68 51.29 51.35 51.74 52.85 53.77 55.03 54.49 54.08 53.32 53.57 53.96 54.10 53.28 53.38 55.34 56.95 57.57 57.51 57.92 57.87 55.81 54.56 54.65 53.42 50.89 50.15
53.21 53.19 52.31 52.15 50.76 50.28 51.21 51.19 51.42 52.46 53.63 54.99 55.84 55.10 55.02 54.91 54.86 55.32 54.58 54.49 55.28 57.31 58.07 58.50 58.61 56.85 55.85 54.93 54.13 53.49 51.73 51.15
53.55 53.91 52.82 52.19 50.61 50.52 50.86 51.49 51.91 52.65 53.73 54.96 55.79 56.13 55.41 55.45 54.87 53.64 54.53 53.96 55.32 56.35 58.40 58.42 56.71 54.21 55.01 54.35 52.84 51.30 50.18 49.29
54.04 54.48 53.77 53.12 52.61 51.95 51.83 52.42 52.79 53.64 54.49 55.51 56.20 56.46 56.31 56.33 55.13 54.10 53.59 54.47 55.74 55.93 55.31 54.53 53.96 53.80 52.46 52.20 50.87 49.75 49.51 48.19
53.45 54.37 55.27 54.69 54.29 53.73 53.48 53.38 54.04 54.69 55.29 55.74 55.16 54.78 54.73 56.20 56.06 54.88 55.14 56.01 56.35 56.13 56.17 55.51 53.82 52.53 51.35 51.32 49.89 48.12 47.27 46.22
53.70 54.14 54.63 54.63 54.72 54.97 54.52 54.86 55.47 56.56 57.37 57.54 56.56 56.83 56.46 56.39 56.64 56.45 56.93 57.01 57.47 57.31 57.55 57.81 53.97 52.29 51.55 50.43 47.71 47.51 46.57 45.65
51.97 53.50 54.17 54.63 55.12 55.22 55.55 55.68 55.76 56.73 57.46 57.47 57.49 57.40 57.27 57.35 56.75 57.17 57.35 57.73 57.87 58.01 55.93 54.57 53.08 51.34 49.35 48.34 47.63 46.03 45.47 44.94
50.43 51.30 52.56 54.26 55.00 55.62 55.77 55.68 55.98 56.47 57.21 57.02 56.81 57.31 57.19 57.48 57.46 57.37 57.77 58.18 56.53 53.85 53.95 52.96 49.77 47.76 47.00 46.03 45.89 44.77 44.17 43.74
49.26 50.20 50.98 51.87 52.23 53.64 54.34 54.88 55.53 56.89 56.58 56.64 55.69 53.70 53.35 53.32 54.83 55.87 53.83 52.82 52.44 51.01 48.68 46.40 45.65 45.59 45.72 45.63 44.47 43.67 42.67 42.18
48.29 49.70 53.09 52.55 52.70 51.66 52.23 53.06 52.50 53.65 52.31 52.84 50.89 50.96 50.06 48.79 48.25 47.53 46.96 46.57 46.71 46.13 44.96 44.31 43.84 44.49 41.95 40.96 42.37 42.46 42.51 42.15
48.04 51.19 53.51 52.43 51.74 53.15 52.69 51.66 52.16 51.69 51.26 49.82 49.17 48.97 47.74 46.68 46.62 45.94 45.09 45.63 45.43 43.82 42.92 43.55 42.72 41.93 39.38 39.86 39.66 41.82 40.36 38.66
47.85 51.04 52.30 50.96 51.39 51.93 50.96 51.27 51.03 50.14 49.56 49.40 49.04 48.32 46.32 45.71 45.33 44.50 43.44 43.21 42.50 42.13 42.36 42.04 42.06 41.22 38.63 38.44 37.27 36.91 33.88 32.19

GFSFLT1_sfc_wetblb_078.txt.gz
Wetbulb
55.66 54.92 55.77 56.27 57.33 57.60 57.99 57.32 57.36 58.32 58.13 58.22 58.43 58.49 58.90 59.01 58.12 57.15 56.03 55.06 55.04 53.25 53.00 52.65 52.68 52.24 50.90 50.32 49.53 49.14 47.53 46.22
55.30 55.94 55.37 55.85 56.84 57.27 57.58 56.86 57.28 57.38 56.86 56.48 56.68 56.78 57.65 58.33 58.23 57.67 55.93 56.01 56.01 54.54 53.74 52.74 53.48 52.67 51.63 50.41 49.98 49.29 47.47 46.63
55.25 55.37 55.07 55.05 55.78 56.85 56.91 56.72 56.70 56.83 56.66 57.51 57.16 55.64 56.70 58.19 58.28 57.77 57.51 55.89 55.44 55.17 54.23 53.50 53.95 52.64 51.69 50.70 49.94 48.14 48.08 46.68
54.00 53.91 54.13 54.86 54.88 55.72 56.31 56.10 56.24 56.73 56.97 56.36 55.54 55.55 55.85 55.23 55.01 56.02 56.36 56.96 56.08 55.87 55.27 54.44 53.87 53.08 52.28 50.25 49.60 49.22 47.69 47.09
53.52 53.25 52.71 53.46 54.05 55.30 56.49 55.95 55.72 56.55 56.59 55.95 54.28 54.65 54.42 55.36 54.26 55.27 55.81 56.82 57.00 56.82 56.46 55.60 54.48 53.31 51.49 51.37 50.81 49.55 49.24 47.43
52.75 52.62 52.83 53.68 54.19 54.16 54.00 54.80 54.68 55.77 55.00 55.49 53.66 52.57 53.31 53.83 53.80 53.99 54.18 55.85 56.74 57.10 56.66 55.15 54.01 53.39 52.96 51.61 50.51 49.65 50.37 49.46
53.39 53.20 52.49 52.13 53.13 53.02 52.17 53.27 53.89 54.87 54.64 52.84 53.00 51.49 51.94 51.50 52.14 53.10 53.64 53.72 55.57 55.96 56.56 56.14 55.39 54.63 53.19 52.99 52.00 50.51 50.33 49.85
52.33 51.39 51.05 51.22 50.74 51.21 51.60 52.07 52.66 53.93 54.28 54.07 52.48 52.60 51.93 52.02 51.84 52.70 51.66 52.51 52.56 55.03 55.45 54.70 55.53 55.53 54.93 54.22 52.80 52.28 51.08 51.62
52.42 52.45 51.86 51.29 51.45 51.46 51.74 51.40 51.84 52.03 53.09 53.59 54.19 52.48 53.11 53.17 52.46 52.41 52.23 52.34 52.65 54.20 55.39 56.16 56.54 56.48 55.89 55.07 55.05 54.35 53.66 52.70
52.33 52.69 52.36 52.05 51.56 51.05 51.44 51.65 51.88 51.86 52.10 53.00 53.15 54.01 52.96 52.42 53.13 52.97 53.04 52.92 53.56 53.42 54.63 55.93 55.33 55.21 55.12 54.24 54.98 54.10 53.25 53.54
52.23 52.86 52.55 52.66 52.24 51.53 51.40 51.80 51.61 51.93 51.76 52.35 52.90 53.04 53.62 53.19 53.03 52.93 53.13 53.64 53.87 54.34 54.97 55.22 54.48 54.09 54.23 54.43 54.86 53.74 52.08 52.10
52.30 53.03 53.33 52.82 51.92 50.79 51.02 51.47 51.51 51.37 51.60 51.76 51.81 53.29 54.01 54.72 55.05 55.07 54.56 54.47 54.44 55.44 56.11 56.22 55.58 55.04 54.38 53.67 53.81 51.54 50.60 50.24
51.55 53.13 53.54 52.34 51.73 50.62 50.44 51.19 51.66 52.55 53.31 53.99 54.20 55.25 55.58 55.67 55.95 56.26 56.52 55.37 55.46 55.72 56.16 56.08 55.67 54.96 53.43 52.69 51.48 49.86 49.48 47.89
49.88 50.98 51.94 53.15 52.55 52.22 51.59 51.64 51.84 52.93 54.08 54.73 54.79 55.32 55.54 55.56 55.42 55.73 55.61 55.58 55.49 56.04 56.50 56.08 56.04 53.49 52.05 51.65 51.05 49.14 48.66 48.37
48.18 49.60 51.21 52.44 53.18 53.41 53.24 53.07 53.23 53.45 54.19 54.58 54.64 55.55 55.94 55.60 54.11 53.96 55.07 55.63 55.98 56.14 56.28 54.82 52.83 51.20 50.48 49.43 48.50 47.06 46.82 47.11
46.94 47.88 48.91 51.15 51.32 52.32 53.23 53.40 54.02 54.37 54.71 54.81 54.68 55.60 56.09 55.46 54.25 54.31 54.21 54.45 55.45 54.87 52.20 50.19 48.56 48.00 47.24 47.02 46.46 45.18 44.35 44.64
46.43 47.50 47.79 48.43 49.50 50.37 51.25 51.71 52.81 54.23 54.30 54.26 55.03 54.05 54.22 54.03 52.60 51.69 51.69 50.77 50.23 49.79 48.76 47.91 46.52 45.30 40.55 41.62 43.86 44.51 44.57 43.25
47.05 48.47 50.06 51.56 50.73 49.89 49.93 51.72 50.62 53.02 53.42 53.24 52.69 51.30 50.29 49.27 48.54 47.64 47.09 46.03 45.63 44.38 44.54 44.31 43.44 43.04 41.09 40.94 40.61 43.11 41.72 38.76
45.55 47.69 49.08 50.00 50.30 49.86 51.32 52.86 51.95 51.65 51.32 50.38 49.86 49.55 47.96 47.06 46.68 45.79 44.00 43.98 43.41 43.04 42.68 42.85 42.37 40.59 38.57 37.99 36.97 36.32 33.82 32.76

GFSFLT1_sfc_wetblb_081.txt.gz
Wetbulb
56.89 56.45 56.37 57.20 57.83 58.27 57.39 56.75 57.57 58.31 59.13 59.38 59.35 59.30 59.12 59.54 59.23 58.59 58.03 57.54 56.96 56.37 55.94 54.85 54.88 53.94 54.90 54.23 53.60 53.49 52.82 51.97
57.58 56.37 56.42 56.35 57.47 57.98 57.33 56.44 57.01 58.03 57.48 57.78 57.78 57.40 58.50 58.57 58.88 58.26 58.60 58.15 57.30 56.89 57.08 56.23 55.82 56.19 56.07 55.94 54.69 53.64 51.94 52.27
55.84 56.08 56.23 55.72 56.55 57.60 57.64 57.02 57.17 57.56 57.70 58.06 58.13 57.80 58.62 58.51 58.70 58.03 58.41 58.94 57.88 57.43 57.55 56.56 56.87 56.84 56.92 55.79 55.18 53.82 54.65 53.44
55.49 55.25 55.48 55.33 56.01 57.07 57.36 57.18 57.37 57.43 58.23 57.58 57.24 57.32 57.38 57.12 57.28 57.01 58.89 58.69 58.55 58.38 58.23 57.88 57.74 57.89 57.09 56.71 56.16 55.86 54.53 53.74
56.44 54.91 55.10 55.18 55.82 57.50 57.64 57.52 57.23 57.47 57.70 57.22 56.37 55.84 55.26 56.69 56.52 57.11 58.25 59.64 58.67 58.61 58.66 58.51 58.48 58.36 57.95 57.62 56.99 56.81 56.34 54.34
56.57 55.63 55.76 55.12 55.73 56.41 57.07 57.48 57.47 57.47 57.42 57.32 56.60 56.32 57.06 57.69 57.43 58.34 59.33 59.90 59.45 58.69 59.19 59.38 59.26 58.85 58.79 58.58 57.60 56.35 57.01 56.76
57.41 57.45 56.80 54.37 55.35 55.36 56.36 56.41 57.59 58.12 57.67 58.05 56.72 57.44 57.67 56.71 56.65 58.14 58.83 59.63 59.92 60.63 60.08 59.72 60.03 59.78 59.13 58.83 58.83 57.96 57.30 56.86
56.11 55.71 53.93 53.69 53.92 53.88 54.84 55.35 56.15 57.68 57.05 56.79 57.65 57.54 58.05 57.85 58.29 58.69 58.69 58.56 58.69 59.80 60.28 60.51 60.23 60.40 60.15 60.17 59.33 58.28 58.03 57.45
55.77 56.20 55.78 54.74 53.29 53.17 53.90 55.39 56.20 56.97 57.18 56.33 56.36 57.64 57.19 57.26 57.48 58.11 57.91 58.86 58.82 59.56 59.78 60.40 60.21 60.49 60.36 60.30 60.49 59.81 59.36 58.57
55.19 56.08 56.40 56.07 54.89 53.89 54.24 55.93 56.63 56.88 57.04 57.75 56.97 56.78 57.43 56.98 57.20 57.97 58.41 58.38 57.83 58.48 59.37 59.46 60.08 60.32 60.19 60.45 60.21 59.47 59.02 59.05
54.82 55.65 56.01 56.42 56.11 55.62 55.71 56.20 56.13 56.47 57.08 57.42 57.20 57.01 57.60 57.63 58.05 57.52 57.63 58.50 58.33 58.20 58.32 58.94 59.41 59.93 60.13 59.77 58.95 59.36 58.01 57.11
54.68 55.86 56.65 56.53 56.58 55.62 55.12 55.67 55.59 55.82 56.02 56.68 57.20 57.27 57.64 58.11 57.65 57.78 57.95 59.17 58.69 58.28 58.34 58.75 59.16 59.20 59.17 58.40 57.65 56.26 55.72 55.52
55.23 55.85 56.22 56.00 55.90 55.36 54.93 55.55 55.34 56.38 55.98 55.86 56.08 56.86 57.44 57.33 56.21 57.50 59.05 58.60 58.77 57.94 58.21 58.09 58.57 58.01 57.35 55.62 55.86 54.75 53.11 52.22
54.80 55.63 55.39 55.54 55.67 54.97 54.89 55.14 55.88 55.88 55.94 55.11 54.44 55.04 55.26 55.41 55.87 57.06 59.02 58.83 58.42 57.65 57.65 57.77 58.14 58.27 58.02 55.76 55.38 54.34 52.69 52.61
53.58 55.10 55.86 55.90 55.69 55.41 54.83 54.94 55.91 55.83 54.92 55.15 54.90 54.91 56.01 55.65 55.57 57.23 58.48 58.57 58.36 58.24 57.98 57.38 58.25 58.38 57.10 55.60 54.40 53.29 52.06 51.06
51.40 53.66 55.10 56.01 55.77 55.41 55.35 55.35 55.17 55.50 55.31 55.25 55.38 56.63 56.67 57.17 57.65 57.69 58.48 58.40 58.26 58.75 58.41 58.18 57.97 56.04 53.57 52.44 51.84 49.55 48.46 46.52
50.31 51.49 52.79 54.11 54.83 55.71 55.50 55.26 55.17 55.42 54.98 55.17 56.09 56.54 56.96 57.18 57.52 57.73 56.99 56.86 57.40 57.76 57.01 55.50 51.78 50.49 44.93 43.85 46.89 46.86 45.49 44.15
49.08 51.25 52.22 53.13 54.47 55.22 55.42 55.74 56.25 55.63 55.23 55.56 56.00 56.57 56.34 57.10 56.87 54.76 55.00 54.74 52.03 50.06 48.27 47.69 46.40 44.94 40.22 41.11 40.93 44.90 43.09 39.04
49.95 49.95 51.91 53.63 54.24 54.49 55.53 55.57 55.71 55.71 55.78 55.94 56.33 55.89 54.69 51.73 51.19 50.60 47.58 46.73 46.03 45.05 44.36 43.79 42.94 40.66 38.69 38.28 37.36 37.98 36.00 34.28

GFSFLT1_sfc_wetblb_084.txt.gz
Wetbulb
61.07 59.39 60.62 60.86 59.97 59.29 58.79 57.95 57.87 59.53 60.13 59.69 59.77 59.29 59.18 59.34 59.16 58.12 57.53 57.19 57.12 58.61 58.56 58.05 57.97 56.42 56.80 56.54 56.92 56.83 56.42 55.96
61.83 59.15 58.78 59.20 59.67 58.32 57.45 56.60 58.45 59.95 58.63 57.87 57.99 56.92 58.01 58.58 58.22 58.41 58.34 57.85 57.73 58.69 58.83 58.96 58.53 57.38 58.56 59.04 58.06 56.83 55.51 56.31
60.45 58.98 59.32 59.03 59.25 58.49 57.29 56.71 57.23 58.07 59.37 59.17 58.63 58.25 58.51 58.29 58.52 58.53 58.39 58.05 56.73 58.54 59.30 58.99 58.57 58.09 58.80 58.75 58.96 57.31 57.44 56.49
59.83 59.06 59.16 60.25 59.34 58.24 57.40 57.34 56.90 58.13 58.98 58.72 58.41 58.08 58.68 57.78 58.49 57.47 58.34 59.59 58.65 58.71 59.28 59.73 59.40 60.95 59.74 59.98 59.27 59.00 56.85 57.64
60.59 59.79 58.87 59.60 59.56 59.05 58.63 58.11 57.80 58.11 59.01 57.86 56.98 55.32 54.89 57.43 58.22 58.17 58.42 60.33 60.02 59.42 60.31 60.69 61.08 60.84 60.56 60.67 60.25 60.21 59.45 57.51
60.60 60.43 60.07 60.59 59.19 58.47 58.94 58.64 58.14 58.01 58.44 57.90 57.41 56.14 56.87 58.90 57.31 56.52 56.65 60.15 60.97 60.30 61.03 61.09 61.03 60.95 61.15 61.29 60.86 60.28 60.05 59.32
61.29 61.69 60.84 60.70 59.26 57.68 58.79 57.97 57.96 57.82 58.03 58.41 58.01 57.31 56.72 56.47 55.76 55.03 55.74 59.53 60.69 61.81 61.09 61.33 61.39 61.09 61.23 61.68 61.99 61.41 60.73 60.68
60.44 60.65 60.31 59.80 58.23 57.50 57.60 57.75 57.49 57.88 57.86 58.13 58.86 58.21 57.28 56.67 57.57 56.17 55.66 58.90 59.10 60.95 61.74 60.85 61.24 61.69 61.88 62.52 62.42 62.47 62.00 61.01
60.21 61.11 61.19 59.58 59.03 58.68 57.03 56.97 56.80 58.26 58.27 58.92 59.88 60.40 59.35 58.41 57.46 56.63 59.49 60.07 60.79 61.50 62.25 62.61 63.02 63.03 62.98 63.27 63.10 62.84 62.73 62.19
59.57 60.97 61.18 60.30 59.78 59.19 57.37 57.05 58.15 58.80 58.63 59.33 59.92 60.47 60.66 60.94 60.49 60.10 60.75 61.93 60.97 62.08 62.70 62.68 62.88 63.17 63.44 63.36 62.37 62.20 62.87 62.82
59.45 60.52 61.20 61.00 60.59 59.81 58.58 59.55 59.77 60.81 60.68 60.32 60.12 60.29 60.66 60.93 61.32 61.00 61.53 62.13 62.03 61.83 62.10 62.32 62.36 62.56 62.47 62.40 62.13 62.54 62.13 62.60
58.79 60.11 61.41 61.75 61.52 60.18 59.01 59.69 60.19 60.50 60.87 61.17 60.80 60.50 60.33 60.95 61.40 61.52 61.51 62.50 61.81 61.39 61.34 61.28 60.91 60.75 61.34 61.62 62.04 62.00 61.41 61.25
59.07 59.72 60.52 60.90 61.14 60.79 59.75 59.82 60.02 60.73 60.88 60.95 60.94 61.06 60.84 60.68 61.24 61.88 62.54 61.83 61.92 61.08 60.92 60.75 60.34 60.32 60.73 60.69 60.70 61.16 59.75 58.73
58.61 59.25 59.41 60.08 60.70 60.85 60.32 59.91 59.89 60.50 60.49 60.45 60.52 60.61 60.54 61.08 61.13 61.60 61.52 61.46 61.33 61.17 60.66 60.26 59.66 60.04 59.82 60.53 60.63 59.95 59.03 56.69
57.54 58.97 59.52 60.13 60.61 60.91 60.80 60.25 60.35 60.04 59.77 59.39 59.54 60.12 60.26 60.47 60.75 60.50 60.35 60.43 60.07 60.29 60.36 59.92 59.90 59.62 59.37 59.60 59.39 58.83 58.04 57.17
55.28 57.74 59.60 60.05 60.32 60.84 60.80 61.05 60.40 60.35 59.25 58.68 58.66 59.47 59.79 59.55 59.84 60.05 59.31 59.30 60.04 60.26 60.15 60.25 60.62 59.87 59.84 60.18 59.70 58.09 57.52 55.73
54.17 55.59 58.63 59.59 59.69 60.46 60.21 60.21 60.25 60.30 59.29 58.75 59.30 59.20 59.14 59.19 59.48 59.38 59.14 59.22 59.53 59.93 59.51 60.09 60.45 60.17 49.27 45.25 52.09 54.53 50.66 47.17
53.15 54.03 56.11 59.12 60.20 60.17 60.14 60.32 60.73 59.76 59.44 59.30 59.09 59.11 58.94 59.22 59.38 59.45 59.17 59.31 59.24 59.02 59.96 59.75 57.47 52.56 41.26 40.88 42.35 46.52 43.83 39.84
52.04 53.24 55.21 57.02 59.76 60.55 61.11 60.82 59.95 59.30 59.14 59.04 59.22 59.11 58.97 59.20 59.17 59.04 59.15 57.93 56.18 52.20 47.91 46.36 45.22 41.08 38.47 38.30 37.55 38.06 36.09 35.50

GFSFLT1_sfc_wetblb_087.txt.gz
Wetbulb
62.47 63.38 62.95 63.46 63.03 61.16 60.27 59.13 58.79 60.17 59.95 59.55 58.50 57.83 57.97 57.58 57.23 57.11 57.21 57.31 57.91 58.07 57.82 57.29 57.26 56.84 58.37 58.52 58.80 59.91 59.19 58.09
62.69 63.28 62.85 62.96 62.41 59.80 59.32 58.24 58.39 59.66 58.46 57.40 56.86 56.38 57.06 56.82 56.57 57.42 57.47 58.55 58.07 57.78 56.79 57.39 56.64 56.60 57.30 59.11 59.37 58.57 57.08 58.38
61.69 62.38 61.74 61.94 61.29 60.46 58.59 58.47 58.54 58.93 58.94 57.95 57.21 56.55 56.71 56.80 56.97 57.71 58.39 57.68 57.55 59.22 59.51 58.29 58.66 57.97 58.02 58.76 59.38 57.50 56.73 58.24
61.04 61.57 61.02 60.37 60.31 59.69 58.55 58.57 59.15 59.88 59.57 58.84 57.59 57.41 57.46 56.92 56.39 55.77 57.36 57.48 57.34 58.73 61.28 59.51 59.82 59.21 58.87 60.34 60.78 59.12 57.11 57.84
61.64 61.80 61.15 60.97 61.44 60.31 60.69 59.41 58.62 59.54 59.87 58.11 56.36 54.63 53.99 55.66 55.37 55.93 57.53 58.99 57.82 56.82 58.48 59.99 59.14 59.83 60.29 60.51 61.42 61.58 60.94 57.67
61.33 62.09 62.07 62.59 62.80 59.88 60.29 59.51 58.45 58.75 59.58 58.42 57.23 55.01 54.97 55.58 55.73 56.25 58.25 59.39 59.74 58.86 58.35 60.32 61.98 61.81 62.02 62.56 62.35 60.99 60.87 59.92
61.30 63.17 63.11 62.82 62.78 61.12 59.86 58.94 58.18 58.60 58.50 58.29 57.36 56.25 55.44 55.69 55.33 55.64 57.14 57.62 58.13 58.65 59.78 61.85 61.96 62.32 62.37 62.93 62.97 61.91 61.84 61.76
60.52 62.22 62.06 62.46 61.70 60.64 58.98 58.43 57.57 58.05 58.26 58.65 58.05 57.19 56.38 57.18 55.78 55.82 54.70 55.49 56.44 58.16 60.25 62.31 61.90 62.66 62.51 62.60 62.65 62.38 62.60 61.59
60.18 62.12 62.51 62.17 61.85 60.29 58.15 57.97 57.96 58.41 58.08 58.66 59.20 58.58 56.80 57.51 57.96 56.46 54.98 55.35 56.71 59.30 62.06 62.14 62.28 62.59 62.47 63.18 62.93 63.21 63.56 63.23
59.43 61.62 62.73 62.55 62.05 60.87 59.79 57.80 58.33 58.62 58.73 58.85 58.68 59.11 59.71 59.02 58.07 57.64 56.23 56.38 56.49 57.85 62.46 61.33 62.55 62.86 63.27 63.31 63.11 63.36 63.64 63.83
59.27 60.78 62.70 63.16 62.42 62.04 61.19 60.34 59.53 59.31 59.48 59.60 59.79 60.86 60.79 60.98 60.54 58.72 59.46 57.92 59.50 60.38 61.57 62.58 62.45 63.18 63.80 63.16 62.95 63.53 62.88 63.32
58.73 60.70 62.58 63.31 62.76 62.46 61.13 60.42 60.18 60.76 59.62 59.73 59.86 60.04 61.62 62.24 61.70 61.06 61.40 60.37 61.19 61.27 61.81 62.16 62.36 62.89 63.34 62.48 62.62 62.64 61.82 62.22
58.84 60.91 61.96 62.40 62.22 62.37 61.27 60.54 60.17 62.20 62.22 61.12 60.65 60.03 60.36 60.61 62.46 62.92 62.90 61.97 62.29 62.04 61.94 62.18 62.11 62.15 62.30 62.04 61.62 61.53 61.39 61.07
59.32 60.56 60.98 61.87 62.03 62.07 61.53 60.79 60.99 61.81 62.21 62.83 62.76 62.17 61.56 61.82 62.22 63.16 63.23 62.97 62.58 62.67 62.32 62.20 62.15 62.06 61.85 61.99 61.48 61.24 61.40 61.18
58.39 59.88 60.68 61.44 62.05 62.27 62.01 61.59 62.22 62.26 61.64 61.69 62.04 62.69 62.84 63.00 62.71 61.75 61.73 61.65 61.98 62.00 62.43 62.46 62.31 61.96 61.45 61.42 60.74 60.93 61.05 60.83
55.70 58.63 60.47 61.10 61.42 62.46 62.72 62.64 62.31 62.42 61.24 61.01 61.61 62.78 62.55 62.58 62.78 62.80 61.59 60.77 61.67 62.25 61.88 62.04 62.14 61.49 60.90 61.42 60.90 60.53 60.37 59.36
55.19 56.21 59.07 60.62 60.92 61.21 62.66 62.76 62.78 62.55 61.70 61.41 61.37 61.70 61.31 62.35 62.50 62.47 62.46 62.04 61.87 61.96 61.37 61.50 61.39 60.27 50.05 46.21 52.33 59.82 57.68 55.13
55.27 55.78 56.56 58.81 61.46 61.77 61.79 62.30 63.35 62.42 61.59 61.11 60.84 60.76 60.30 61.30 60.92 60.55 61.04 60.95 61.33 60.95 60.96 60.84 60.57 60.46 42.62 42.62 42.80 49.34 45.49 41.59
55.66 55.51 56.18 57.41 59.14 62.29 62.17 62.54 62.13 62.27 61.71 61.20 61.36 60.94 60.17 60.32 60.15 60.30 60.90 61.09 59.88 58.91 57.85 56.10 50.88 43.68 41.15 41.03 39.23 38.97 36.55 35.88

GFSFLT1_sfc_wetblb_090.txt.gz
Wetbulb
61.77 62.88 63.19 62.76 62.87 60.72 59.23 58.86 60.02 60.37 59.10 58.11 57.95 57.63 57.57 57.79 57.88 57.71 57.85 57.36 57.54 57.78 57.85 58.05 58.25 58.33 58.10 57.12 56.18 57.11 55.46 54.46
62.05 62.79 62.57 62.52 61.43 59.89 58.13 58.02 59.38 59.12 57.46 56.18 55.57 54.92 55.51 55.98 56.30 56.53 56.44 56.42 56.56 56.39 56.48 56.06 55.87 55.46 55.95 56.18 56.37 55.78 54.26 56.02
60.88 61.96 61.52 61.80 60.45 59.18 58.21 58.40 59.09 58.80 57.99 56.97 56.13 55.30 54.93 55.13 55.71 55.82 55.73 56.12 56.30 56.16 55.60 54.82 54.38 54.22 54.76 55.76 55.53 54.05 54.08 54.41
59.87 61.04 60.54 61.54 59.81 58.27 58.10 57.75 58.88 58.72 58.11 56.97 56.49 55.42 54.68 53.72 53.99 54.70 55.48 56.05 56.37 56.19 55.25 54.88 54.80 54.62 54.78 55.47 56.24 53.75 52.03 53.85
60.13 61.01 60.34 60.38 60.50 59.06 58.30 58.67 58.73 58.87 57.95 56.11 54.81 53.12 51.71 53.18 53.35 54.22 55.57 56.34 55.83 56.03 55.59 56.43 55.54 56.11 56.43 56.73 58.29 56.05 55.74 52.93
59.63 60.91 61.02 60.83 60.89 58.88 58.14 58.56 58.67 58.82 57.77 56.71 54.59 53.34 54.11 54.80 54.54 54.07 54.05 54.91 55.66 56.21 58.29 57.91 57.52 57.41 57.61 57.41 57.98 58.74 57.74 56.90
60.23 61.97 61.99 61.15 61.49 59.31 58.14 57.60 57.91 58.83 58.38 56.92 55.31 53.98 54.07 54.05 53.11 53.20 54.43 54.96 56.28 56.16 57.27 57.38 57.88 57.77 58.27 58.91 58.77 58.51 58.03 57.47
58.47 61.07 60.74 60.79 60.45 58.92 58.23 57.79 56.63 57.99 58.26 57.73 55.74 54.70 54.35 54.24 53.28 53.20 53.73 54.62 56.16 57.18 57.36 56.62 57.65 58.80 59.27 59.94 58.80 58.74 58.25 57.44
58.42 61.16 61.15 61.16 60.89 59.31 57.77 57.85 57.09 57.79 58.12 57.92 57.42 56.00 55.18 55.16 54.43 54.55 54.78 54.97 55.66 57.06 57.63 58.04 58.16 59.08 59.46 59.14 58.89 58.93 58.90 58.49
57.65 60.98 61.63 61.06 60.96 59.71 58.14 57.52 57.73 57.55 57.49 58.13 57.99 57.36 56.08 55.65 55.45 55.79 55.51 55.64 56.19 56.62 57.57 57.87 58.65 58.99 59.25 59.03 58.55 58.85 58.92 59.33
57.49 59.77 61.65 61.66 61.56 60.29 58.90 57.93 57.63 57.75 57.92 58.00 58.24 58.08 57.29 57.08 57.36 55.59 55.59 55.53 55.61 56.04 56.87 57.70 57.88 58.58 59.40 59.21 58.66 58.94 59.07 59.50
57.49 59.25 62.11 61.71 62.19 60.39 59.05 58.27 57.86 57.70 57.95 58.11 58.32 58.45 58.00 57.02 57.34 57.67 56.60 56.07 55.70 55.62 56.27 56.72 57.96 58.27 58.63 59.10 59.31 58.97 59.15 58.84
57.71 59.14 61.80 61.63 61.13 60.62 59.59 58.73 58.37 58.45 58.61 58.39 58.04 58.67 58.87 58.43 57.63 57.67 58.12 56.83 56.38 55.94 56.14 56.06 57.04 58.60 58.77 58.46 58.59 58.89 58.35 57.91
57.99 59.04 60.79 61.46 60.94 60.89 60.03 59.38 59.01 59.61 58.93 58.52 58.25 58.88 59.06 59.05 59.06 59.04 58.65 58.08 57.34 57.00 56.42 56.24 57.72 58.26 58.37 58.84 58.84 58.27 58.35 58.24
58.13 58.94 59.85 61.31 61.52 61.06 60.82 59.67 59.72 59.68 60.10 58.68 58.12 58.24 58.99 59.16 59.95 60.17 60.20 59.20 58.76 57.95 57.58 58.16 58.09 58.63 59.25 59.22 58.95 57.99 57.54 57.63
56.10 58.07 59.08 60.30 61.16 61.38 61.54 60.43 59.73 59.91 59.76 59.75 59.05 59.21 59.60 59.30 59.53 59.72 60.41 60.43 59.86 59.45 59.13 58.79 58.90 59.05 59.16 58.51 58.38 57.65 57.10 56.22
55.05 56.15 58.40 59.66 60.54 61.45 61.74 61.10 60.15 60.32 59.57 59.53 60.38 60.80 60.55 59.58 59.36 59.62 59.76 59.71 59.76 59.72 58.99 58.85 58.35 59.05 50.26 47.20 52.53 56.14 55.59 53.58
54.63 54.84 56.31 58.12 60.34 61.10 61.31 61.65 61.54 60.41 59.86 59.86 60.17 60.31 60.24 60.28 60.62 60.21 59.51 58.67 58.93 58.59 58.61 58.63 58.21 57.80 42.40 42.57 42.07 49.97 46.23 42.23
55.38 55.81 56.25 56.76 57.00 60.63 61.42 62.55 61.87 60.49 60.09 60.05 60.30 59.80 59.83 59.87 59.75 59.44 59.34 59.29 58.50 57.96 57.90 57.40 48.99 42.21 38.91 38.42 38.01 38.79 36.72 36.54

GFSFLT1_sfc_wetblb_093.txt.gz
Wetbulb
57.56 58.80 58.95 59.27 58.37 58.02 57.48 57.65 59.57 59.42 58.88 58.40 58.22 57.88 58.28 59.31 60.35 61.37 62.47 62.49 62.17 60.70 60.20 58.64 58.67 58.12 56.62 56.12 55.19 54.67 54.91 54.68
58.24 58.98 58.19 57.93 57.48 56.77 56.63 56.85 58.86 58.10 57.04 56.13 55.77 55.09 55.59 56.17 58.10 58.94 60.20 61.28 60.66 59.88 59.00 58.23 58.77 57.37 55.79 55.33 54.98 54.05 53.15 53.34
57.53 57.78 57.76 57.50 56.27 56.39 56.39 57.22 58.69 57.73 57.11 56.71 55.90 55.12 55.32 55.38 56.08 56.26 57.07 58.28 58.89 58.06 57.13 56.14 56.72 56.07 54.46 54.16 54.82 52.73 52.51 53.39
56.76 56.98 56.86 56.71 55.78 55.66 56.35 57.56 58.59 57.87 57.48 56.15 55.20 54.73 54.42 53.60 53.38 53.92 55.60 56.83 57.68 57.01 55.67 54.46 54.29 54.24 53.65 53.50 53.74 52.59 51.32 51.27
57.17 56.70 56.53 55.84 55.92 56.33 56.80 57.73 58.39 57.69 56.87 55.26 53.43 52.57 51.77 53.18 53.14 53.66 54.66 56.02 55.86 55.58 55.03 54.49 54.17 53.59 52.79 53.82 55.21 53.07 51.39 49.98
56.77 56.67 57.24 56.33 56.29 56.04 56.25 57.72 58.05 57.21 56.32 55.29 53.53 52.21 52.41 53.42 53.50 52.98 53.86 54.91 55.65 55.15 54.97 54.69 54.51 54.28 54.02 54.38 55.01 54.19 53.84 52.37
57.56 57.89 58.02 56.39 56.20 55.83 56.46 57.32 57.58 56.94 56.04 55.05 52.58 51.63 52.20 51.87 52.22 52.66 52.93 54.09 54.30 54.53 54.68 54.51 54.31 54.82 55.99 55.92 56.28 56.00 55.87 55.33
57.09 56.56 56.64 56.49 55.65 55.36 56.12 56.89 57.30 57.12 55.92 54.67 53.84 53.82 53.43 52.62 52.29 53.08 52.30 52.52 53.45 54.32 54.59 55.23 55.83 56.21 57.35 56.58 56.72 57.26 56.95 56.31
57.33 57.24 57.07 56.96 55.90 55.59 55.76 56.35 57.11 57.18 56.23 55.16 54.32 54.77 54.51 53.63 52.95 53.47 53.24 52.76 52.94 54.42 55.29 56.52 56.63 56.54 57.13 57.34 57.47 57.45 57.16 56.77
57.56 57.68 57.89 57.39 56.22 55.74 55.52 55.65 56.71 57.45 57.32 56.03 54.89 54.75 54.69 54.07 53.23 52.74 53.87 54.20 54.41 55.10 55.13 55.33 55.75 57.40 57.80 57.73 57.41 57.11 57.10 56.93
57.80 57.94 58.03 58.18 57.08 56.40 56.10 56.15 56.21 57.05 57.66 57.29 56.03 55.25 55.08 54.94 54.46 52.87 53.97 54.12 54.97 54.74 55.73 55.75 55.80 56.30 57.41 57.55 57.26 57.32 56.92 56.55
54.10 58.36 58.62 58.99 57.94 56.31 56.00 56.04 56.59 56.50 57.29 57.67 57.34 56.18 55.57 55.32 55.06 54.14 54.98 54.60 55.43 55.18 55.34 55.23 55.47 56.66 57.50 57.08 56.18 56.68 56.93 57.07
52.49 58.70 58.60 58.37 57.54 56.29 56.00 55.93 56.27 57.05 57.43 57.34 57.44 57.52 56.88 55.30 55.19 55.29 54.96 54.60 54.34 55.22 55.47 55.61 55.87 56.26 56.83 57.34 56.73 57.15 56.60 56.50
52.75 58.49 58.06 58.35 57.51 56.71 56.17 55.92 55.71 56.77 57.33 56.94 57.30 57.48 57.18 56.11 55.30 56.06 56.03 55.10 54.29 54.48 55.00 54.63 55.51 56.35 56.91 56.94 56.71 56.60 56.76 56.90
53.11 57.41 57.91 58.58 58.16 57.37 56.86 56.55 56.65 56.63 56.86 56.76 56.65 57.08 57.49 57.17 55.88 55.93 56.42 56.25 55.03 54.35 54.35 54.18 54.39 54.93 55.88 56.87 57.05 56.48 56.63 56.77
53.17 53.84 57.64 58.28 58.04 58.12 57.80 57.25 57.06 57.23 56.80 56.41 56.13 56.91 57.31 57.88 57.85 57.31 56.60 56.37 56.38 56.16 55.10 54.59 54.30 54.54 54.81 55.64 56.38 56.40 56.30 55.90
52.15 53.13 55.18 58.46 58.55 58.33 58.41 57.67 57.41 57.90 57.52 56.41 56.83 56.83 57.08 57.37 57.64 57.97 57.69 57.22 56.93 56.33 56.00 55.03 54.56 55.27 49.06 46.43 51.92 56.39 55.00 54.61
52.44 53.13 52.97 53.02 54.62 58.66 58.42 58.29 58.25 57.61 57.07 58.03 57.62 57.42 56.89 57.29 57.55 57.40 57.49 57.67 58.43 57.58 57.22 56.87 55.81 55.58 46.32 45.72 44.65 53.79 50.80 47.10
52.34 52.84 53.15 53.19 53.46 53.71 54.88 59.06 58.35 57.47 57.29 57.37 58.49 58.39 57.65 57.66 57.74 56.98 56.98 57.12 57.06 57.55 57.84 57.57 53.43 42.72 39.58 39.56 39.66 41.11 38.99 38.46

GFSFLT1_sfc_wetblb_096.txt.gz
Wetbulb
55.63 57.97 58.86 58.47 58.14 58.07 57.62 57.31 58.30 58.96 59.81 59.05 58.89 59.09 59.83 61.36 62.59 62.61 62.18 62.99 61.09 59.44 57.66 56.08 53.72 55.11 56.07 55.13 54.09 54.34 53.91 53.86
57.37 57.81 57.77 57.52 57.35 56.79 56.55 56.90 58.14 58.38 57.64 56.62 56.47 56.25 56.64 57.96 59.99 62.07 62.35 62.67 61.25 59.21 58.20 56.90 53.78 56.16 56.25 55.44 54.42 54.01 53.13 53.34
56.22 56.43 56.77 56.57 56.14 56.31 56.26 57.04 57.27 57.59 57.49 56.88 56.24 55.84 55.61 56.60 57.10 58.58 61.88 62.38 61.35 59.39 57.94 57.36 55.13 56.93 55.52 54.85 54.27 51.87 52.37 53.47
54.96 55.66 55.58 55.66 55.36 55.34 55.84 56.52 56.89 57.35 57.03 55.92 55.14 54.72 54.39 53.85 54.61 55.67 57.46 61.17 60.63 60.05 57.86 57.80 56.99 56.32 55.10 54.88 54.39 53.51 52.27 51.54
55.63 55.61 54.98 54.94 55.08 55.64 56.18 56.83 57.06 57.08 56.06 55.20 53.94 53.13 52.07 53.24 53.59 54.36 55.91 58.43 59.87 59.14 58.06 57.62 56.78 56.29 54.51 54.59 54.04 53.04 53.27 51.37
55.09 55.45 55.30 55.28 55.08 55.32 55.94 56.85 56.82 56.64 55.30 54.89 54.12 53.15 53.48 53.35 53.09 53.64 54.53 55.69 57.17 57.58 57.25 56.49 54.90 54.87 53.81 54.55 53.32 52.90 52.36 51.60
55.85 56.48 55.93 55.24 55.14 55.24 55.44 56.33 55.77 56.25 55.57 54.77 54.10 53.18 52.78 52.38 52.30 52.70 53.85 54.98 55.18 55.52 55.45 55.33 54.92 54.21 54.12 53.80 54.86 53.67 53.61 52.64
55.07 54.91 54.30 54.74 54.34 54.42 55.12 55.74 54.63 55.76 55.16 54.37 52.17 52.24 52.15 52.46 52.46 52.55 52.80 53.29 54.00 54.17 54.74 54.38 54.31 54.47 55.20 55.34 55.05 55.53 54.47 53.67
55.16 55.24 54.69 54.66 54.47 54.52 55.24 55.46 54.74 55.47 54.65 53.92 52.55 52.11 52.74 53.11 53.37 53.26 53.01 53.30 54.04 54.16 54.28 54.57 54.33 54.78 54.92 55.93 55.56 55.30 56.23 55.31
55.32 55.82 55.40 54.91 54.53 54.69 54.97 55.50 55.51 55.48 54.85 54.67 53.25 53.22 53.12 53.42 53.19 53.49 53.15 52.80 53.87 53.38 54.07 54.37 55.30 54.75 55.14 55.85 55.36 55.33 56.17 56.09
55.83 56.09 55.91 55.68 55.35 55.51 55.20 55.91 55.77 55.76 55.46 55.12 53.91 53.72 53.54 53.97 53.56 51.97 52.66 52.42 53.77 53.87 54.10 54.81 55.66 55.12 55.56 55.94 55.61 55.87 56.01 55.98
56.10 56.57 56.78 56.58 55.92 55.45 54.85 55.06 55.89 55.74 56.13 55.60 54.37 54.03 54.52 54.12 53.51 53.26 53.17 53.59 53.21 54.59 53.99 54.38 54.61 55.23 56.01 55.70 55.39 56.28 55.96 55.44
56.35 56.74 56.92 55.86 55.03 55.19 54.82 54.85 55.19 56.18 56.61 56.94 55.30 54.79 54.78 54.43 53.99 53.40 54.26 53.68 54.12 54.60 54.58 53.97 54.05 54.30 54.46 55.47 55.92 56.26 56.04 55.16
51.61 56.71 56.71 55.82 55.24 55.04 54.82 54.92 55.12 55.85 56.77 57.06 56.73 55.53 54.72 54.28 54.40 54.47 53.83 54.39 53.82 54.08 54.36 53.78 53.80 54.05 54.48 55.10 56.01 56.24 56.07 55.93
52.91 55.74 56.60 56.62 55.91 55.31 55.27 55.14 55.69 55.60 56.04 56.31 56.42 56.82 56.15 55.23 54.95 54.89 54.55 54.07 53.63 53.60 53.99 53.93 53.89 54.19 54.39 54.65 55.43 55.62 56.16 56.49
52.95 54.52 55.92 56.51 55.91 55.91 55.92 55.31 55.60 55.99 55.62 55.06 55.49 56.67 57.51 57.18 55.98 55.16 55.31 54.19 53.82 53.78 53.36 53.35 53.50 53.61 54.13 54.41 55.20 54.73 55.41 55.20
51.43 52.99 55.55 56.76 56.76 56.07 56.21 55.71 55.53 55.93 55.17 54.74 55.51 56.15 57.16 57.31 56.61 55.69 55.45 55.29 54.78 53.82 53.13 52.87 52.34 52.93 47.24 44.63 49.79 54.45 54.26 54.10
51.05 50.92 51.42 52.27 53.98 57.62 56.42 56.54 56.85 55.92 55.40 55.73 55.87 55.69 55.38 56.20 57.25 56.57 55.58 55.20 55.56 54.73 54.24 53.72 52.96 52.85 44.75 44.08 43.24 53.33 53.79 53.23
47.72 47.44 47.90 47.72 49.42 52.24 53.98 58.05 57.20 56.57 56.06 56.01 56.19 56.01 55.57 55.36 55.72 56.37 56.84 56.86 55.78 55.57 54.69 54.90 54.97 54.04 44.43 43.38 41.73 47.29 40.94 39.90

GFSFLT1_sfc_wetblb_099.txt.gz
Wetbulb
48.28 51.00 57.20 58.78 58.61 58.46 58.25 58.08 57.54 57.30 57.98 57.88 58.16 60.34 61.60 62.13 62.66 62.04 62.35 62.58 60.55 59.10 57.90 56.30 55.65 54.81 54.44 54.06 52.88 52.87 54.43 54.60
50.83 55.54 57.39 57.72 57.77 57.48 57.36 56.70 58.07 58.63 57.21 57.18 57.48 57.82 57.76 59.77 61.88 62.31 61.89 62.46 60.38 58.90 57.19 55.68 54.15 54.09 54.42 53.50 53.58 52.82 51.95 55.08
53.87 55.78 56.65 56.71 57.06 56.93 56.40 56.69 58.03 58.07 57.83 57.22 55.67 56.38 56.50 57.64 58.67 60.50 62.04 62.19 60.55 59.28 57.48 55.48 52.72 54.06 54.42 53.34 53.71 51.48 51.51 54.60
53.15 55.30 55.96 56.14 56.55 55.88 56.14 57.34 57.06 57.31 56.24 54.77 55.09 54.95 54.89 54.83 55.75 57.60 59.13 62.03 60.75 59.63 57.94 55.97 52.72 55.63 54.45 53.54 53.89 53.73 51.91 51.32
53.89 55.21 55.40 55.94 55.98 55.92 56.39 56.72 56.10 56.44 56.20 54.54 53.96 53.28 52.75 53.85 54.48 55.15 56.78 59.44 60.88 59.98 58.65 56.74 54.18 56.65 55.01 54.13 54.70 54.32 54.05 51.35
52.79 54.86 55.81 55.99 56.11 55.36 56.35 56.18 55.57 55.92 55.66 53.68 53.09 53.51 53.90 53.75 53.68 54.31 55.81 57.02 59.95 59.80 57.97 55.83 54.68 56.50 55.47 54.58 53.18 53.07 54.10 52.26
53.16 55.74 56.07 55.51 55.47 55.34 56.01 56.00 55.93 55.90 55.16 52.96 52.56 53.28 52.86 52.37 52.80 53.27 54.39 55.23 57.04 58.66 57.60 56.01 56.14 56.18 55.10 54.18 53.54 53.04 52.62 52.43
51.16 54.24 54.39 54.89 54.10 54.77 55.34 55.43 55.22 54.98 54.17 52.97 53.01 52.96 53.55 52.66 52.71 53.18 53.77 53.99 54.47 55.69 57.07 56.06 55.64 55.22 55.65 55.23 54.25 53.71 53.17 52.37
51.84 54.67 54.55 54.63 54.36 54.49 55.06 55.00 54.75 54.61 53.88 53.01 53.59 52.85 53.58 53.40 53.38 53.75 54.06 54.31 54.47 55.08 55.42 55.68 55.18 55.52 55.65 55.44 54.67 54.65 54.22 53.40
52.06 54.90 54.57 54.49 54.51 54.25 54.49 54.86 55.03 54.51 53.77 52.40 51.36 52.15 52.53 53.01 52.83 53.48 53.61 54.32 54.82 55.02 55.78 55.78 55.72 55.70 55.30 54.82 54.67 54.26 55.08 54.55
53.67 54.99 54.57 54.65 54.49 54.45 54.97 55.55 54.83 54.70 54.02 52.41 51.68 52.02 52.38 52.76 53.78 53.01 52.70 53.36 54.30 53.94 54.13 55.24 55.56 55.34 55.42 54.45 54.06 54.81 54.81 55.28
54.61 55.33 55.04 54.79 54.92 54.63 54.99 55.19 54.97 54.63 54.48 52.75 51.94 52.07 52.28 52.44 52.53 52.88 52.01 52.78 53.38 53.42 53.56 54.40 54.08 54.00 54.28 54.16 53.89 54.28 54.95 54.69
50.34 55.57 54.93 54.82 54.47 54.69 54.67 55.30 54.89 55.21 54.93 53.67 52.32 52.84 52.46 52.25 52.08 52.45 53.11 51.74 52.64 53.69 53.65 53.51 54.22 53.95 54.00 53.92 53.47 53.95 54.16 53.86
50.75 55.30 55.23 54.42 54.51 54.67 54.20 54.93 55.40 55.48 55.08 54.30 53.01 52.36 52.71 52.36 52.10 52.32 53.54 52.86 52.46 53.40 53.83 53.36 53.24 53.81 53.83 54.17 53.97 53.98 53.66 54.22
50.55 52.84 55.64 55.00 54.86 54.73 54.49 54.42 55.42 55.85 55.30 54.78 53.53 52.60 52.95 53.19 53.62 53.43 53.29 53.72 52.89 52.30 53.63 53.86 53.26 53.49 53.62 53.85 54.49 54.20 54.37 54.83
49.39 52.84 55.06 54.85 54.26 54.73 54.81 54.47 55.01 55.82 55.39 54.99 54.67 54.30 54.06 53.55 53.86 54.19 53.64 53.54 53.60 53.02 52.83 52.89 53.11 52.82 52.68 52.82 53.31 53.36 53.37 53.42
47.73 48.84 49.59 53.79 55.05 54.65 55.18 54.91 55.28 55.00 54.75 54.99 55.55 55.83 55.45 54.53 53.95 54.38 54.30 53.62 53.43 53.16 52.70 52.80 51.91 52.52 46.45 44.78 49.10 51.97 51.69 52.13
45.71 45.70 46.27 47.21 49.43 51.94 54.90 55.80 56.19 55.98 55.44 55.38 55.02 55.00 54.95 56.33 56.10 55.04 54.11 54.02 53.82 52.78 52.61 52.05 51.97 52.05 44.35 43.66 43.15 51.93 52.09 52.30
44.10 44.09 44.33 45.49 46.90 47.71 49.00 54.24 56.36 55.76 55.38 55.41 55.35 54.76 54.51 54.92 56.40 56.02 55.24 54.80 54.18 54.18 52.81 51.93 51.86 51.43 43.81 42.96 41.59 48.34 49.32 46.01

GFSFLT1_sfc_wetblb_102.txt.gz
Wetbulb
47.32 46.79 49.30 57.55 57.91 58.64 58.56 58.68 58.37 57.21 57.47 58.38 59.08 60.19 61.16 61.61 61.41 61.19 62.38 62.26 60.65 59.79 58.76 58.06 58.35 57.53 56.09 55.75 54.35 55.31 54.84 53.97
48.41 50.44 47.51 55.16 56.51 57.31 58.01 58.30 56.95 57.69 58.36 58.24 58.14 58.76 58.88 60.36 61.31 61.90 61.84 62.21 60.36 59.25 57.61 56.33 56.63 55.87 54.98 54.64 54.21 54.31 53.98 54.85
47.79 53.51 53.55 55.35 56.63 57.05 58.25 58.08 57.65 58.10 58.50 58.92 57.84 58.03 57.55 58.88 60.57 61.78 61.88 62.20 60.38 59.12 57.50 56.25 55.83 55.25 54.00 53.82 54.02 53.63 53.80 54.70
46.21 52.75 53.69 53.96 55.77 57.08 57.60 57.21 57.85 58.14 58.21 57.01 55.53 55.31 55.26 55.83 56.97 58.78 60.83 61.87 60.52 59.42 58.04 56.19 55.20 55.51 53.98 53.68 53.87 53.91 52.64 54.07
45.76 49.76 53.27 54.65 55.69 57.57 57.17 56.99 57.56 57.66 56.88 55.67 54.28 53.17 52.71 54.27 55.77 56.77 57.96 60.43 60.62 59.72 57.76 55.67 54.36 54.38 53.94 53.73 54.46 54.81 54.29 52.00
47.18 47.77 54.07 55.00 55.97 56.27 56.89 57.17 57.02 56.76 56.19 55.65 54.43 54.33 54.31 53.91 54.45 55.49 56.31 57.17 59.88 59.67 58.00 56.29 53.46 54.35 54.84 53.55 53.80 53.35 54.82 53.68
49.84 49.97 53.69 54.68 56.09 56.03 56.63 56.28 55.71 55.86 55.20 54.61 53.39 52.52 53.21 53.05 53.56 53.92 55.27 56.21 58.29 59.78 58.80 56.64 54.37 55.04 54.84 53.61 54.34 54.10 53.92 54.28
49.01 50.02 52.73 54.27 54.94 55.18 55.83 55.35 54.35 54.90 54.45 54.08 51.68 51.76 52.86 52.88 53.02 53.64 54.27 54.69 55.73 58.42 58.03 56.43 54.55 56.28 55.28 54.30 53.68 53.61 53.41 53.27
49.49 50.55 52.23 54.20 54.96 55.16 55.61 55.21 54.51 54.90 54.34 53.79 52.13 52.08 53.01 52.89 53.27 53.93 54.50 54.72 55.23 56.79 57.39 55.20 55.06 55.85 55.05 54.70 54.39 53.62 53.27 52.85
49.03 50.94 52.76 54.64 54.76 54.90 55.17 54.92 55.35 54.66 54.21 53.29 52.37 52.25 52.65 52.74 52.73 53.63 54.30 55.12 55.23 55.73 56.55 55.45 55.79 55.67 55.18 54.63 53.63 53.88 53.68 53.21
49.12 50.96 53.45 55.07 55.19 55.25 55.71 55.40 54.89 54.56 53.90 53.10 51.90 51.83 51.72 51.92 52.00 52.18 53.88 54.82 55.24 55.21 55.17 55.11 55.20 55.42 54.98 54.90 54.56 54.66 53.53 53.55
48.37 51.54 54.77 54.98 55.26 54.64 54.74 54.72 54.95 54.35 53.96 52.95 51.39 51.15 51.50 51.77 51.96 52.36 52.50 54.37 54.48 54.68 55.28 55.08 54.78 54.78 55.16 54.78 54.35 54.07 53.77 53.54
49.56 51.85 53.84 54.39 54.47 54.27 54.33 54.70 54.62 55.11 54.41 52.96 51.11 51.41 51.52 51.24 51.70 52.02 52.66 52.02 54.35 54.51 54.47 55.00 55.35 54.96 54.90 54.27 53.84 53.94 53.41 53.43
50.05 50.28 53.84 54.13 54.41 54.09 53.94 54.93 54.74 55.14 54.51 53.25 51.69 51.18 51.31 51.09 51.14 51.42 51.85 51.67 52.15 53.19 54.00 54.05 53.97 54.21 54.21 54.37 53.88 53.84 53.69 53.63
48.11 48.90 54.39 54.51 54.60 53.71 54.19 54.49 55.48 55.30 54.43 53.51 52.11 51.56 51.32 51.35 51.28 51.16 51.47 51.61 52.27 52.07 53.28 53.47 53.56 53.77 53.82 53.80 53.84 53.63 53.43 53.46
46.21 47.08 47.90 53.42 54.33 54.74 54.68 55.42 55.87 55.32 54.73 53.88 53.06 51.85 52.16 51.91 51.29 51.05 51.24 51.29 51.65 52.93 52.33 52.37 52.79 52.84 53.27 53.43 53.78 53.43 53.01 52.92
45.08 45.15 45.97 46.94 48.51 54.21 54.80 54.66 55.81 56.07 54.58 54.70 54.45 53.80 52.28 51.84 51.89 51.70 51.12 52.27 52.33 52.39 52.21 52.30 51.51 52.42 46.29 44.96 49.58 52.76 52.61 52.47
43.14 42.92 43.07 44.04 45.74 46.85 52.11 55.34 56.05 55.83 55.63 55.87 55.37 54.90 54.10 52.84 52.45 52.52 52.98 52.33 52.64 52.46 52.37 52.27 52.21 52.37 43.70 44.01 43.64 51.86 51.54 51.70
41.17 40.72 39.91 40.93 43.19 44.57 47.84 53.94 56.13 55.32 55.02 55.34 55.77 55.18 55.16 55.51 54.11 53.76 53.76 53.67 52.85 52.24 52.21 52.40 52.19 51.96 43.59 42.64 41.32 49.19 49.37 49.16

GFSFLT1_sfc_wetblb_105.txt.gz
Wetbulb
53.58 54.01 54.61 55.36 57.32 61.83 62.58 63.11 63.64 63.39 62.58 61.79 62.52 61.99 62.24 63.27 63.20 63.10 63.39 62.57 62.42 63.27 62.53 60.95 60.82 58.74 56.92 56.81 56.30 56.55 56.74 56.52
52.90 53.89 55.88 56.58 57.23 60.32 61.53 62.09 62.73 62.04 60.07 59.63 60.24 60.54 61.33 61.61 62.56 62.53 62.21 62.59 62.60 62.08 61.33 59.80 60.86 58.43 56.28 56.15 56.27 55.30 56.43 58.63
53.03 53.91 56.31 58.15 58.43 60.19 60.93 61.35 61.19 62.63 61.49 61.64 61.83 61.42 61.03 61.09 62.21 62.04 62.01 62.42 62.26 60.67 59.17 57.64 58.21 58.04 56.44 55.68 56.07 55.22 55.48 56.35
53.60 53.53 53.86 57.27 58.56 59.37 59.95 60.82 59.85 62.51 62.57 61.60 60.93 59.43 59.18 59.00 59.27 61.00 61.56 62.67 61.02 60.35 58.27 57.49 56.24 55.94 55.32 55.88 56.20 55.85 54.15 55.43
53.25 53.40 54.06 54.99 57.55 59.96 59.78 59.98 59.45 61.12 61.30 59.35 59.12 58.50 57.15 57.59 58.27 59.78 61.73 62.51 60.85 60.16 58.42 57.57 57.03 56.27 55.36 55.72 56.53 56.21 55.42 54.14
52.07 53.05 54.44 55.97 57.55 59.20 59.35 58.76 58.81 59.74 60.17 60.07 58.59 57.28 57.80 57.88 58.32 57.98 59.95 61.24 61.18 59.58 58.10 56.85 56.65 56.69 55.94 56.27 55.94 55.92 56.36 56.50
52.32 53.87 54.92 55.61 58.25 59.16 58.95 57.45 57.65 58.49 59.22 58.31 56.77 56.66 57.56 56.82 56.00 55.89 58.01 57.79 59.05 60.16 58.05 57.30 56.10 55.92 55.50 55.83 56.56 56.44 56.61 57.22
51.81 52.53 53.10 54.34 56.36 58.38 58.10 56.81 56.64 57.57 57.75 56.65 56.22 56.92 57.30 56.56 55.77 55.47 56.46 56.58 57.53 59.14 57.77 56.46 55.94 55.46 55.28 54.65 54.96 57.00 58.03 56.97
51.54 52.21 52.79 53.83 56.68 57.98 56.98 56.24 55.94 56.85 56.57 55.53 55.45 57.74 57.55 57.72 57.01 56.31 56.43 57.88 57.69 60.10 58.83 56.91 56.09 55.18 55.26 54.48 54.80 55.11 55.49 56.55
51.10 52.59 53.25 53.96 55.82 57.40 56.86 55.85 55.89 55.90 55.65 55.63 55.71 57.22 57.61 57.38 56.83 55.54 55.74 57.39 57.63 59.27 58.78 57.07 55.54 55.58 55.54 54.26 54.26 54.38 54.55 55.50
51.09 52.42 53.33 54.65 55.71 57.82 57.02 56.70 55.86 55.93 55.51 57.25 56.11 56.51 57.45 57.44 57.12 54.74 55.91 57.77 57.56 57.99 57.39 56.02 55.20 56.08 54.93 54.51 54.10 54.55 54.55 54.28
50.80 52.51 53.09 53.34 54.74 57.70 56.61 56.54 56.05 55.44 55.86 56.61 54.59 55.30 56.72 56.88 56.51 56.39 56.54 57.56 57.02 56.64 56.32 55.50 55.40 55.24 54.51 53.47 52.89 53.38 53.65 53.49
50.10 49.96 50.14 53.16 54.35 56.13 56.15 55.96 55.62 55.25 55.82 55.11 53.53 54.67 55.97 56.00 55.83 56.45 57.44 56.13 56.60 56.51 56.13 55.38 55.30 55.34 54.71 53.51 52.01 52.53 53.36 52.86
48.94 47.92 47.76 51.26 55.38 54.83 55.04 55.24 55.46 55.29 55.43 53.81 52.62 53.53 54.94 55.34 55.52 56.25 56.69 56.87 55.46 56.29 55.85 54.97 54.89 54.99 54.32 53.93 53.49 52.56 52.88 53.81
47.27 45.97 45.74 48.06 55.08 54.65 54.39 55.02 55.62 55.49 54.72 53.52 52.25 52.89 54.37 55.24 55.65 55.90 55.82 56.35 56.23 55.24 55.48 55.22 55.14 55.12 54.89 54.39 54.49 53.65 53.39 53.49
44.91 44.22 43.60 44.38 47.60 52.92 54.80 55.16 55.54 55.76 54.80 53.48 52.58 53.07 53.55 54.93 55.08 55.33 55.60 55.49 56.06 56.08 55.98 55.99 55.24 54.59 54.44 54.25 54.16 54.02 53.81 53.55
42.44 42.05 41.30 41.10 42.72 46.12 54.48 55.06 55.48 55.67 54.78 54.26 54.02 53.21 53.61 54.25 54.93 54.90 55.03 55.12 55.18 55.26 54.54 55.08 55.69 55.51 46.47 45.64 51.00 53.55 53.34 52.99
39.77 39.05 38.84 39.27 40.64 43.84 47.62 53.60 56.50 55.52 55.38 55.07 54.51 53.73 53.34 54.00 54.74 54.62 54.27 54.52 55.16 54.82 54.28 54.07 53.98 55.07 43.92 44.56 44.20 56.34 54.68 53.71
38.04 37.58 37.44 37.56 39.61 40.82 43.43 52.21 55.84 55.56 55.66 55.58 55.20 54.69 53.69 53.83 54.02 54.36 54.37 54.52 53.90 53.99 53.96 53.42 53.52 52.91 42.70 42.90 42.23 55.62 56.01 56.08

GFSFLT1_sfc_wetblb_108.txt.gz
Wetbulb
57.24 57.81 58.66 59.06 59.91 61.30 63.25 65.56 67.16 67.81 68.97 67.47 65.34 65.52 65.44 66.49 67.11 66.52 66.94 66.46 65.61 66.16 65.42 64.24 61.94 58.90 57.91 58.11 58.03 58.30 58.01 57.70
55.67 57.05 59.88 60.65 61.60 61.68 61.29 63.65 66.01 66.24 65.35 63.63 62.62 62.05 63.39 63.94 65.78 65.95 66.73 65.91 66.46 64.80 64.16 63.13 60.89 57.90 57.74 58.40 57.84 56.62 56.87 58.27
54.77 57.86 59.84 60.79 61.87 62.53 62.86 63.85 65.48 65.99 64.23 63.40 64.30 63.31 63.24 64.12 64.60 66.01 65.11 65.58 64.88 63.30 62.45 61.94 60.01 58.52 58.57 58.81 57.62 56.31 56.44 58.16
55.46 57.26 58.92 60.72 61.16 62.13 62.52 63.69 64.84 65.91 65.72 63.18 63.86 63.69 63.34 62.51 62.81 63.66 64.25 64.67 63.91 62.83 62.35 61.73 60.62 59.23 56.88 56.94 57.00 56.18 54.34 57.03
56.53 57.32 58.45 59.96 61.10 62.47 62.90 63.49 64.36 65.08 65.57 62.37 62.72 62.09 60.71 62.61 62.03 62.76 63.00 63.47 63.00 62.93 63.06 62.07 59.87 59.00 56.92 56.88 57.35 56.56 56.41 55.09
56.07 56.93 58.45 59.70 60.93 62.55 62.96 63.21 63.72 63.77 63.82 62.76 63.29 63.76 64.14 64.32 63.88 62.94 61.48 62.54 63.06 62.93 60.61 58.82 57.44 58.07 57.30 57.22 57.10 56.62 56.12 55.92
56.11 57.49 58.44 59.08 60.54 61.85 63.04 62.51 62.41 62.24 61.70 62.70 63.49 64.31 64.01 62.36 60.80 59.62 59.29 60.64 62.22 61.36 59.91 58.83 58.27 57.92 56.85 57.11 57.34 56.50 56.30 56.46
55.06 55.98 57.06 58.07 58.69 60.23 62.00 61.91 60.75 60.57 60.28 61.13 63.04 64.58 63.54 62.69 62.21 60.93 58.36 59.29 60.30 61.11 58.57 58.47 57.44 56.97 58.56 57.74 57.71 56.97 57.15 56.48
54.45 55.43 56.61 57.69 58.24 59.50 60.61 61.21 59.39 58.99 58.99 59.54 61.55 62.71 63.60 62.75 62.00 60.44 59.59 59.54 61.33 60.16 58.91 59.56 57.72 57.55 57.68 57.47 56.98 57.02 57.66 57.13
54.51 55.73 56.86 57.46 57.50 58.69 60.23 59.99 58.81 58.61 58.18 58.26 59.01 61.25 62.91 62.20 61.97 61.24 60.11 60.49 60.43 60.99 58.59 57.65 57.31 56.81 56.36 55.55 55.89 56.22 56.90 56.96
54.56 54.90 55.38 55.75 56.28 57.43 59.61 60.52 57.91 58.68 57.85 57.32 57.04 61.01 62.30 62.24 61.51 58.46 59.38 59.27 60.38 59.95 60.00 58.05 56.83 55.87 55.74 55.23 54.72 55.31 55.63 56.54
53.68 53.75 53.90 53.31 55.23 53.60 59.48 58.61 57.33 57.53 57.24 56.65 58.41 60.52 61.37 61.04 60.12 58.46 58.44 59.94 59.90 59.75 60.45 58.26 56.54 55.67 55.53 54.62 54.11 54.48 54.58 55.23
52.80 52.48 51.32 50.63 48.43 46.32 56.51 57.10 57.02 57.80 57.20 57.27 57.99 59.05 60.50 58.77 58.58 57.80 58.57 58.76 59.49 59.63 58.13 56.91 55.53 55.51 55.13 53.81 53.56 53.82 53.84 53.99
51.75 51.09 49.31 47.20 44.76 44.90 55.47 57.04 57.16 57.22 57.02 56.53 56.83 56.76 58.12 57.51 58.02 58.08 58.12 58.59 59.22 58.99 58.36 56.76 55.89 55.51 54.42 54.14 53.82 53.74 53.84 54.16
47.84 48.32 48.18 44.37 43.08 43.02 46.99 56.27 56.84 56.17 55.72 55.59 55.69 55.66 56.77 57.57 57.84 57.72 58.00 57.78 57.51 57.31 56.70 57.70 57.15 56.45 55.67 54.77 53.60 52.73 52.96 53.64
43.84 43.61 43.95 41.97 41.25 41.40 42.91 55.64 55.51 55.54 54.80 54.64 54.44 55.40 56.23 57.69 57.27 57.38 57.67 57.26 57.26 58.31 57.17 56.92 57.51 56.42 55.80 55.06 54.05 53.37 52.48 52.79
42.29 40.65 40.43 39.27 38.85 39.79 41.69 53.64 55.35 55.39 54.78 54.19 54.50 54.61 54.80 55.81 57.04 56.96 56.88 56.55 56.94 57.27 56.37 56.19 56.04 55.93 46.16 45.61 51.15 53.64 52.96 52.59
39.27 37.42 37.55 37.62 37.99 39.02 39.70 45.24 55.57 54.84 54.76 54.82 54.86 55.17 54.50 55.13 55.76 55.93 56.06 56.21 56.98 56.64 56.71 56.64 55.85 55.75 44.00 44.56 44.52 55.19 53.55 53.13
37.45 36.73 36.01 35.80 37.00 38.34 39.52 45.92 52.98 52.46 51.85 53.12 54.42 54.46 54.96 55.66 55.43 55.23 55.93 56.35 56.12 56.48 56.54 56.20 55.80 55.72 42.72 43.63 42.73 55.25 53.67 53.66

GFSFLT1_sfc_wetblb_111.txt.gz
Wetbulb
58.53 59.44 60.34 60.43 61.09 62.43 63.75 65.62 68.68 69.77 70.59 71.32 70.29 68.86 68.56 68.73 68.25 68.07 68.48 68.25 67.65 67.60 67.38 67.77 67.24 64.67 62.90 62.11 60.37 59.81 59.73 59.78
58.73 59.67 59.61 60.04 61.55 61.59 61.87 62.45 65.90 68.52 67.62 67.98 68.73 65.21 65.35 66.01 68.44 68.56 68.07 67.36 66.68 65.84 65.65 65.69 64.92 62.73 61.13 60.71 59.33 58.99 58.35 59.50
57.58 57.30 58.49 60.83 61.72 62.53 63.27 63.44 63.75 65.35 67.05 67.68 67.88 64.51 64.68 65.44 66.84 68.23 67.91 67.04 66.13 65.69 65.85 63.72 61.42 60.68 59.90 59.18 57.96 56.97 57.41 58.79
54.77 55.77 59.15 60.90 61.57 62.43 62.93 63.63 64.19 65.43 66.82 67.61 65.52 65.11 64.21 63.72 64.16 65.87 66.68 66.70 66.00 66.12 65.78 63.81 60.96 60.04 58.45 58.28 57.80 57.11 55.53 57.63
54.63 57.26 58.79 60.22 61.44 62.54 64.05 64.08 64.25 65.12 66.96 66.40 63.81 62.50 61.40 62.81 64.00 65.04 65.51 66.48 65.67 64.96 64.59 62.98 60.96 59.59 58.50 58.51 59.49 57.64 56.70 55.27
56.31 57.45 58.33 59.05 60.33 62.01 63.65 64.44 64.42 65.08 65.77 66.43 64.36 62.37 64.33 65.43 65.19 64.83 63.88 65.28 64.29 65.05 64.15 62.04 61.10 59.62 58.97 58.03 57.69 56.96 56.41 55.33
56.20 57.33 58.03 58.52 60.22 61.49 62.67 63.41 64.00 64.65 65.46 65.49 64.36 62.88 65.06 64.82 65.11 64.35 62.64 63.83 64.46 63.77 63.27 62.37 62.16 60.79 58.90 57.87 58.03 57.20 56.65 56.10
55.09 55.30 56.29 57.51 58.68 60.14 60.97 61.50 62.87 64.16 64.27 63.89 63.63 63.32 64.91 65.64 65.38 64.29 62.86 62.27 62.65 62.58 61.28 61.50 60.79 60.49 59.67 58.31 57.52 57.06 56.72 56.43
54.78 55.65 56.98 57.63 58.50 59.29 59.81 60.37 61.30 63.26 63.23 61.20 63.04 63.15 63.56 64.65 64.68 63.84 62.75 62.17 62.57 61.45 60.67 60.14 59.50 59.44 59.64 58.32 57.46 57.18 56.92 56.55
55.13 56.30 56.78 57.19 57.16 57.35 58.64 58.68 60.03 62.17 62.75 61.12 61.89 62.52 62.70 63.33 65.29 65.10 63.31 62.50 62.21 62.14 61.38 60.72 60.13 58.95 59.28 58.12 57.20 56.60 56.78 56.71
54.76 55.46 55.59 55.56 55.71 55.88 57.50 57.96 59.77 61.48 61.67 60.51 60.82 60.53 63.26 63.66 64.85 63.13 62.66 61.55 61.92 61.01 59.77 59.13 58.23 57.46 57.39 57.21 57.04 57.27 56.44 56.82
54.29 54.09 54.41 54.38 54.34 53.86 54.22 54.74 59.51 61.35 60.25 59.78 59.81 59.33 61.70 62.93 63.35 62.62 61.94 61.50 61.30 60.94 61.22 59.53 57.93 56.96 56.37 55.67 55.81 56.07 55.99 56.05
52.95 53.76 53.89 53.37 52.27 51.17 50.35 49.20 56.06 60.03 59.11 58.59 58.05 58.61 60.51 61.87 61.92 60.75 61.19 60.90 61.32 60.92 60.79 59.05 57.70 56.42 55.95 54.84 54.12 54.58 54.68 54.88
51.47 51.42 50.84 50.84 50.59 49.27 46.52 45.95 46.37 58.12 57.83 57.28 57.36 57.40 59.54 60.29 60.29 59.71 59.50 60.58 59.60 60.11 58.90 58.87 57.15 56.27 55.33 55.16 54.70 54.13 54.40 54.96
48.09 48.27 48.07 49.13 48.68 46.83 43.41 43.50 44.22 57.34 57.47 56.88 56.78 57.63 58.87 58.96 58.91 59.23 58.42 59.82 58.94 58.59 58.26 58.29 57.04 56.25 55.10 54.46 54.07 53.75 53.84 54.26
44.78 44.50 44.21 45.71 45.45 43.79 41.31 42.51 43.95 56.06 56.27 56.07 55.73 56.73 57.73 58.79 57.98 58.38 57.87 58.74 58.99 58.16 57.45 57.49 57.91 56.92 56.09 55.13 54.35 53.72 53.16 53.27
41.72 41.85 41.28 41.71 41.33 39.37 39.20 40.05 41.60 46.51 54.98 54.32 55.12 56.01 56.88 58.19 57.66 57.29 57.16 58.02 58.91 58.36 57.03 56.95 56.70 56.58 45.86 45.78 51.76 53.66 52.98 52.54
38.26 37.75 38.16 38.90 38.62 37.71 37.47 38.53 39.54 47.04 54.44 54.30 54.66 55.02 55.72 56.73 56.54 56.73 56.96 56.75 57.71 57.85 58.34 58.00 57.28 58.04 44.62 44.19 44.21 55.36 53.51 52.98
35.50 35.86 35.47 36.90 36.90 37.06 37.44 37.07 39.02 49.45 50.80 52.34 54.62 55.02 55.02 55.33 55.84 55.95 56.38 57.07 56.45 56.70 56.78 57.01 57.68 57.14 42.91 43.09 42.28 55.39 54.49 54.51

GFSFLT1_sfc_wetblb_114.txt.gz
Wetbulb
57.15 57.85 58.61 59.02 59.49 62.45 64.29 67.86 69.34 70.36 69.92 69.61 70.22 69.21 68.49 68.44 67.98 68.06 67.90 67.06 68.21 66.88 66.03 66.29 66.23 65.35 63.99 63.67 62.79 63.20 61.92 60.91
58.57 59.59 60.12 61.89 61.14 60.71 61.98 63.72 67.73 68.71 68.35 68.35 68.17 67.50 66.82 66.89 67.11 67.33 66.56 66.41 67.00 66.14 65.55 64.86 65.13 63.82 62.47 62.49 61.08 59.96 59.36 60.48
57.52 58.77 59.87 59.69 60.09 62.26 63.02 63.03 62.99 65.34 67.56 67.28 68.17 68.02 67.21 66.46 66.16 66.84 67.21 66.86 66.50 65.24 64.97 63.63 63.94 62.36 61.33 60.79 59.44 57.93 58.37 60.05
56.16 57.50 58.87 60.71 61.15 62.24 61.97 62.25 62.82 63.40 62.95 66.15 66.58 66.01 64.81 63.63 63.86 64.40 66.58 66.29 65.80 65.26 64.22 63.63 62.76 61.72 60.25 59.91 59.29 57.64 56.29 57.93
54.24 56.04 57.98 59.50 60.93 62.64 62.49 63.36 63.11 63.44 64.69 63.83 64.96 63.01 61.89 62.98 63.29 63.69 65.35 65.48 65.02 64.92 64.53 62.87 61.61 60.97 59.62 59.31 59.20 58.45 57.59 56.05
53.90 56.69 58.15 59.36 60.63 61.73 62.23 63.05 63.16 63.36 64.01 64.17 64.73 63.45 63.48 63.15 62.69 62.51 63.29 64.15 64.44 64.08 64.25 62.78 60.97 60.08 59.51 58.76 58.25 57.78 57.70 57.05
55.42 57.45 58.28 58.95 60.25 60.64 61.29 61.26 60.90 63.30 63.58 64.01 64.68 63.07 62.63 61.98 62.42 61.83 62.33 63.36 63.67 64.10 63.45 62.43 61.12 59.78 58.82 58.69 58.59 58.03 57.14 57.47
53.85 54.91 55.73 57.16 58.06 59.14 59.33 59.35 58.81 60.53 63.27 62.77 64.09 64.04 63.06 62.36 62.98 62.77 62.15 61.87 62.22 62.72 62.91 61.64 60.84 59.76 58.87 58.94 58.12 57.76 57.00 56.13
54.94 55.64 56.26 56.09 56.53 56.29 56.46 56.00 56.67 58.75 59.00 62.12 62.76 64.28 62.86 62.97 63.83 63.92 62.01 61.53 61.75 62.75 62.52 61.84 60.63 60.22 59.23 58.71 58.06 57.40 56.92 56.21
54.17 55.36 55.49 54.91 54.51 54.83 54.49 54.49 55.30 57.14 57.64 58.97 61.96 62.05 62.60 62.20 63.84 63.38 62.61 62.23 61.91 62.27 62.00 60.36 60.14 59.72 59.07 58.24 57.31 56.91 56.71 56.41
53.93 53.56 53.58 54.11 54.38 53.95 53.41 52.88 53.08 54.63 55.41 57.75 61.10 60.61 61.77 62.51 63.27 62.06 62.34 61.82 61.19 61.20 60.36 59.44 58.74 58.65 58.71 57.76 57.01 56.93 56.25 56.45
52.88 53.32 53.54 53.54 53.69 52.46 51.43 50.10 49.54 49.92 51.75 55.99 60.32 60.01 61.02 61.89 62.22 61.79 61.46 61.36 60.96 60.76 60.04 59.36 58.81 57.80 57.99 57.15 56.71 56.37 55.79 55.87
51.16 50.97 50.74 50.69 50.85 50.66 48.46 47.62 47.15 47.00 48.53 57.49 59.39 59.86 60.10 60.83 60.98 61.05 60.73 60.11 60.66 60.61 59.47 58.46 57.52 56.77 56.73 56.29 55.83 56.05 55.59 55.21
47.69 48.25 47.65 47.50 48.06 47.99 46.79 46.07 45.21 44.97 47.01 54.62 57.85 58.08 58.82 59.32 59.89 59.45 59.84 59.78 59.69 58.85 59.73 58.26 57.03 56.53 55.81 55.61 55.47 55.19 55.59 55.81
45.10 44.99 44.87 44.62 45.10 44.69 44.04 43.30 43.70 43.29 45.49 53.48 56.45 56.70 57.86 58.55 58.74 58.68 59.12 59.12 58.36 58.12 59.21 58.02 56.80 56.07 55.49 55.05 54.74 54.18 54.63 54.95
42.27 41.76 41.34 41.55 41.53 41.33 40.82 41.15 41.28 41.64 42.51 48.62 56.07 57.05 57.59 58.55 57.40 57.57 58.51 58.27 57.86 57.56 57.71 57.07 56.65 56.11 55.45 54.82 54.44 53.88 53.52 53.76
39.61 38.91 38.02 37.89 37.95 37.68 38.46 38.72 38.83 40.44 42.92 47.47 56.41 56.76 56.83 57.16 56.88 57.11 57.47 57.30 57.31 56.81 56.10 56.69 56.18 56.01 45.73 46.11 51.18 53.34 53.24 52.91
36.38 35.96 35.51 35.69 35.88 36.20 36.72 37.89 38.86 38.68 43.86 53.07 55.47 55.97 56.23 56.49 56.80 56.49 56.50 56.29 56.83 56.41 55.68 55.87 55.34 55.31 44.54 44.46 45.37 53.80 52.65 52.48
34.59 34.68 33.98 34.09 34.94 35.17 36.19 36.81 36.95 36.38 37.27 41.51 50.18 54.89 55.43 56.45 56.26 55.78 55.86 56.25 56.14 56.22 55.83 56.04 55.68 51.08 42.31 42.85 42.49 54.21 52.88 52.21

GFSFLT1_sfc_wetblb_120.txt.gz
Wetbulb
50.76 51.01 51.31 51.55 51.11 57.80 64.09 65.31 66.56 67.40 67.30 66.75 65.47 66.56 66.72 66.72 66.96 67.11 66.38 67.34 66.56 65.98 65.04 64.13 63.91 62.34 60.77 61.43 61.08 58.50 61.61 61.93
50.76 51.65 52.22 50.75 49.93 51.83 62.77 64.00 65.66 66.89 66.45 65.48 64.34 64.27 64.81 65.36 66.25 66.81 66.34 66.38 66.61 65.46 64.91 64.98 64.95 63.02 61.41 61.09 61.20 60.98 60.57 61.79
50.98 51.34 49.29 50.48 52.32 53.46 61.93 64.32 65.30 66.41 66.71 66.68 64.98 64.06 63.90 65.07 65.39 65.78 66.49 65.74 66.03 66.27 65.19 64.38 64.92 63.38 60.94 61.10 61.68 59.87 59.49 61.23
50.41 51.27 50.05 52.48 53.28 56.51 63.11 65.54 65.89 66.31 66.22 64.38 62.85 62.62 61.60 61.37 61.27 63.57 65.12 65.45 65.45 65.76 65.20 64.39 64.16 63.80 62.55 62.40 61.70 60.46 58.34 59.99
50.00 50.05 50.59 52.42 52.47 55.76 57.54 59.06 59.52 60.47 62.42 62.64 60.78 62.19 62.15 61.55 62.59 63.01 63.48 64.66 64.55 64.87 64.02 63.42 63.58 63.29 62.64 61.83 61.38 60.64 59.16 57.65
51.94 51.65 51.89 51.69 51.67 51.67 52.64 53.83 54.12 56.42 57.22 58.28 61.53 60.94 61.69 60.07 59.89 61.76 62.89 63.61 64.70 65.12 64.27 63.98 63.00 62.37 61.40 60.74 60.25 59.46 59.26 57.92
51.84 51.77 51.24 49.72 49.81 50.46 50.63 51.05 51.23 52.71 53.83 54.61 56.72 58.62 59.78 59.50 59.26 59.98 60.13 61.67 64.10 64.29 64.18 63.25 62.91 61.88 60.17 60.30 60.09 59.41 58.76 58.06
49.21 48.92 48.81 48.93 48.27 48.97 49.91 49.58 49.23 50.25 49.85 49.72 51.25 52.20 54.35 58.89 59.97 60.92 60.98 60.49 59.50 61.86 63.01 62.53 62.20 61.83 60.72 60.24 59.29 59.15 58.73 58.01
47.91 47.95 47.98 47.71 47.54 47.04 47.15 47.23 47.25 47.74 47.74 46.97 47.79 49.52 50.54 54.02 59.92 60.82 61.04 61.28 61.64 62.53 62.18 62.40 61.99 61.24 60.30 59.86 59.26 58.81 58.73 58.15
46.61 47.08 47.11 46.20 45.86 45.51 45.29 45.29 45.46 45.73 45.89 45.66 45.54 46.12 47.61 50.82 53.41 60.86 61.49 61.42 61.22 61.87 62.84 62.30 61.26 60.30 59.88 59.31 58.83 58.18 57.91 57.65
43.71 43.40 43.95 44.48 44.50 44.31 44.10 43.80 43.06 43.13 43.15 43.58 44.19 44.31 45.89 48.08 50.46 53.92 61.03 61.43 61.17 61.44 62.17 61.90 60.89 60.00 59.40 58.83 58.37 58.21 57.39 57.29
41.15 41.39 42.50 42.73 42.60 41.87 41.40 41.01 40.57 40.83 40.93 41.79 41.89 42.50 43.83 47.22 48.36 52.42 60.00 61.13 61.64 61.31 62.02 61.40 60.41 59.59 59.11 58.39 57.81 57.45 56.99 56.65
40.10 39.41 39.53 39.45 39.03 38.82 38.54 39.19 39.05 39.92 40.31 40.47 40.56 41.57 43.08 45.60 48.77 55.57 60.02 60.18 60.84 61.29 61.99 60.96 60.03 59.35 58.69 57.83 57.01 56.97 56.47 55.67
38.07 37.17 36.44 36.82 36.87 36.73 36.66 37.09 37.77 38.85 39.52 40.02 40.21 40.90 42.19 44.27 46.76 58.17 59.43 59.70 59.53 61.02 61.06 59.57 58.98 58.49 57.73 57.69 57.03 56.43 56.31 56.07
36.22 35.36 34.89 35.28 35.42 35.25 35.57 36.20 37.13 37.60 37.90 38.79 38.77 39.91 41.79 43.51 46.88 55.39 59.21 59.73 59.29 59.75 59.38 58.93 58.27 57.84 57.40 57.17 56.61 55.99 55.79 55.77
34.79 34.04 33.50 33.88 33.92 34.47 35.15 35.66 36.01 36.41 36.85 37.53 37.88 39.34 40.87 42.94 48.09 54.23 58.34 58.66 59.39 59.54 58.56 58.09 57.67 56.85 56.83 56.39 56.17 55.73 55.39 55.07
33.62 33.30 32.97 32.67 32.74 33.03 33.99 34.66 34.52 35.05 34.52 35.21 36.52 38.19 39.60 41.89 44.77 54.86 57.63 57.57 58.84 58.81 57.61 56.77 56.13 55.91 46.04 46.58 52.51 55.07 54.75 54.22
31.79 31.80 31.67 31.50 31.99 32.92 32.66 33.76 34.11 33.28 33.36 34.07 35.32 36.54 37.52 39.93 42.10 55.04 56.91 57.25 57.13 57.25 56.93 55.97 55.19 55.20 44.58 44.77 45.13 54.35 53.68 53.50
32.13 32.06 31.26 30.96 32.35 31.99 32.64 33.41 32.66 32.12 31.52 31.82 33.28 34.34 35.62 38.40 40.86 47.60 56.67 56.67 55.85 55.93 55.41 55.33 54.77 50.54 42.95 43.13 42.59 53.24 52.60 52.45

GFSFLT1_sfc_wetblb_123.txt.gz
Wetbulb
50.08 49.01 50.38 54.15 61.20 64.34 64.30 66.15 66.65 66.87 66.84 65.38 64.07 64.65 65.04 65.65 66.04 66.24 65.80 66.09 66.16 65.63 64.68 63.55 63.63 62.26 61.76 61.60 61.51 60.35 60.80 61.51
50.52 50.35 49.94 49.58 51.32 57.74 62.55 63.40 65.33 66.30 65.84 64.29 63.71 64.73 65.11 65.00 66.04 66.29 65.93 66.29 65.95 65.61 64.93 63.65 63.91 62.91 61.39 61.27 60.49 60.75 60.60 62.11
49.56 50.34 49.42 49.01 48.71 50.77 59.70 62.48 64.23 65.67 66.25 65.88 65.58 65.54 64.64 65.38 65.66 66.09 66.20 66.22 65.80 65.64 64.85 64.10 64.68 63.81 61.98 61.51 62.00 60.26 60.51 61.43
49.33 50.19 50.06 47.80 48.09 48.98 57.03 61.38 63.01 64.96 65.70 64.02 62.28 62.21 61.45 61.40 62.47 64.56 65.79 65.28 65.80 66.05 65.06 64.49 63.74 63.45 61.98 61.88 62.15 61.13 58.85 60.37
47.91 50.83 51.37 50.88 50.89 56.24 57.11 58.55 59.31 61.99 63.05 62.13 61.76 61.83 60.48 62.47 63.33 64.63 64.28 65.06 65.06 65.80 64.83 64.22 64.45 64.06 63.09 62.51 62.81 62.01 60.67 58.62
48.67 49.43 49.68 49.40 50.30 50.58 51.63 52.73 53.50 54.97 57.33 59.58 60.30 60.06 60.97 60.59 60.66 61.44 61.65 63.85 64.41 64.89 65.20 64.50 64.08 63.85 63.53 62.81 62.04 61.26 60.59 59.26
48.25 49.10 49.12 47.96 48.34 48.57 49.20 49.16 49.09 50.22 52.03 52.18 52.39 52.49 54.69 57.88 59.10 59.89 60.27 61.49 63.13 63.80 64.30 64.16 64.40 63.12 62.57 62.14 61.61 61.01 60.25 59.47
46.76 45.51 45.24 45.48 45.49 46.34 47.38 47.39 46.47 47.54 47.53 48.23 49.47 50.21 50.98 51.89 56.31 59.33 60.09 59.27 60.35 62.70 62.68 62.84 62.91 62.44 61.99 61.98 61.01 60.35 59.71 58.83
44.30 44.22 44.54 44.30 43.85 43.61 44.26 44.44 44.17 44.83 45.12 45.07 45.73 46.70 47.99 50.01 53.48 57.32 59.99 61.14 61.50 62.58 62.28 62.65 62.72 62.09 60.69 60.75 60.43 60.17 59.43 58.85
41.87 43.13 42.98 42.25 42.13 42.17 42.02 42.04 42.18 42.55 42.93 43.48 43.49 43.95 44.17 45.19 47.64 50.43 52.65 60.47 61.53 61.31 61.49 62.38 62.49 61.85 61.24 60.43 60.04 59.30 59.04 58.67
40.17 40.39 40.09 40.15 40.46 41.06 40.94 40.94 40.28 40.98 41.33 41.66 42.26 41.76 42.61 43.53 45.39 47.65 50.17 53.10 60.29 60.41 60.76 61.39 61.77 61.55 61.07 60.31 59.79 59.19 58.40 58.18
37.62 38.28 38.85 38.46 38.63 38.35 38.41 38.36 38.56 38.86 39.26 39.78 39.95 40.43 41.32 42.27 43.56 45.95 48.20 51.33 54.42 60.77 60.51 60.65 61.06 60.67 60.30 59.50 59.43 58.32 57.90 57.42
36.09 36.77 36.94 36.58 36.06 36.17 36.04 36.81 36.68 37.45 38.00 38.33 38.86 39.91 40.93 41.28 42.69 44.66 47.95 50.86 55.01 59.22 60.79 60.51 61.20 60.20 59.72 58.98 58.42 57.70 57.36 56.56
35.46 35.02 34.32 34.58 35.02 35.19 35.50 36.06 36.48 36.35 36.58 37.05 38.07 38.78 39.51 39.83 41.01 43.26 46.59 48.61 57.11 58.51 60.78 60.72 60.62 60.10 59.36 59.03 58.43 57.26 57.16 56.62
34.49 34.01 33.70 33.62 34.01 34.14 34.52 35.11 35.62 35.13 35.37 35.37 36.47 37.20 37.79 38.71 40.31 42.55 45.84 49.52 57.18 59.36 60.18 60.55 60.07 59.79 59.23 58.48 57.74 56.88 56.66 56.36
33.06 32.77 32.50 32.87 32.80 33.03 33.59 34.76 34.88 34.62 34.31 34.14 35.18 36.52 37.11 38.12 39.78 41.93 44.33 48.71 56.45 59.23 59.54 60.12 59.57 58.89 58.24 57.60 57.30 56.38 55.92 55.47
32.56 32.25 31.82 31.31 31.58 31.90 32.65 33.76 33.98 34.29 33.20 33.11 34.44 34.63 35.65 36.44 38.59 40.75 43.21 45.79 55.56 58.55 58.93 58.73 57.98 57.70 47.35 47.17 52.99 55.70 55.48 54.85
31.76 30.72 30.29 30.17 29.71 30.83 31.01 32.86 33.56 32.91 32.45 32.46 33.16 33.49 33.91 34.99 36.79 39.21 41.32 43.64 54.35 57.73 58.29 58.25 57.22 57.35 44.99 45.54 45.90 55.88 54.97 54.48
30.25 29.63 29.01 29.45 29.95 29.98 31.44 32.57 31.52 30.88 30.48 30.43 31.17 31.36 32.01 33.79 35.60 37.50 39.24 42.46 50.21 56.88 57.32 57.12 56.58 54.99 43.91 43.72 43.72 54.53 54.19 53.95